[[{"header":{"parameterUnit":"m.s-1","parameterCategory":1,"la1":30.6,"la2":29.2853,"lo1":-89.7004,"lo2":-87.6739,"dy":0.0162,"dx":0.0183,"nx":112,"ny":82,"refTime":"2023-04-26T18:00:00:Z","depth":0,"parameterNumber":2,"parameterNumberName":"U-component_of_WINDS"},"data":[0.0,0.0,0.0,0.0,0.0,0.0,0.0,0.0,0.0,0.0,0.0,0.0,0.0,0.0,0.0,0.0,0.0,0.0,0.0,0.0,0.0,0.0,0.0,0.0,0.0,0.0,0.0,0.0,0.0,0.0,0.0,0.0,0.0,0.0,0.0,0.0,0.0,0.0,0.0,0.0,0.0,0.0,0.0,0.0,0.0,0.0,0.0,0.0,0.0,0.0,0.0,0.0,0.0,0.0,0.0,0.0,0.0,0.0,0.0,0.0,0.0,0.0,0.0,0.0,0.0,0.0,0.0,0.0,0.0,0.0,0.0,0.0,0.0,0.0,0.0,0.0,0.0,0.0,0.0,0.0,0.0,0.0,0.0,0.0,0.0,0.0,0.0,0.0,0.0,0.0,3.7166,3.7284,3.7769,3.8033,3.7869,3.7869,3.7603,3.6921,0.0,0.0,0.0,0.0,0.0,0.0,0.0,0.0,0.0,0.0,0.0,0.0,0.0,0.0,0.0,0.0,0.0,0.0,0.0,0.0,0.0,0.0,0.0,0.0,0.0,0.0,0.0,0.0,0.0,0.0,0.0,0.0,0.0,0.0,0.0,0.0,0.0,0.0,0.0,0.0,0.0,0.0,0.0,0.0,0.0,0.0,0.0,0.0,0.0,0.0,0.0,0.0,0.0,0.0,0.0,0.0,0.0,0.0,0.0,0.0,0.0,0.0,0.0,0.0,0.0,0.0,0.0,0.0,0.0,0.0,0.0,0.0,0.0,0.0,0.0,0.0,0.0,0.0,0.0,0.0,0.0,0.0,0.0,0.0,0.0,0.0,0.0,0.0,0.0,0.0,0.0,0.0,0.0,0.0,0.0,0.0,0.0,0.0,0.0,0.0,0.0,0.0,0.0,0.0,3.8861,3.9514,3.9682,3.9699,3.9564,3.9513,3.9411,3.903,0.0,0.0,0.0,0.0,0.0,0.0,0.0,0.0,0.0,0.0,0.0,0.0,0.0,0.0,0.0,0.0,0.0,0.0,0.0,0.0,0.0,0.0,0.0,0.0,0.0,0.0,0.0,0.0,0.0,0.0,0.0,0.0,0.0,0.0,0.0,0.0,0.0,0.0,0.0,0.0,0.0,0.0,0.0,0.0,0.0,0.0,0.0,0.0,0.0,0.0,0.0,0.0,0.0,0.0,0.0,0.0,0.0,0.0,0.0,0.0,0.0,0.0,0.0,0.0,0.0,0.0,0.0,0.0,0.0,0.0,0.0,0.0,0.0,0.0,0.0,0.0,0.0,0.0,0.0,0.0,0.0,0.0,0.0,0.0,0.0,0.0,0.0,0.0,0.0,0.0,0.0,0.0,0.0,0.0,0.0,0.0,0.0,0.0,0.0,0.0,0.0,0.0,0.0,3.9168,3.9662,4.007,4.007,4.0087,4.0037,3.9952,3.9798,3.9642,3.8662,0.0,0.0,0.0,0.0,0.0,0.0,0.0,0.0,0.0,0.0,0.0,0.0,0.0,0.0,0.0,0.0,0.0,0.0,0.0,0.0,0.0,0.0,0.0,0.0,0.0,0.0,0.0,0.0,0.0,0.0,0.0,0.0,0.0,0.0,0.0,0.0,0.0,0.0,0.0,0.0,0.0,0.0,0.0,0.0,0.0,0.0,0.0,0.0,0.0,0.0,0.0,0.0,0.0,0.0,0.0,0.0,0.0,0.0,0.0,0.0,0.0,0.0,0.0,0.0,0.0,0.0,0.0,0.0,0.0,0.0,0.0,0.0,0.0,0.0,0.0,0.0,0.0,0.0,0.0,0.0,0.0,0.0,0.0,0.0,0.0,0.0,0.0,0.0,0.0,0.0,0.0,0.0,0.0,0.0,0.0,0.0,0.0,0.0,0.0,0.0,0.0,0.0,4.007,4.007,4.007,4.007,4.007,4.007,3.9986,3.9901,3.9729,3.959,0.0,0.0,0.0,0.0,0.0,0.0,0.0,0.0,0.0,0.0,0.0,0.0,0.0,0.0,0.0,0.0,0.0,0.0,0.0,0.0,0.0,0.0,0.0,0.0,0.0,0.0,0.0,0.0,0.0,0.0,0.0,0.0,0.0,0.0,0.0,0.0,0.0,0.0,0.0,0.0,0.0,0.0,0.0,0.0,0.0,0.0,0.0,0.0,0.0,0.0,0.0,0.0,0.0,0.0,0.0,0.0,0.0,0.0,0.0,0.0,0.0,0.0,0.0,0.0,0.0,0.0,0.0,0.0,0.0,0.0,0.0,0.0,0.0,0.0,0.0,0.0,0.0,0.0,0.0,0.0,0.0,0.0,0.0,0.0,0.0,0.0,0.0,0.0,0.0,0.0,0.0,0.0,0.0,0.0,0.0,0.0,0.0,0.0,0.0,0.0,0.0,0.0,4.007,4.007,4.007,4.007,4.007,4.007,4.007,3.9986,3.9729,3.9677,0.0,0.0,0.0,0.0,0.0,0.0,0.0,0.0,0.0,0.0,0.0,0.0,0.0,0.0,0.0,0.0,0.0,0.0,0.0,0.0,0.0,0.0,0.0,0.0,0.0,0.0,0.0,0.0,0.0,0.0,0.0,0.0,0.0,0.0,0.0,0.0,0.0,0.0,0.0,0.0,0.0,0.0,0.0,0.0,0.0,0.0,0.0,0.0,0.0,0.0,0.0,0.0,0.0,0.0,0.0,0.0,0.0,0.0,0.0,0.0,0.0,0.0,0.0,0.0,0.0,0.0,0.0,0.0,0.0,0.0,0.0,0.0,0.0,0.0,0.0,0.0,0.0,0.0,0.0,0.0,0.0,0.0,0.0,0.0,0.0,0.0,0.0,0.0,0.0,0.0,0.0,0.0,0.0,0.0,0.0,0.0,0.0,0.0,0.0,0.0,0.0,0.0,4.0493,4.0781,0.0,4.1187,4.1457,4.1457,4.1422,4.1062,4.045,0.0,0.0,0.0,0.0,0.0,0.0,0.0,0.0,0.0,0.0,0.0,0.0,0.0,0.0,0.0,0.0,0.0,0.0,0.0,0.0,0.0,0.0,0.0,0.0,0.0,0.0,0.0,0.0,0.0,0.0,0.0,0.0,0.0,0.0,0.0,0.0,0.0,0.0,0.0,0.0,0.0,0.0,0.0,0.0,0.0,0.0,0.0,0.0,0.0,0.0,0.0,0.0,0.0,0.0,0.0,0.0,0.0,0.0,0.0,0.0,0.0,0.0,0.0,0.0,0.0,0.0,0.0,0.0,0.0,0.0,0.0,0.0,0.0,0.0,0.0,0.0,0.0,0.0,0.0,0.0,0.0,0.0,0.0,0.0,0.0,0.0,0.0,0.0,0.0,0.0,0.0,0.0,0.0,0.0,0.0,0.0,0.0,0.0,0.0,0.0,0.0,0.0,4.0747,4.1238,4.1542,0.0,4.1999,4.2286,4.2286,4.2196,4.1887,4.1184,0.0,0.0,0.0,0.0,0.0,0.0,0.0,0.0,0.0,0.0,0.0,0.0,0.0,0.0,0.0,0.0,0.0,0.0,0.0,0.0,0.0,0.0,0.0,0.0,0.0,0.0,0.0,0.0,0.0,0.0,0.0,0.0,0.0,0.0,0.0,0.0,0.0,0.0,0.0,0.0,0.0,0.0,0.0,0.0,0.0,0.0,0.0,0.0,0.0,0.0,0.0,0.0,0.0,0.0,0.0,0.0,0.0,0.0,0.0,0.0,0.0,0.0,0.0,0.0,0.0,0.0,0.0,0.0,0.0,0.0,0.0,0.0,0.0,0.0,0.0,0.0,0.0,0.0,0.0,0.0,0.0,0.0,0.0,0.0,0.0,0.0,0.0,0.0,0.0,0.0,0.0,0.0,0.0,0.0,0.0,0.0,0.0,0.0,0.0,0.0,0.0,0.0,4.2202,4.2303,4.2303,4.2303,4.2303,4.232,4.232,4.232,4.2213,0.0,0.0,0.0,0.0,0.0,0.0,0.0,0.0,0.0,0.0,0.0,0.0,0.0,0.0,0.0,0.0,0.0,0.0,0.0,0.0,0.0,0.0,0.0,0.0,0.0,0.0,0.0,0.0,0.0,0.0,0.0,0.0,0.0,0.0,0.0,0.0,0.0,0.0,0.0,0.0,0.0,0.0,0.0,0.0,0.0,0.0,0.0,0.0,0.0,0.0,0.0,0.0,0.0,0.0,0.0,0.0,0.0,0.0,0.0,0.0,0.0,0.0,0.0,0.0,0.0,0.0,0.0,0.0,0.0,0.0,0.0,0.0,0.0,0.0,0.0,0.0,0.0,0.0,0.0,0.0,0.0,0.0,0.0,0.0,0.0,0.0,0.0,0.0,0.0,0.0,0.0,0.0,0.0,0.0,0.0,0.0,0.0,0.0,0.0,0.0,0.0,0.0,0.0,4.2252,4.276,4.3081,4.3081,4.3572,4.391,4.391,4.391,4.3618,4.2841,0.0,0.0,0.0,0.0,0.0,0.0,0.0,0.0,0.0,0.0,0.0,0.0,0.0,0.0,0.0,0.0,0.0,0.0,0.0,0.0,0.0,0.0,0.0,0.0,0.0,0.0,0.0,0.0,0.0,0.0,0.0,0.0,0.0,0.0,0.0,0.0,0.0,0.0,0.0,0.0,0.0,0.0,0.0,0.0,0.0,0.0,0.0,0.0,0.0,0.0,0.0,0.0,0.0,0.0,0.0,0.0,0.0,0.0,0.0,0.0,0.0,0.0,0.0,0.0,0.0,0.0,0.0,0.0,0.0,0.0,0.0,0.0,0.0,0.0,0.0,0.0,0.0,0.0,0.0,0.0,0.0,0.0,0.0,0.0,0.0,0.0,0.0,0.0,0.0,0.0,0.0,0.0,0.0,0.0,0.0,0.0,0.0,0.0,0.0,0.0,0.0,0.0,4.3166,4.3589,4.3876,4.3876,4.4299,4.4587,4.4587,4.4587,4.4311,4.3654,0.0,0.0,0.0,0.0,0.0,0.0,0.0,0.0,0.0,0.0,0.0,0.0,0.0,0.0,0.0,0.0,0.0,0.0,0.0,0.0,0.0,0.0,0.0,0.0,0.0,0.0,0.0,0.0,0.0,0.0,0.0,0.0,0.0,0.0,0.0,0.0,0.0,0.0,0.0,0.0,0.0,0.0,0.0,0.0,0.0,0.0,0.0,0.0,0.0,0.0,0.0,0.0,0.0,0.0,0.0,0.0,0.0,0.0,0.0,0.0,0.0,0.0,0.0,0.0,0.0,0.0,0.0,0.0,0.0,0.0,0.0,0.0,0.0,0.0,0.0,0.0,0.0,0.0,0.0,0.0,0.0,0.0,0.0,0.0,0.0,0.0,0.0,0.0,0.0,0.0,0.0,0.0,0.0,0.0,0.0,0.0,0.0,0.0,0.0,0.0,0.0,0.0,4.4485,4.4587,4.4587,4.4587,4.4587,4.4587,4.4587,4.4587,4.4514,4.4367,0.0,0.0,0.0,0.0,0.0,0.0,0.0,0.0,0.0,0.0,0.0,0.0,0.0,0.0,0.0,0.0,0.0,0.0,0.0,0.0,0.0,0.0,0.0,0.0,0.0,0.0,0.0,0.0,0.0,0.0,0.0,0.0,0.0,0.0,0.0,0.0,0.0,0.0,0.0,0.0,0.0,0.0,0.0,0.0,0.0,0.0,0.0,0.0,0.0,0.0,0.0,0.0,0.0,0.0,0.0,0.0,0.0,0.0,0.0,0.0,3.8475,0.0,0.0,0.0,0.0,0.0,0.0,0.0,0.0,0.0,0.0,0.0,0.0,0.0,0.0,0.0,0.0,0.0,0.0,0.0,0.0,0.0,0.0,0.0,0.0,0.0,0.0,0.0,0.0,0.0,0.0,0.0,0.0,0.0,0.0,0.0,0.0,0.0,0.0,0.0,0.0,0.0,4.4553,4.4587,4.4587,4.4587,4.4587,4.4587,4.4587,4.4587,4.457,4.457,4.4384,0.0,0.0,0.0,0.0,0.0,0.0,0.0,0.0,0.0,0.0,0.0,0.0,0.0,0.0,0.0,0.0,0.0,0.0,0.0,0.0,0.0,0.0,0.0,0.0,0.0,0.0,0.0,0.0,0.0,0.0,0.0,0.0,0.0,0.0,0.0,0.0,0.0,0.0,0.0,0.0,0.0,0.0,0.0,0.0,0.0,0.0,0.0,0.0,0.0,0.0,0.0,0.0,0.0,0.0,0.0,0.0,0.0,0.0,0.0,0.0,3.9258,0.0,0.0,0.0,0.0,0.0,0.0,0.0,0.0,0.0,0.0,0.0,0.0,0.0,0.0,0.0,0.0,0.0,0.0,0.0,0.0,0.0,0.0,0.0,0.0,0.0,0.0,0.0,0.0,0.0,0.0,0.0,0.0,0.0,0.0,0.0,0.0,0.0,0.0,0.0,0.0,4.4587,4.4587,4.4587,4.4587,4.4587,4.4587,4.4587,4.4587,4.4587,4.4587,4.444,0.0,0.0,0.0,0.0,0.0,0.0,0.0,0.0,0.0,0.0,0.0,0.0,0.0,0.0,0.0,0.0,0.0,0.0,0.0,0.0,0.0,0.0,0.0,0.0,0.0,0.0,0.0,0.0,0.0,0.0,0.0,0.0,0.0,0.0,0.0,0.0,0.0,0.0,0.0,0.0,0.0,0.0,0.0,0.0,0.0,0.0,0.0,0.0,0.0,0.0,0.0,0.0,0.0,3.9817,4.0247,4.0866,4.0866,4.1458,4.2422,4.0836,4.0529,4.1136,4.0438,0.0,0.0,0.0,0.0,0.0,0.0,0.0,0.0,0.0,0.0,0.0,0.0,0.0,0.0,0.0,0.0,0.0,0.0,0.0,0.0,0.0,0.0,0.0,0.0,4.2692,4.2692,4.2692,0.0,0.0,0.0,0.0,0.0,0.0,0.0,0.0,0.0,0.0,0.0,4.4587,4.4587,4.4587,4.4587,4.4587,4.4587,4.4587,4.4587,4.4587,4.4587,4.444,4.4367,0.0,0.0,0.0,0.0,0.0,0.0,0.0,0.0,0.0,0.0,0.0,0.0,0.0,0.0,0.0,0.0,0.0,0.0,0.0,0.0,0.0,0.0,0.0,0.0,0.0,0.0,0.0,0.0,0.0,0.0,0.0,0.0,3.3288,3.3389,0.0,0.0,0.0,0.0,0.0,0.0,0.0,0.0,0.0,0.0,0.0,0.0,0.0,3.8703,3.9276,4.0357,4.0856,4.0873,4.1908,4.2459,4.2567,4.2567,4.3039,4.3837,4.3581,0.0,4.2037,4.1914,0.0,0.0,0.0,0.0,0.0,0.0,0.0,0.0,0.0,0.0,0.0,0.0,0.0,0.0,0.0,0.0,0.0,0.0,0.0,0.0,0.0,0.0,4.4282,4.4282,4.4282,4.4282,0.0,4.3741,4.3504,4.4282,4.4418,0.0,0.0,0.0,0.0,0.0,0.0,0.0,4.4587,4.4587,4.4587,4.4587,4.4587,4.4587,4.4587,4.4587,4.4587,4.4587,4.457,4.4497,4.431,4.4293,0.0,0.0,0.0,0.0,0.0,0.0,0.0,0.0,0.0,0.0,0.0,0.0,0.0,0.0,0.0,0.0,0.0,0.0,0.0,0.0,0.0,0.0,0.0,0.0,0.0,0.0,0.0,0.0,0.0,3.3812,3.4167,3.4607,3.4928,3.5301,0.0,0.0,0.0,0.0,0.0,0.0,0.0,0.0,0.0,3.9591,3.9608,4.0144,4.13,4.2322,4.2796,4.2814,4.3782,4.424,4.424,4.424,4.444,4.4765,4.4765,4.4447,4.3926,4.368,4.3517,4.3399,0.0,0.0,0.0,0.0,4.3533,4.3633,4.4308,4.4178,4.3768,4.4182,0.0,0.0,0.0,0.0,0.0,0.0,0.0,0.0,0.0,0.0,4.4587,4.4587,4.4587,4.4587,4.4587,4.4316,4.4181,0.0,4.4587,4.4587,4.4587,0.0,0.0,0.0,0.0,4.4587,4.4587,4.4587,4.4587,4.4587,4.4587,4.4587,4.4587,4.4587,4.4587,4.4587,4.4587,4.457,4.444,4.4367,4.4253,0.0,0.0,0.0,0.0,0.0,0.0,0.0,0.0,0.0,0.0,0.0,0.0,0.0,0.0,0.0,0.0,0.0,0.0,0.0,0.0,0.0,0.0,0.0,0.0,0.0,0.0,0.0,0.0,3.4945,3.5284,3.5842,3.6079,3.6434,0.0,0.0,0.0,0.0,0.0,0.0,3.8176,3.8814,3.9728,4.0963,4.111,4.192,4.3498,4.4095,4.4403,4.4403,4.5001,4.5291,4.5291,4.5291,4.5417,4.5617,4.5617,4.5725,4.5848,4.5108,4.4825,4.4874,4.4483,4.4424,4.4489,4.4647,4.4693,4.4781,4.5457,4.5321,4.4968,4.5525,4.5284,4.4759,4.4626,0.0,0.0,0.0,0.0,4.4587,4.4587,4.4587,4.4587,4.4587,4.4587,4.4587,4.4587,4.4587,4.4587,0.0,4.4587,4.4587,4.4587,0.0,0.0,0.0,0.0,4.4587,4.4587,4.4587,4.4587,4.4587,4.4587,4.4587,4.4587,4.4587,4.4587,4.4587,4.4587,4.4587,4.4587,4.444,4.4293,4.4253,0.0,0.0,0.0,0.0,0.0,0.0,0.0,0.0,0.0,0.0,0.0,0.0,0.0,0.0,0.0,0.0,0.0,0.0,0.0,0.0,0.0,0.0,0.0,0.0,0.0,0.0,0.0,0.0,0.0,3.6721,3.7347,0.0,0.0,0.0,0.0,3.7905,3.8597,3.8986,3.8937,4.0035,4.1261,4.2562,4.2995,4.387,4.5182,4.5218,4.5236,4.5236,4.5273,4.5291,4.5291,4.5291,4.5725,4.645,4.645,4.6884,4.7464,4.5884,4.5402,4.5659,4.5615,4.5787,4.6042,4.6536,4.6738,4.6847,4.7378,4.7204,4.6763,4.6799,4.6098,4.5161,4.472,4.4587,0.0,0.0,4.4587,4.4587,4.4587,4.4587,4.4587,4.4587,4.4587,4.4587,4.4587,4.4587,4.4587,0.0,4.4587,4.4587,4.4587,0.0,4.4587,4.4587,4.4587,4.4587,4.4587,4.4587,4.4587,4.4587,4.4587,4.4587,4.4587,4.4587,4.4587,4.4587,4.4587,4.4587,4.4587,4.444,4.4253,4.4097,4.3998,0.0,0.0,0.0,0.0,0.0,0.0,0.0,0.0,0.0,0.0,0.0,0.0,0.0,0.0,0.0,0.0,0.0,0.0,0.0,0.0,0.0,0.0,0.0,0.0,0.0,0.0,0.0,0.0,3.7499,3.7736,0.0,3.8565,3.8616,3.8802,3.9276,4.03,4.0709,4.0409,4.1902,4.2929,4.3395,4.3926,4.4516,4.5291,4.5816,4.6069,4.6087,4.6613,4.6848,4.6848,4.6848,4.7011,4.7283,4.7283,4.7446,4.7663,4.7083,4.691,4.6993,4.6993,4.7068,4.7151,4.7345,4.7407,4.745,4.7615,4.7021,4.6096,4.5758,4.5694,4.5716,4.5232,4.5035,4.4998,4.4665,4.4587,4.4587,4.4587,4.4587,4.4587,4.4587,4.4587,4.4587,4.4587,4.4587,4.4587,4.4587,4.4587,4.4587,4.4587,4.4587,4.4587,4.4587,4.4587,4.4587,4.4587,4.4587,4.4587,4.4587,4.4587,4.4587,4.4587,4.4587,4.4587,4.4587,4.4587,4.472,4.5035,4.4964,4.491,4.4763,4.4708,4.439,0.0,0.0,0.0,0.0,0.0,0.0,0.0,0.0,0.0,0.0,0.0,0.0,0.0,0.0,0.0,0.0,0.0,0.0,0.0,0.0,0.0,0.0,0.0,0.0,0.0,0.0,3.8278,3.8278,3.8481,3.892,3.9665,3.9732,4.0037,4.0781,4.1596,4.1971,4.1852,4.3079,4.4032,4.4481,4.4963,4.551,4.6106,4.6649,4.6902,4.692,4.7464,4.7717,4.7717,4.7717,4.7717,4.7717,4.7717,4.7717,4.7717,4.7717,4.7717,4.7717,4.7717,4.7717,4.7681,4.7409,4.7482,4.7717,4.7717,4.7108,4.6275,4.5722,4.5822,4.6049,4.5648,4.5459,4.525,4.5142,4.4961,4.492,4.5192,4.5111,4.501,4.5263,4.5331,4.5331,4.5331,4.5331,4.5331,4.5331,4.4925,4.4587,4.4587,4.479,4.4959,4.4885,4.5162,4.5314,4.5257,4.5314,4.5331,4.5331,4.5331,4.5331,4.5331,4.5331,4.5331,4.5331,4.5331,4.5467,4.5788,4.5716,4.5606,4.5512,4.5128,4.4682,4.4097,0.0,0.0,0.0,0.0,0.0,0.0,0.0,0.0,0.0,0.0,0.0,0.0,0.0,0.0,0.0,0.0,0.0,0.0,0.0,0.0,0.0,0.0,0.0,3.8041,3.8565,3.9039,3.9056,3.9681,4.0409,4.117,4.1238,4.1542,4.2289,4.2356,4.2567,4.3095,4.3633,4.4452,4.5793,4.6296,4.692,4.7699,4.7717,4.7717,4.7717,4.7717,4.7717,4.7717,4.7717,4.7717,4.7717,4.7717,4.7717,4.7753,4.7753,4.7753,4.7772,4.7753,4.7753,4.7663,4.6902,4.712,4.7772,4.7753,4.7753,4.7687,4.716,4.6619,4.6217,4.6217,4.5819,4.5529,4.602,4.5786,4.5561,4.6355,4.6212,4.5964,4.6675,4.6844,4.6844,4.6786,4.6786,4.6786,4.6786,4.5635,4.4654,4.4654,4.5263,4.5679,4.5471,4.6212,0.0,4.6498,4.665,4.6786,4.6786,4.6786,4.6786,4.6786,4.6786,4.6786,4.6786,4.6844,4.6844,4.6844,4.6531,4.6351,4.6351,4.533,4.4716,4.4626,0.0,0.0,0.0,0.0,0.0,0.0,0.0,0.0,0.0,0.0,0.0,0.0,0.0,0.0,0.0,0.0,0.0,0.0,0.0,0.0,0.0,0.0,3.9529,3.8802,3.9326,3.9986,4.0527,4.0764,4.1187,4.1914,4.1999,4.2207,4.2859,4.3374,4.3735,4.3889,4.5264,4.6017,4.6023,4.6891,4.7482,4.7717,4.7717,4.7717,4.7717,4.7717,4.7717,4.7717,4.7717,4.7717,4.7717,4.7717,4.8043,4.8586,4.8586,4.8912,4.9365,4.8804,4.8586,4.8623,4.8985,4.9238,4.9347,4.8786,4.8949,4.9329,4.8576,4.8668,4.8918,4.8556,4.8347,4.8134,4.7902,4.775,4.7682,4.7875,4.7823,4.7663,4.7434,4.7374,4.7261,4.6886,4.6786,4.6786,4.6786,4.6464,4.6194,4.6194,4.6346,4.6498,4.6422,4.665,0.0,4.671,4.6786,4.6786,4.6786,4.6786,4.6786,4.6786,4.6786,4.6786,4.6786,4.7182,4.7391,4.7369,4.7689,4.7726,4.7541,4.6639,4.6394,0.0,0.0,0.0,0.0,0.0,0.0,0.0,0.0,0.0,0.0,0.0,0.0,0.0,0.0,0.0,0.0,0.0,0.0,0.0,0.0,0.0,0.0,4.0273,4.051,4.0392,4.0476,4.0832,4.1576,4.166,4.1948,4.2692,4.2957,4.3374,4.3975,4.461,4.5105,4.5303,4.6318,4.6863,4.6753,4.7363,4.7717,4.7717,4.7717,4.7717,4.7717,4.7717,4.7717,4.7717,4.8061,4.8206,4.8224,4.8568,4.8967,4.9401,4.9401,4.9673,0.0,0.0,0.0,0.0,0.0,4.9872,4.9582,4.9456,4.9709,4.9999,4.9546,4.9559,4.9766,4.9657,4.95,4.9293,4.9198,4.9004,4.8926,4.9195,4.9113,4.889,4.8626,4.8584,4.8488,4.8138,4.8097,4.8097,4.8097,4.8097,0.0,4.7776,4.7462,4.7259,4.7123,4.7453,4.7716,4.7673,4.7656,4.7716,4.7716,4.7716,4.7819,4.8097,4.8097,0.0,0.0,0.0,4.8545,4.8432,4.8953,0.0,0.0,0.0,4.7761,4.8031,0.0,0.0,0.0,4.5109,4.5126,0.0,0.0,0.0,0.0,0.0,0.0,0.0,0.0,0.0,0.0,0.0,0.0,0.0,0.0,0.0,0.0,4.1322,4.1576,4.232,4.1863,4.1694,4.2337,4.2422,4.2726,4.347,4.4042,4.4596,4.5356,4.5918,4.6406,4.6863,0.0,0.0,0.0,0.0,4.7717,4.7717,4.7808,4.7844,4.7844,4.7935,4.7971,4.7989,4.8713,4.9057,4.9094,4.9782,5.0144,5.0234,5.0234,5.0271,5.0343,5.0253,5.0271,5.0361,5.0361,4.9908,4.942,5.0108,0.0,0.0,5.0361,5.0036,4.9769,5.0254,5.0036,4.9769,5.0254,5.0036,4.9818,5.0485,5.0282,4.9925,5.0042,5.0102,5.0045,4.9988,4.9988,4.9988,4.9988,4.993,4.9774,4.9273,4.8504,4.7977,4.776,4.8456,4.8956,4.8832,4.8956,4.9001,4.9001,0.0,0.0,4.9832,4.989,4.9948,4.9988,4.9988,4.9913,4.9821,5.0276,5.0309,4.9959,4.943,4.9044,4.8749,4.767,4.7097,4.7022,4.6752,4.6625,0.0,0.0,0.0,0.0,0.0,0.0,0.0,0.0,0.0,0.0,0.0,0.0,0.0,0.0,0.0,4.1965,4.2083,4.2337,4.3098,4.3081,4.3047,4.3183,4.32,4.3504,4.4282,4.4812,4.5355,4.59,4.6454,4.6799,4.6908,4.7302,4.7407,4.7062,4.745,4.7717,4.7717,4.8351,4.8677,4.8695,0.0,0.0,4.9637,4.9782,4.9854,4.9872,5.0017,5.0452,5.1049,5.1049,5.1448,5.1973,5.1303,5.1448,5.2027,5.2027,5.1937,5.1828,5.1973,5.2027,5.2027,5.2027,5.1981,5.1917,5.2027,5.1963,0.0,5.2027,5.1963,5.1907,5.2051,5.204,5.1802,5.1363,5.1278,5.1122,5.0661,5.0552,5.0552,5.0552,5.0198,4.9988,5.0331,4.946,4.8781,4.872,4.89,4.9001,4.894,4.9001,4.9001,4.9001,4.9001,4.9212,4.9832,4.989,5.0085,5.0552,5.0552,5.0769,5.1209,5.0733,5.0626,5.0928,5.07,5.0523,5.0346,5.013,4.9764,4.9165,4.7002,4.5951,0.0,0.0,0.0,0.0,0.0,0.0,0.0,0.0,0.0,0.0,0.0,4.0436,0.0,0.0,4.1893,4.2743,4.2861,4.3115,4.3893,4.3995,4.3995,4.3995,4.3995,4.4241,4.491,4.5425,4.59,4.6454,4.7017,4.7302,4.7302,4.7554,4.7753,4.7895,4.8168,4.8496,4.8894,4.9293,4.9492,4.951,4.9908,5.009,5.009,5.0506,5.0687,5.0705,5.1122,5.152,5.19,5.19,5.2136,5.2462,5.2063,5.2136,5.2498,5.2498,5.2498,5.2498,5.2498,5.2498,5.2498,5.2498,5.2498,5.2498,5.2498,5.2498,5.2498,5.2498,5.2498,5.2498,5.2498,5.2498,5.234,5.1719,5.1601,5.15,5.1209,5.1157,5.1263,5.1652,5.1528,5.1452,5.1858,5.1424,5.0914,5.0535,5.0794,5.1053,5.1053,5.0789,5.0625,5.0625,5.0272,5.0334,5.0952,5.1286,5.1724,5.2307,5.236,5.2484,5.2779,5.2658,5.2641,5.285,5.2337,5.1986,5.1847,5.1158,5.0439,4.9729,4.8139,4.7328,0.0,0.0,0.0,0.0,0.0,0.0,0.0,0.0,3.9807,3.9754,4.0391,4.098,4.1238,4.1866,4.2614,4.3466,4.3639,4.3859,4.4485,4.4587,4.4587,4.4587,4.4665,4.4906,4.525,4.585,4.6454,4.6863,4.7551,4.7935,4.7935,4.8079,4.846,4.9112,4.9148,4.9438,5.0071,5.0253,5.0325,5.0325,5.047,5.056,5.0578,5.123,5.152,5.1556,5.2208,5.2498,5.2498,5.2498,5.2498,5.2498,5.2498,5.2498,5.2498,5.2498,5.2498,5.2498,5.2498,5.2498,5.2498,5.2498,5.2498,5.2498,5.2498,5.2498,5.2498,5.2498,5.2498,5.2498,5.2498,5.2498,5.2423,5.2082,5.2019,5.2054,5.2215,5.2233,5.243,5.3074,5.3131,5.3103,5.3387,5.349,5.3221,5.2245,5.2667,5.3071,5.3071,5.2707,5.2354,5.2354,5.1905,5.1843,5.2414,5.3032,5.3602,5.413,5.4182,5.4182,5.4182,5.4471,5.4607,5.4543,5.3746,5.3253,5.2978,5.1829,5.0931,5.0252,4.9795,4.9232,3.9766,3.9783,0.0,4.002,4.0087,4.0037,0.0,0.0,4.0929,4.0718,4.1449,4.2264,4.2812,4.3124,4.35,4.4316,4.4451,4.4485,4.457,4.4587,4.4587,4.4587,4.4998,4.5267,4.5303,4.6213,4.6863,4.6908,4.8073,4.8786,4.8786,4.9438,4.9854,4.9945,4.9963,4.9999,5.009,5.0796,5.1158,5.1158,5.1882,5.2226,5.2226,5.2317,5.2371,5.2371,5.2462,5.2498,5.2498,5.2498,5.2498,5.2498,5.2498,5.2498,5.2498,5.2498,5.2498,5.2498,5.2498,5.2498,5.2498,5.2498,5.2498,5.2498,5.2498,5.2498,5.2498,5.2498,5.2498,5.2498,5.2498,5.2498,5.2679,5.3338,5.3453,5.3652,5.4375,5.452,5.4556,5.4647,5.4227,5.4023,5.4589,5.4842,5.4491,5.3183,5.3018,5.3071,5.3071,5.3015,5.3032,5.3032,5.2901,5.3145,5.3727,5.432,5.4724,5.4791,5.4791,5.4791,5.4791,5.484,5.4791,5.4675,5.4399,5.3935,5.3243,5.2951,5.2502,5.1958,5.1839,5.0464,4.0086,0.0,0.0,0.0,4.0679,4.0728,4.1167,4.1452,4.158,4.158,4.2206,4.2922,4.317,4.3664,4.4198,0.0,4.4587,4.4587,4.4587,4.4587,4.4587,4.4587,4.5284,4.5648,4.5303,4.642,4.724,4.7586,4.883,4.9601,4.9601,4.9908,5.0289,5.076,5.0796,5.1013,5.1484,5.1828,5.1991,5.1991,5.2335,5.2498,5.2498,5.2498,5.2498,5.2498,5.2498,5.2498,5.2498,5.2498,5.2498,5.2498,5.2498,5.2498,5.2498,5.2498,5.2498,5.2498,5.2498,5.2498,5.2498,5.2498,5.2498,5.2589,5.3059,5.3204,5.3295,5.3766,5.3892,5.3892,5.3892,5.3892,5.3983,5.4327,5.4399,5.449,5.4834,5.4907,5.5033,5.545,5.5356,5.5382,5.6088,5.6331,5.6129,5.5561,5.5507,5.5507,5.5507,5.5186,5.4856,5.4459,5.4459,5.4688,5.5258,5.5561,5.5857,5.6247,5.6247,5.6247,5.6247,5.6129,5.6097,5.6028,5.5389,5.4932,5.4528,5.4065,5.3437,5.2689,5.2689,5.1872,4.0171,0.0,0.0,4.1068,4.1304,4.1521,4.2115,4.2294,4.2337,4.2391,4.3036,4.3613,4.3613,4.4142,4.4587,4.4587,4.4587,4.4626,4.4759,4.4814,4.4869,4.5015,4.5874,4.6283,4.5875,4.6991,4.7968,4.8611,4.9767,5.0416,5.0416,5.0633,5.1013,5.1611,5.1629,5.19,5.248,5.2498,5.2498,5.2498,5.2498,5.2498,5.2498,5.2498,5.2498,5.2498,5.2498,5.2498,5.2498,5.2498,5.2498,5.2516,5.2733,5.2824,5.286,5.3078,5.2878,5.2516,5.2752,5.2824,5.286,5.3096,5.3168,5.3277,5.3856,5.4037,5.4146,5.4744,5.4907,5.4907,5.4907,5.4907,5.4961,5.516,5.5196,5.5269,5.5486,5.554,5.5685,5.6228,5.6319,5.6518,5.7098,5.7188,5.7188,5.7188,5.7188,5.7188,5.7188,5.6811,5.6366,5.5961,5.5904,5.6073,5.6528,5.6528,5.674,5.7188,5.7188,5.7188,5.7188,5.7105,5.7054,5.7054,5.6374,5.5931,5.5827,5.5237,5.4617,5.4055,5.3999,5.3774,0.0,0.0,4.117,4.1204,4.1728,4.2216,4.2142,4.2753,4.3331,4.3204,4.3883,4.4536,4.4536,4.457,4.4587,4.4587,4.4587,4.4759,4.5214,4.525,4.5459,4.6,4.6783,4.7239,0.0,4.8225,4.9177,4.9981,5.0796,5.1249,5.1249,5.1991,5.2426,5.2462,5.2462,5.248,5.2498,5.2498,5.2498,5.2498,5.2498,5.2498,5.2498,5.2498,5.2498,5.2498,5.2498,5.2498,5.2498,5.2498,5.2498,5.257,5.3367,5.3657,5.3766,5.4544,5.3838,5.2607,5.3385,5.3657,5.3784,5.4581,5.4834,5.4834,5.487,5.487,5.487,5.4907,5.4907,5.4907,5.4907,5.4907,5.5088,5.5794,5.5957,5.6174,5.6953,5.7134,5.7134,5.7152,5.7152,5.717,5.7188,5.7188,5.7188,5.7188,5.7188,5.7188,5.7188,5.7188,5.7156,5.7138,5.7138,5.7138,5.7188,5.7188,5.7188,5.7188,5.7188,5.7188,5.7188,5.7206,5.7188,5.7188,5.7018,5.6966,5.6966,5.6688,5.6528,5.6456,5.6366,5.6257,4.1235,0.0,4.2138,4.298,4.3095,4.3257,4.4038,4.4235,4.4275,4.4534,4.4627,4.4587,4.4587,4.4587,4.4587,4.4587,4.4852,4.5125,4.525,4.5614,4.611,4.6818,4.7462,0.0,0.0,0.0,0.0,5.0336,5.1455,5.21,5.21,5.2353,5.2498,5.2498,5.2498,5.2498,5.2498,5.2498,5.2498,5.2498,5.2498,5.2498,5.2498,5.2498,5.2498,5.2498,5.2498,5.2498,5.2534,5.3078,5.3295,5.3385,5.4182,5.4508,5.4544,5.4798,5.4562,5.4128,5.4399,5.4508,5.4544,5.4816,5.4907,5.4997,5.5486,5.5631,5.574,5.6283,5.6428,5.6428,5.6428,5.6428,5.6482,5.6736,5.679,5.6862,5.7134,5.7188,5.7188,5.7188,5.7188,5.7188,5.7188,5.7188,5.7188,5.7188,5.7188,5.7188,5.7188,5.7188,5.7188,5.7188,5.7188,5.7188,5.7188,5.7188,5.7188,5.7188,5.7188,5.7188,5.7188,5.7188,5.7188,5.7188,5.7156,5.7105,5.7003,5.6899,5.6794,5.6742,5.66,5.6546,4.2462,4.2987,4.3477,4.4264,4.444,4.4577,4.539,4.5178,4.4944,4.5267,4.4944,4.4587,4.4587,4.4587,4.4665,4.4797,4.5125,4.5459,4.58,4.6165,4.6754,4.7743,4.8429,4.9313,0.0,0.0,0.0,5.1227,5.2033,5.2498,5.2498,5.2498,5.2498,5.2498,5.2498,5.2498,5.2498,5.2498,5.2498,5.2498,5.2498,5.2498,5.2498,5.2498,5.2498,5.2516,5.2806,5.2933,5.2987,5.3802,5.4128,5.4218,5.4997,5.5287,5.5323,5.5631,5.5721,5.5685,5.5395,5.5287,5.5341,5.5631,5.5721,5.5812,5.6283,5.6428,5.6536,5.7043,5.7188,5.7188,5.7188,5.7188,5.7188,5.7188,5.7188,5.7188,5.7188,5.7188,5.7188,5.7188,5.7188,5.7188,5.7188,5.7188,5.7188,5.7188,5.7188,5.7188,5.7188,5.7188,5.7188,5.7188,5.7188,5.7188,5.7188,5.7188,5.7188,5.7188,5.7188,5.7188,5.7188,5.7188,5.7188,5.7188,5.7188,5.7156,5.7087,5.7036,5.6951,5.6847,5.6742,5.6689,4.3658,4.4542,4.5045,4.5093,4.5572,4.6116,4.6147,4.5716,4.5355,4.5355,4.4998,4.4626,0.0,0.0,4.4759,4.5214,4.5355,4.5767,4.6753,4.6908,4.7411,0.0,0.0,0.0,0.0,0.0,0.0,5.2498,0.0,5.2498,5.2498,5.2498,5.2498,5.2498,5.2498,5.2498,5.2498,5.2498,5.2498,5.2498,5.2498,5.2516,5.2552,5.2552,5.257,5.2661,5.344,5.3766,5.382,5.4635,5.4961,5.5033,5.5758,5.6047,5.6138,5.6917,5.7188,5.708,5.6319,5.6047,5.6174,5.6953,5.7188,5.7188,5.7188,5.7188,5.7188,5.7188,5.7188,5.7188,5.7188,5.7188,5.7188,5.7188,5.7188,5.7188,5.7188,5.7188,5.7188,5.7188,5.7188,5.7188,5.7188,5.7188,5.7188,5.7188,5.7188,5.7188,5.7188,5.7188,5.7188,5.7188,5.7188,5.7188,5.7188,5.7188,5.7188,5.7188,5.7188,5.7188,5.7188,5.7188,5.7188,5.7188,5.7188,5.7188,5.7188,5.7087,5.7003,5.7003,5.6899,5.6794,4.4973,4.557,4.5932,4.6312,4.6265,4.6196,4.6595,4.6262,4.6,4.6406,4.5767,4.5125,0.0,0.0,0.0,4.525,4.595,0.0,4.6863,4.7258,0.0,4.9619,0.0,5.0633,5.2063,5.2371,0.0,0.0,5.2498,5.2498,5.2498,5.2498,5.2498,5.2498,5.2498,5.2498,5.2498,5.2498,5.2498,5.2498,5.2498,5.2806,5.3385,5.3385,5.3729,5.4309,5.4508,5.4599,5.4653,5.5414,5.5721,5.5794,5.6591,5.688,5.6917,5.7116,5.7188,5.717,5.6971,5.688,5.6935,5.7134,5.7188,5.7188,5.7188,5.7188,5.7188,5.7188,5.7188,5.7188,5.7188,5.7188,5.7188,5.7188,5.7188,5.7188,5.7188,5.7188,5.7188,5.7188,5.7188,5.7188,5.7188,5.7188,5.7188,5.7188,5.7188,5.7188,5.7188,5.7188,5.7188,5.7188,5.7188,5.7188,5.7188,5.7188,5.7188,5.7188,5.7188,5.7188,5.7188,5.7188,5.7188,5.7188,5.7188,5.7188,5.7188,5.7156,5.7156,5.7156,5.7003,5.6951,4.6273,4.6722,4.6863,4.7169,4.6999,4.6863,4.7169,4.6863,4.6454,4.6566,4.59,0.0,0.0,0.0,0.0,0.0,0.0,0.0,4.7214,4.7511,4.8297,0.0,5.009,0.0,5.2335,5.2498,5.2498,0.0,5.2498,5.2498,5.2498,5.2498,5.2498,5.2498,5.2498,5.2498,5.2498,5.2498,5.2679,5.3023,5.3023,5.3458,5.4237,5.4237,5.4472,5.4925,0.0,5.5377,5.5432,5.621,5.6518,5.6573,5.7025,5.7188,5.7188,5.7188,5.7188,5.7188,5.7188,5.7188,5.7188,5.7188,5.7188,5.7188,5.7188,5.7188,5.7188,5.7188,5.7188,5.7188,5.7188,5.7188,5.7188,5.7188,5.7188,5.7188,5.7188,5.7188,5.7188,5.7188,5.7188,5.7188,5.7188,5.7188,5.7188,5.7188,5.7188,5.7188,5.7188,5.7188,5.7188,5.7188,5.7188,5.7188,5.7188,5.7188,5.7188,5.7188,5.7188,5.7188,5.7188,5.7188,5.7188,5.7188,5.7188,5.7188,5.7188,5.7188,5.7188,5.7188,5.7138,5.7105,4.738,4.7717,4.7717,4.7717,4.7717,4.7717,4.7717,4.7363,4.6845,4.631,0.0,4.5407,4.5407,4.5407,4.5749,4.6753,0.0,4.7151,4.7615,4.7717,4.8297,4.989,5.009,5.0723,5.2335,5.2498,5.2498,5.2498,5.2498,5.2498,5.2498,5.2498,5.2498,5.2498,5.2498,5.2498,5.2498,5.2607,5.3005,5.3693,5.382,5.4291,5.5051,5.5051,5.5106,5.5251,5.5884,5.6156,5.621,5.6899,5.7188,5.7188,5.7188,5.7188,5.7188,5.7188,5.7188,5.7188,5.7188,5.7188,5.7188,5.7188,5.7188,5.7188,5.7188,5.7188,5.7188,5.7188,5.7188,5.7188,5.7188,5.7188,5.7188,5.7188,5.7188,5.7188,5.7188,5.7188,5.7188,5.7188,5.7188,5.7188,5.7188,5.7188,5.7188,5.7188,5.7188,5.7188,5.7188,5.7188,5.7188,5.7188,5.7188,5.7188,5.7188,5.7188,5.7243,5.7351,5.7351,5.7406,5.7514,5.7514,5.7514,5.7514,5.7514,5.7514,5.7514,5.7514,5.7514,5.7514,5.7514,5.7514,4.744,4.7717,4.7717,4.7717,4.7717,4.7717,4.7717,4.7615,0.0,0.0,0.0,4.595,4.595,4.595,0.0,4.6799,0.0,0.0,0.0,0.0,4.8297,0.0,0.0,0.0,0.0,0.0,0.0,0.0,0.0,5.2498,5.2498,5.2498,5.2498,5.2498,5.2498,5.2498,5.2498,5.315,5.3566,5.3711,5.4381,5.5088,5.5812,5.5812,5.6156,5.6808,5.6935,0.0,5.6989,5.7134,5.7188,5.7188,5.7188,5.7188,5.7188,5.7188,5.7188,5.7188,5.7188,5.7188,5.7188,5.7188,5.7188,5.7188,5.7188,5.7188,5.7188,5.7188,5.7188,5.7188,5.7188,5.7188,5.7188,5.7188,5.7188,5.7188,5.7188,5.7188,5.7188,5.7188,5.7188,5.7188,5.7188,5.7188,5.7188,5.7188,5.7188,5.7188,5.7188,5.7188,5.7188,5.7188,5.7188,5.7188,5.7188,5.7188,5.7478,5.8148,5.8184,5.8492,5.9162,5.918,5.918,5.918,5.918,5.918,5.918,5.918,5.918,5.918,5.918,5.918,4.7609,4.7717,4.7717,4.7717,4.7717,4.7717,4.7717,0.0,0.0,0.0,0.0,4.6406,4.6165,0.0,0.0,0.0,0.0,0.0,0.0,0.0,0.0,0.0,0.0,0.0,0.0,0.0,0.0,0.0,0.0,5.2498,5.2498,5.2498,5.2498,5.2498,5.2915,5.3114,5.3114,5.3929,5.4526,5.4888,5.5287,5.5884,5.6609,5.6609,5.6826,5.7188,5.7188,5.7188,5.7188,5.7188,5.7188,5.7188,5.7188,5.7188,5.7188,5.7188,5.7188,5.7188,5.7188,5.7188,5.7188,5.7188,5.7188,5.7188,5.7188,5.7188,5.7188,5.7188,5.7188,5.7188,5.7188,5.7188,5.7188,5.7188,5.7188,5.7188,5.7188,5.7188,5.7188,5.7188,5.7188,5.7188,5.7188,5.7188,5.7188,5.7188,5.7188,5.7188,5.7188,5.7188,5.7188,5.7188,5.7188,5.7369,5.7786,5.7822,5.8166,5.8981,5.9017,5.9198,5.9579,5.9615,5.9615,5.9615,5.9615,5.9615,5.9615,5.9615,5.9615,5.9615,5.9615,5.9615,4.7663,4.7717,4.7717,4.7717,4.7717,4.7717,4.7717,4.7717,0.0,0.0,0.0,4.6753,4.6358,0.0,0.0,0.0,0.0,0.0,0.0,0.0,0.0,0.0,0.0,0.0,0.0,0.0,0.0,0.0,0.0,5.2498,5.2498,5.2498,5.257,5.2752,5.3367,5.3784,5.3965,5.4744,5.5432,5.5993,5.6156,5.6591,5.7188,5.7188,5.7188,5.7188,5.7188,5.7188,5.7188,5.7188,5.7188,5.7188,5.7188,5.7188,5.7188,5.7188,5.7188,5.7188,5.7188,5.7188,5.7188,5.7188,5.7188,5.7188,5.7188,5.7188,5.7188,5.7188,5.7188,5.7188,5.7188,5.7188,5.7188,5.7188,5.7188,5.7188,5.7188,5.7188,5.7188,5.7188,5.7188,5.7188,5.7188,5.7188,5.7188,5.7188,5.7188,5.7188,5.7188,5.7351,5.746,5.746,5.746,5.7786,5.8601,5.8655,5.8999,5.9814,5.9868,5.9941,6.0122,6.0122,6.0122,6.0122,6.0122,6.0122,6.0122,6.0122,6.0122,6.0122,6.0122,6.0122,4.7518,4.7717,4.7717,4.7717,4.7717,4.7717,4.7717,0.0,0.0,0.0,4.6863,4.6908,4.6863,0.0,0.0,0.0,0.0,4.7717,0.0,0.0,0.0,0.0,0.0,0.0,0.0,0.0,0.0,0.0,0.0,5.2498,5.2498,5.2498,5.2824,5.3566,5.3657,5.4055,5.478,5.5522,5.5921,5.5993,5.6736,5.7134,5.7188,5.7188,5.7188,5.7188,5.7188,5.7188,0.0,5.7188,5.7188,5.7188,5.7188,5.7188,5.7188,5.7188,5.7188,5.7188,5.7188,5.7188,5.7188,5.7188,5.7188,5.7188,5.7188,5.7188,5.7188,5.7188,5.7188,5.7188,5.7188,5.7188,5.7188,5.7188,5.7188,5.7188,5.7188,5.7188,5.7188,5.7188,5.7188,5.7188,5.7188,5.7188,5.7188,5.7188,5.7188,5.7188,5.7188,5.784,5.8293,5.8293,5.8293,5.8619,5.9434,5.9488,5.9832,6.0647,6.0701,6.1027,6.177,6.1788,6.1788,6.1788,6.1788,6.1788,6.1788,6.1788,6.1788,6.1788,6.1788,6.1788,4.7627,4.7717,4.7717,4.7717,4.7717,4.7717,4.7717,0.0,0.0,4.7017,4.7169,4.7302,4.6954,4.7151,0.0,0.0,0.0,0.0,0.0,0.0,0.0,0.0,0.0,0.0,0.0,0.0,0.0,0.0,0.0,5.2498,5.2498,5.2498,5.286,5.3675,5.4182,5.4798,5.554,5.6319,5.6717,5.6717,5.7043,5.7188,5.7188,5.7188,5.7188,5.7188,5.7188,5.7188,0.0,5.7188,5.7188,5.7188,5.7188,5.7188,5.7188,5.7188,5.7188,5.7188,5.7188,5.7188,5.7188,5.7188,5.7188,5.7188,5.7188,5.7188,5.7188,5.7188,5.7188,5.7188,5.7188,5.7188,5.7188,5.7188,5.7188,5.7188,5.7188,5.7188,5.7188,5.7188,5.7188,5.7188,5.7188,5.7188,5.7188,5.7188,5.7188,5.7369,5.7858,5.8202,5.8764,5.9742,5.9416,5.9452,6.0267,6.0321,6.0683,6.148,6.1534,6.1679,6.2005,6.2023,6.2023,6.2023,6.2023,6.2023,6.2023,6.2023,6.2023,6.2023,6.2023,6.2023,4.7603,4.7717,4.7717,4.7717,4.7717,4.7717,0.0,0.0,4.7597,4.7214,4.7468,4.7554,4.7214,4.7468,4.7717,4.7717,4.7717,4.7717,4.7717,0.0,0.0,0.0,0.0,0.0,0.0,0.0,0.0,0.0,0.0,5.2498,5.2498,5.2733,5.3222,5.4037,5.4816,5.5595,5.6337,5.6917,5.7188,5.7188,5.7188,5.7188,5.7188,5.7188,5.7188,5.7188,5.7188,5.7188,0.0,5.7188,5.7188,5.7188,5.7188,5.7188,5.7188,5.7188,5.7188,5.7188,5.7188,5.7188,5.7188,5.7188,5.7188,5.7188,5.7188,5.7188,5.7188,5.7188,5.7188,5.7188,5.7188,5.7188,5.7188,5.7188,5.7188,5.7188,5.7188,5.7188,5.7188,5.7188,5.7188,5.7188,5.7188,5.7188,5.7188,5.7188,5.7188,5.7496,5.8293,5.8619,5.9289,6.0665,6.052,6.0557,6.1118,6.1172,6.1408,6.1987,6.2023,6.2023,6.2023,6.2023,6.2023,6.2023,6.2023,6.2023,6.2023,6.2023,6.2023,6.2023,6.2023,6.2023,4.7337,4.7717,4.7717,4.7717,4.7717,4.7717,0.0,0.0,4.7717,4.7699,4.7717,4.7717,4.7699,4.7717,4.7717,4.7717,4.7717,4.7717,4.7717,0.0,0.0,0.0,0.0,0.0,0.0,0.0,0.0,0.0,0.0,0.0,5.2498,5.3241,5.4055,5.487,5.5595,5.6373,5.717,5.7188,5.7188,5.7188,5.7188,5.7188,5.7188,5.7188,5.7188,5.7188,5.7188,5.7188,0.0,5.7188,5.7188,5.7188,5.7188,5.7188,5.7188,5.7188,5.7188,5.7188,5.7188,5.7188,5.7188,5.7188,5.7188,5.7188,5.7188,5.7188,5.7188,5.7188,5.7188,5.7188,5.7188,5.7188,5.7188,5.7188,5.7188,5.7188,5.7188,5.7188,5.7188,5.7188,5.7188,5.7188,5.7188,5.7188,5.7188,5.7188,5.7188,5.7496,5.8293,5.9108,5.9905,6.072,6.1516,6.2005,6.2005,6.2005,6.2005,6.2023,6.2023,6.2023,6.2023,6.2023,6.2023,6.2023,6.2023,6.2023,6.2023,6.2023,6.2023,6.2023,6.2023,6.2023,4.7585,4.7717,4.7717,4.7717,4.7717,4.7717,4.7717,0.0,4.7717,4.7717,4.7717,4.7717,4.7717,4.7717,4.7717,4.7717,4.7717,4.7717,4.7717,0.0,0.0,0.0,0.0,0.0,0.0,0.0,0.0,0.0,5.2498,5.2498,5.2498,5.3784,5.4653,5.4907,5.5613,5.6373,5.7188,5.7188,5.7188,5.7188,5.7188,5.7188,5.7188,5.7188,5.7188,5.7188,5.7188,5.7188,5.7188,5.7188,5.7188,5.7188,5.7188,5.7188,5.7188,5.7188,5.7188,5.7188,5.7188,5.7188,5.7188,5.7188,5.7188,5.7188,5.7188,5.7188,5.7188,5.7188,5.7188,5.7188,5.7188,5.7188,5.7188,5.7188,5.7188,5.7188,5.7188,5.7188,5.7188,5.7188,5.7188,5.7188,5.7188,5.7188,5.7188,5.7188,5.7188,5.7695,5.9054,5.9452,6.0122,6.1498,6.186,6.2023,6.2023,6.2023,6.2023,6.2023,6.2023,6.2023,6.2023,6.2023,6.2023,6.2023,6.2023,6.2023,6.2023,6.2023,6.2023,6.2023,6.2023,6.2023,0.0,4.7717,4.7717,4.7717,4.7717,0.0,0.0,0.0,4.7717,4.7717,4.7717,4.7717,4.7717,4.7717,4.7717,4.7717,4.7717,4.7717,4.7717,0.0,0.0,0.0,0.0,0.0,0.0,0.0,0.0,0.0,5.2498,5.2498,5.2498,5.4037,5.4907,5.4907,5.5903,5.6681,5.7188,5.7188,5.7188,5.7188,5.7188,5.7188,5.7188,5.7188,5.7188,5.7188,5.7188,5.7188,0.0,5.7188,5.7188,5.7188,5.7188,5.7188,5.7188,5.7188,5.7188,5.7188,5.7188,5.7188,5.7188,5.7188,5.7188,5.7188,5.7188,5.7188,5.7188,5.7188,5.7188,5.7188,5.7188,5.7188,5.7188,5.7188,5.7188,5.7188,5.7188,5.7188,5.7188,5.7188,5.7188,5.7188,5.7188,5.7188,5.7188,5.7188,5.746,5.813,5.9434,5.9868,6.0557,6.1879,6.2023,6.2023,6.2023,6.2023,6.2023,6.2023,6.2023,6.2023,6.2023,6.2023,6.2023,6.2023,6.2023,6.2023,6.2023,6.2023,6.2023,6.2023,6.2023,6.2023,0.0,0.0,0.0,0.0,0.0,0.0,0.0,0.0,0.0,0.0,4.7717,4.7717,4.7717,4.7717,4.7717,4.7717,4.7717,4.7717,4.7717,4.9094,0.0,0.0,0.0,0.0,0.0,0.0,0.0,5.2498,5.2498,5.2498,5.2498,5.3965,5.4852,5.4907,5.6337,5.7134,5.7188,5.7188,5.7188,5.7188,5.7188,5.7188,5.7188,5.7188,5.7188,0.0,5.7188,5.7188,5.7188,5.7188,5.7188,5.7188,5.7188,5.7188,5.7188,5.7188,5.7188,5.7188,5.7188,5.7188,5.7188,5.7188,5.7188,5.7188,5.7188,5.7188,5.7188,5.7188,5.7188,5.7188,5.7188,5.7188,5.7188,5.7188,5.7188,5.7188,5.7188,5.7188,5.7188,5.7188,5.7188,5.7188,5.7188,5.7188,5.7188,5.7188,5.7876,5.8691,5.9506,6.0303,6.1118,6.1933,6.2023,6.2023,6.2023,6.2023,6.2023,6.2023,6.2023,6.2023,6.2023,6.2023,6.2023,6.2023,6.2023,6.2023,6.2023,6.2023,6.2023,6.2023,6.2023,6.2023,4.732,0.0,4.7717,4.7717,4.7717,0.0,0.0,0.0,0.0,0.0,0.0,4.7717,4.7717,4.7717,4.7717,4.7717,4.7717,4.7717,4.7717,0.0,0.0,0.0,0.0,0.0,0.0,0.0,0.0,5.2498,5.2498,5.2498,5.2498,5.344,5.4273,5.4888,5.5794,5.6573,5.7188,5.7188,5.7188,5.7188,5.7188,5.7188,5.7188,5.7188,5.7188,5.7188,5.7188,5.7188,5.7188,5.7188,5.7188,5.7188,5.7188,5.7188,5.7188,5.7188,5.7188,5.7188,5.7188,5.7188,5.7188,5.7188,5.7188,5.7188,5.7188,5.7188,5.7188,5.7188,5.7188,5.7188,5.7188,5.7188,5.7188,5.7188,5.7188,5.7188,5.7188,5.7188,5.7188,5.7188,5.7188,5.7188,5.7188,5.7188,5.7188,5.7188,5.7876,5.8691,5.9506,6.0303,6.1118,6.1933,6.2023,6.2023,6.2023,6.2023,6.2023,6.2023,6.2023,6.2023,6.2023,6.2023,6.2023,6.2023,6.2023,6.2023,6.2023,6.2023,6.2023,6.2023,6.2023,6.2023,4.6707,4.7169,4.7407,4.7657,4.7717,4.7717,0.0,0.0,0.0,0.0,0.0,0.0,4.7717,0.0,0.0,4.7717,4.7717,4.7971,0.0,0.0,0.0,0.0,0.0,0.0,0.0,0.0,5.2526,5.2554,5.2554,5.2554,5.2645,5.3316,5.4114,5.493,5.5644,5.6373,5.7188,5.7188,5.7239,5.7289,5.7289,5.7338,5.7388,5.7388,5.7356,5.7289,5.7289,5.7257,5.7188,5.7188,5.7188,5.7188,5.7188,5.7188,5.7188,5.7188,5.7239,5.7289,5.7188,5.7188,5.7188,5.7188,5.7188,5.7188,5.7188,5.7188,5.7188,5.7188,5.7188,5.7188,5.7188,5.7188,5.7188,5.7188,5.7188,5.7188,5.7188,5.7188,5.7188,5.7188,5.7188,5.7188,5.7188,5.7188,5.7188,5.7188,5.8202,5.9108,5.9542,6.0629,6.1534,6.1969,6.2023,6.2023,6.2023,6.2023,6.2023,6.2023,6.2023,6.2023,6.2023,6.2023,6.2023,6.2023,6.2023,6.2023,6.2023,6.2023,6.2023,6.2023,6.2023,6.2023,4.6165,4.6548,4.7017,4.7572,4.7717,4.7717,0.0,0.0,0.0,0.0,0.0,0.0,0.0,0.0,0.0,0.0,0.0,0.0,0.0,0.0,0.0,0.0,0.0,0.0,0.0,5.2599,5.2554,5.2654,5.2635,5.2698,5.2806,5.3354,5.4044,5.4989,5.5565,5.6265,5.7188,5.7188,5.7307,5.7388,5.7388,5.7486,5.7601,5.7601,5.7553,5.7455,0.0,0.0,5.7239,5.7239,5.7239,5.7239,5.7239,5.7239,5.7257,5.7206,5.7289,5.7406,5.7289,5.7257,5.7239,5.7239,5.7206,5.7188,5.7188,5.7188,5.7188,5.7188,5.7188,5.7188,5.7188,5.7188,5.7188,5.7188,5.7188,5.7188,5.7188,5.7188,5.7188,5.7188,5.7188,5.7188,5.7188,5.7188,5.7243,5.7351,5.8655,5.9651,5.9778,6.11,6.2023,6.2023,6.2023,6.2023,6.2023,6.2023,6.2023,6.2023,6.2023,6.2023,6.2023,6.2023,6.2023,6.2023,6.2023,6.2023,6.2023,6.2023,6.2023,6.2023,6.2023,6.2023,4.6501,4.6863,4.7017,4.7572,4.7717,4.7717,0.0,0.0,0.0,0.0,0.0,0.0,0.0,0.0,0.0,0.0,0.0,0.0,0.0,0.0,0.0,0.0,0.0,0.0,5.2761,5.2761,5.2779,5.2761,5.2761,5.2761,5.2806,5.2889,5.3572,5.4971,5.5087,5.5801,5.7188,5.7289,5.7388,5.7388,5.7504,5.7601,5.7601,5.7601,5.7601,5.7534,0.0,5.7437,5.7553,5.7406,5.7455,5.7553,5.7388,5.7356,5.7356,5.7239,5.7289,5.7388,5.7504,5.7437,5.7356,5.7356,5.7289,5.7188,5.7188,5.7188,5.7188,5.7188,5.7188,5.7188,5.7188,5.7188,5.7188,5.7188,5.7188,5.7188,5.7188,5.7188,5.7188,5.7188,5.7188,5.7188,5.7188,5.7188,5.7424,5.8112,5.9017,5.985,6.0538,6.1444,6.2023,6.2023,6.2023,6.2023,6.2023,6.2023,6.2023,6.2023,6.2023,6.2023,6.2023,6.2023,6.2023,6.2023,6.2023,6.2023,6.2023,6.2023,6.2023,6.2023,6.2023,6.2023,4.6358,4.666,4.7017,4.7572,4.7717,0.0,0.0,0.0,0.0,0.0,0.0,0.0,0.0,0.0,0.0,0.0,0.0,0.0,0.0,0.0,0.0,0.0,0.0,0.0,5.2893,5.285,5.2806,5.2893,5.2912,5.2955,5.3017,5.2955,5.3642,5.5158,5.5166,5.5818,5.7388,5.7553,5.7601,5.7504,5.7601,5.7697,5.7792,5.7792,5.7792,5.7697,0.0,5.7601,5.7601,5.7553,5.7534,5.7601,5.7553,5.7504,5.7504,5.7504,5.7504,5.7553,5.7649,5.7601,5.7504,5.7504,5.7406,5.7307,5.7307,5.7257,5.7188,5.7188,5.7188,5.7188,5.7188,5.7188,5.7188,5.7188,5.7188,5.7188,5.7188,5.7188,5.7188,5.7188,5.7188,5.7188,5.7188,5.7188,5.746,5.8275,5.909,5.9905,6.072,6.1516,6.2023,6.2023,6.2023,6.2023,6.2023,6.2023,6.2023,6.2023,6.2023,6.2023,6.2023,6.2023,6.2023,6.2023,6.2023,6.2023,6.2023,6.2023,6.2023,6.2023,6.2023,6.2023,4.6046,4.6595,4.7214,0.0,0.0,0.0,0.0,0.0,0.0,0.0,0.0,0.0,0.0,0.0,0.0,0.0,0.0,0.0,0.0,0.0,0.0,0.0,0.0,5.2912,5.3042,5.2955,5.2955,5.3042,5.3109,5.3193,5.3295,5.3235,5.3867,5.5482,5.5332,5.6025,5.7583,5.7697,5.7697,5.7649,5.7697,5.7792,5.7997,5.7997,5.795,5.7857,5.7792,5.7745,5.7697,5.7649,5.7726,5.7802,5.7679,5.7679,5.7755,5.7895,5.7895,5.7802,5.7941,5.7821,5.7649,5.7649,5.7553,5.7455,5.7455,5.7338,5.7257,5.7257,5.7239,5.7188,5.7188,5.7188,5.7188,5.7188,5.7188,5.7188,5.7188,5.7188,5.7188,5.7188,5.7188,5.7188,5.7188,5.7188,5.7532,5.8528,5.9216,5.9977,6.0955,6.1643,6.2023,6.2023,6.2023,6.2023,6.2023,6.2023,6.2023,6.2023,6.2023,6.2023,6.2023,6.2023,6.2023,6.2023,6.2023,6.2023,6.2023,6.2023,6.2023,6.2023,6.2023,6.2023,4.5905,4.6845,4.7657,4.7699,0.0,0.0,0.0,0.0,0.0,0.0,0.0,0.0,0.0,0.0,0.0,0.0,0.0,0.0,0.0,0.0,0.0,0.0,0.0,5.3164,5.3164,5.3164,5.3164,5.3164,5.3484,5.3643,5.3643,5.3643,5.4327,5.5817,5.5563,5.6118,5.7583,5.7601,5.7697,5.7792,5.7904,5.7997,5.7997,5.7997,5.7997,5.7997,5.7839,5.7857,5.795,5.7857,5.8078,5.8461,5.7987,5.7923,5.8146,5.8295,5.8357,5.8357,5.8503,5.8194,5.7792,5.7792,5.7697,5.7601,5.7601,5.7486,5.7406,5.7406,5.7307,5.7188,5.7188,5.7188,5.7188,5.7188,5.7188,5.7188,5.7188,5.7188,5.7188,5.7188,5.7188,5.7188,5.7188,5.7188,5.7732,5.9289,5.9561,6.0176,6.1734,6.1987,6.2023,6.2023,6.2023,6.2023,6.2023,6.2023,6.2023,6.2023,6.2023,6.2023,6.2023,6.2023,6.2023,6.2023,6.2023,6.2023,6.2023,6.2023,6.2023,6.2023,6.2023,6.2023,4.6002,4.7017,4.7842,0.0,0.0,0.0,0.0,0.0,0.0,0.0,0.0,0.0,0.0,0.0,0.0,0.0,0.0,0.0,0.0,0.0,0.0,0.0,5.3164,5.3206,5.3206,5.3206,5.3272,5.3502,5.3623,5.3833,5.4052,5.4088,5.4671,5.598,5.5891,5.6466,5.7839,5.7857,5.7886,5.7932,5.7886,5.7904,5.7997,5.7997,5.7997,5.7997,5.795,5.795,5.8042,5.8213,5.8437,5.8586,5.8669,5.8713,5.8833,5.8872,5.8891,5.8912,5.8969,5.8669,5.8351,5.8586,5.8264,5.7774,5.8041,5.7831,5.7583,5.7802,5.7802,5.7737,5.77,5.7498,5.7419,5.7729,5.7576,5.7338,5.7338,5.7239,5.7188,5.7188,5.7188,5.7188,5.7188,5.7188,5.775,5.9361,5.9615,6.0194,6.1806,6.2023,6.2023,6.2023,6.2023,6.2023,6.2023,6.2023,6.2023,6.2023,6.2023,6.2023,6.2023,6.2023,6.2023,6.2023,6.2023,6.2023,6.2023,6.2023,6.2023,6.2023,6.2023,6.2023,4.6236,4.724,4.7947,0.0,0.0,0.0,0.0,0.0,0.0,0.0,0.0,0.0,0.0,0.0,0.0,0.0,0.0,0.0,0.0,0.0,0.0,5.3206,5.3206,5.3206,5.3206,5.3206,5.3336,5.3682,5.3833,5.4052,5.443,5.4364,5.4978,5.6444,5.6134,5.6681,5.8168,5.807,5.7997,5.7997,5.7904,5.7904,5.7997,5.7997,5.7997,5.7997,5.7997,5.807,5.8213,5.8479,5.8669,5.8812,5.9233,5.9397,5.9397,5.9397,5.9397,5.9397,5.9397,5.9122,5.8812,5.9084,5.8791,5.8264,5.84,5.827,5.8068,5.8176,5.8245,5.8338,5.8452,5.8146,5.7886,5.8094,5.7886,5.7613,5.7486,5.7388,5.7289,5.7289,5.7239,5.7257,5.7206,5.7406,5.8039,5.9416,5.9832,6.0484,6.1842,6.2023,6.2023,6.2023,6.2023,6.2023,6.2023,6.2023,6.2023,6.2023,6.2023,6.2023,6.2023,6.2023,6.2023,6.2023,6.2023,6.2023,6.2023,6.2023,6.2023,6.2023,6.2023,6.2023,4.6543,4.7542,0.0,0.0,0.0,0.0,0.0,0.0,0.0,0.0,0.0,0.0,0.0,0.0,0.0,0.0,0.0,0.0,0.0,0.0,5.3206,5.3206,5.3206,5.3206,5.3206,5.3206,5.3336,5.3682,5.4088,5.443,5.4776,5.4495,5.5235,5.722,5.6211,5.6571,5.8549,5.8213,5.7997,5.7997,5.7997,5.7997,5.7997,5.7997,5.7997,5.7997,5.7997,5.8213,5.8586,5.8628,5.8852,5.9233,5.9639,5.9809,5.9809,5.9809,5.9809,5.9809,5.9809,5.9537,5.9215,5.9196,5.9215,5.914,5.875,5.8793,5.8932,5.8508,5.8595,5.8933,5.948,5.914,5.8632,5.822,5.8157,5.8094,5.766,5.7601,5.7553,5.7455,5.7388,5.7356,5.7257,5.7876,5.8673,5.9488,6.0303,6.11,6.1915,6.2005,6.2005,6.2005,6.2005,6.2023,6.2023,6.2023,6.2023,6.2023,6.2023,6.2023,6.2023,6.2023,6.2023,6.2023,6.2023,6.2023,6.2023,6.2023,6.2023,6.2023,6.2023,6.2023,4.6855,4.765,0.0,0.0,0.0,0.0,0.0,0.0,0.0,0.0,0.0,0.0,0.0,0.0,0.0,0.0,0.0,0.0,0.0,5.3206,5.3206,5.3206,5.3206,5.3206,5.3206,5.3206,5.344,5.4088,5.4228,5.4578,5.5187,5.5132,5.5474,5.6349,5.6643,5.7208,5.8109,5.8611,5.871,5.8394,5.8394,5.8257,5.7997,5.7997,5.7997,5.8042,5.8301,5.8479,5.8628,5.9196,5.9673,6.0068,6.0178,6.0207,6.0207,6.0207,6.0207,6.0207,6.0207,5.9956,5.9692,5.9937,5.9658,5.9233,5.9378,5.9306,5.9159,5.9289,5.9361,5.9502,5.9855,5.9893,5.9744,5.9378,5.8833,5.8314,5.8201,5.7877,5.7601,5.7553,5.7437,5.7588,5.8101,5.829,5.8872,6.0249,6.0665,6.11,6.2005,6.215,6.215,6.215,6.215,6.2096,6.2023,6.2023,6.2023,6.2023,6.2023,6.2023,6.2023,6.2023,6.2023,6.2023,6.2023,6.2023,6.2023,6.2023,6.2023,6.2023,6.2023,6.2023,4.7331,0.0,0.0,0.0,0.0,0.0,0.0,0.0,0.0,0.0,0.0,0.0,0.0,0.0,0.0,0.0,0.0,0.0,0.0,5.3621,5.3582,5.34,5.34,5.3336,5.3206,5.3206,5.3521,5.4228,5.4315,5.461,5.5377,5.526,5.5474,5.6216,5.6759,5.7408,5.8132,5.8837,5.9103,5.8831,5.8831,5.8628,5.8213,5.807,5.7997,5.8042,5.8586,5.893,5.9122,5.9758,6.0178,6.0389,6.0389,6.0389,6.0389,6.0389,6.0389,6.0389,6.0389,6.0237,6.0099,6.0313,6.0049,5.9692,5.9758,5.9758,5.9692,5.9744,5.9861,6.0007,6.0178,6.0275,6.0245,5.9842,5.9342,5.8893,5.8753,5.8332,5.7969,5.7923,5.7964,5.819,5.8633,5.9132,5.9826,6.0753,6.1171,6.1552,6.2184,6.2257,6.2257,6.2257,6.2257,6.215,6.2114,6.2005,6.2023,6.2023,6.2023,6.2023,6.2023,6.2023,6.2023,6.2023,6.2023,6.2023,6.2023,6.2023,6.2023,6.2023,6.2023,6.2023,0.0,0.0,0.0,0.0,0.0,0.0,0.0,0.0,0.0,0.0,0.0,0.0,0.0,0.0,0.0,0.0,0.0,0.0,0.0,5.4315,5.4158,5.3795,5.3758,5.3623,5.3355,5.3314,5.3582,5.4296,5.4349,5.4642,5.5377,5.5038,5.5361,5.6454,5.6627,5.7243,5.842,5.8955,5.9195,5.9233,5.9233,5.9046,5.8628,5.8213,5.807,5.8142,5.887,5.9467,5.9874,6.0237,6.0389,6.0389,6.0389,6.0389,6.0389,6.0389,6.0389,6.0389,6.0389,6.0389,6.0389,6.0389,6.0389,6.0313,5.9988,6.0099,6.0313,5.9956,6.0129,6.0389,6.0389,6.0389,6.0285,5.9861,5.9777,5.9692,5.9306,5.8891,5.8605,5.8535,5.8759,5.9006,5.9054,6.0245,6.1178,6.1129,6.1731,6.2257,6.2415,6.2415,6.2415,6.2415,6.231,6.2257,6.2203,6.2114,6.2023,6.2023,6.2023,6.2023,6.2023,6.2005,6.2023,6.2023,6.2023,6.2023,6.2023,6.2023,6.2023,6.2023,6.2023,6.2023,0.0,0.0,0.0,0.0,0.0,0.0,0.0,0.0,0.0,0.0,0.0,0.0,0.0,0.0,0.0,0.0,0.0,0.0,0.0,5.4315,5.4281,5.4193,5.4158,5.4123,5.4071,5.4071,5.4228,5.4654,5.4685,5.4903,5.5358,5.5332,5.5382,5.5651,5.6262,5.7054,5.8006,5.8768,5.9323,5.9692,5.9692,5.9467,5.9065,5.8669,5.8628,5.8949,5.9122,5.9605,6.0285,6.0342,6.0389,6.0389,6.0389,6.0389,6.0389,6.0389,6.0389,6.0389,6.0389,6.0389,6.0389,6.0389,6.0389,6.0389,6.0313,6.0313,6.0389,6.0285,6.0342,6.0389,6.0389,6.0389,6.0389,6.0285,6.0019,5.9758,5.9692,5.9122,5.8772,5.938,5.921,5.942,6.0633,6.1025,6.1412,6.1998,6.2253,6.2415,6.2552,6.2552,6.2552,6.2552,6.2552,6.2449,6.2362,6.231,6.231,6.231,6.231,6.231,6.231,6.2203,6.215,6.215,6.2257,6.231,6.231,6.231,6.231,6.231,6.231,6.231,0.0,0.0,0.0,0.0,0.0,0.0,0.0,0.0,0.0,0.0,0.0,0.0,0.0,0.0,0.0,0.0,0.0,0.0,5.4784,5.4833,5.4754,5.456,5.4528,5.4463,5.4315,5.4315,5.443,5.4776,5.4806,5.4962,5.5377,5.5403,5.5403,5.5403,5.6186,5.6816,5.7275,5.8498,5.9216,5.946,5.9889,5.9874,5.9467,5.9084,5.9122,5.9502,5.9502,5.9823,6.0389,6.0389,6.0389,6.0389,6.0389,6.0389,6.0389,6.0389,6.0389,6.0389,6.0389,6.0389,6.0389,6.0389,6.0389,6.0389,6.0389,6.0389,6.0389,6.0389,6.0389,6.0389,6.0389,6.0389,6.0389,6.0389,6.0237,6.0099,6.0099,5.9908,5.9891,6.0285,6.0659,6.1067,6.1698,6.1856,6.2007,6.2497,6.257,6.2552,6.2654,6.2705,6.2705,6.2705,6.2654,6.2552,6.25,6.2467,6.2415,6.2415,6.2415,6.2415,6.2415,6.2397,6.2344,6.231,6.2362,6.2415,6.2415,6.2415,6.2415,6.2415,6.2415,6.2415,0.0,0.0,0.0,0.0,0.0,0.0,0.0,0.0,0.0,0.0,0.0,0.0,0.0,0.0,0.0,0.0,0.0,5.5038,5.5358,5.5403,5.5286,5.4962,5.4914,5.4795,5.4514,5.4482,5.461,5.4884,5.4914,5.5038,5.5377,5.5403,5.5403,5.5403,5.6052,5.6454,5.6587,5.7982,5.8822,5.9109,5.9969,6.0237,5.9906,5.9571,5.9537,5.9791,5.9791,6.0019,6.0389,6.0389,6.0389,6.0389,6.0389,6.0389,6.0389,6.0389,6.0389,6.0389,6.0389,6.0389,6.0389,6.0389,6.0389,6.0389,6.0389,6.0389,6.0389,6.0389,6.0389,6.0389,6.0389,6.0389,6.0389,6.0389,6.0389,6.0389,6.0389,6.0727,6.1041,6.1193,6.2257,6.2963,6.2575,6.2649,6.2787,6.2805,6.2705,6.2654,6.2773,6.2805,6.2805,6.2805,6.2705,6.2654,6.2654,6.25,6.2467,6.2467,6.2467,6.2467,6.2467,6.2552,6.2603,6.2467,6.2467,6.2467,6.2467,6.2467,6.2467,6.2467,6.2467,6.2467,0.0,0.0,0.0,0.0,0.0,0.0,0.0,0.0,0.0,0.0,0.0,0.0,0.0,0.0,0.0,0.0,5.4419,5.5332,5.5403,5.5403,5.5377,5.5332,5.5332,5.5305,5.526,5.526,5.526,5.5332,5.5332,5.5332,5.5403,5.5403,5.5403,5.5403,5.5498,5.588,5.6587,5.6816,5.7657,5.9109,5.9969,6.0389,6.0313,6.0266,6.0099,5.9791,5.9791,6.0019,6.0389,6.0389,6.0389,6.0389,6.0389,6.0389,6.0389,6.0389,6.0389,6.0389,6.0389,6.0389,6.0389,6.0389,6.0389,6.0389,6.0389,6.0389,6.0389,6.0389,6.0389,6.0389,6.0389,6.0389,6.0389,6.0389,6.0389,6.0389,6.0389,6.0727,6.1212,6.1989,6.3106,6.3825,6.3412,6.3371,6.3233,6.2855,6.2755,6.2755,6.2823,6.2805,6.2805,6.2805,6.2755,6.2755,6.2755,6.2773,6.2773,6.2773,6.2773,6.2773,6.2773,6.2755,6.2755,6.2773,6.2773,6.2773,6.2773,6.2773,6.2773,6.2773,6.2773,6.2773,0.0,0.0,0.0,0.0,0.0,0.0,0.0,0.0,0.0,0.0,0.0,0.0,0.0,0.0,0.0,0.0,5.4486,5.5403,5.5403,5.5403,5.5403,5.5403,5.5403,5.5403,5.5403,5.5403,5.5403,5.5403,5.5403,5.5403,5.5403,5.5403,5.5403,5.5403,5.5403,5.5575,5.5919,5.6358,5.7447,5.9109,5.9491,5.9931,6.0389,6.0389,6.0313,6.0129,6.0129,6.0237,6.0389,6.0389,6.0389,6.0389,6.0389,6.0389,6.0389,6.0389,6.0389,6.0389,6.0389,6.0389,6.0389,6.0389,6.0389,6.0389,6.0389,6.0389,6.0389,6.0389,6.0389,6.0389,6.0389,6.0389,6.0389,6.0389,6.0389,6.0504,6.0981,6.159,6.2452,6.3785,6.4263,6.4445,6.4253,6.3803,6.3445,6.3233,6.2984,6.2805,6.2805,6.3032,6.311,6.2805,6.3032,6.3062,6.2805,6.2805,6.2805,6.2805,6.2805,6.2805,6.2805,6.2805,6.2805,6.2805,6.2805,6.2805,6.2805,6.2805,6.2805,6.2805,6.2805,6.2805,0.0,0.0,0.0,0.0,0.0,0.0,0.0,0.0,0.0,0.0,0.0,0.0,0.0,0.0,0.0,5.3034,5.4245,5.5154,5.5365,5.5403,5.5403,5.5403,5.5403,5.5403,5.5403,5.5403,5.5403,5.5403,5.5403,5.5403,5.5403,5.5403,5.5403,5.5403,5.5403,5.5403,5.5403,5.6205,5.7218,5.8479,5.8899,5.9434,6.0083,6.0293,6.0389,6.0389,6.0389,6.0389,6.0389,6.0389,6.0389,6.0389,6.0389,6.0389,6.0389,6.0389,6.0389,6.0389,6.0389,6.0389,6.0389,6.0389,6.0389,6.0389,6.0389,6.0389,6.0389,6.0389,6.0389,6.0389,6.0389,6.0389,6.0389,6.0389,6.0561,6.0924,6.1745,6.2624,6.3656,6.5127,6.5169,6.4932,6.4829,6.4174,6.3605,6.3535,6.311,6.2855,6.2984,6.328,6.3372,6.3032,6.328,6.3326,6.2855,6.2805,6.2805,6.2805,6.2805,6.2805,6.2805,6.2805,6.2805,6.2805,6.2805,6.2805,6.2805,6.2805,6.2805,6.2805,6.2805,6.2805,0.0,0.0,0.0,0.0,0.0,0.0,0.0,0.0,0.0,0.0,0.0,0.0,0.0,0.0,0.0,5.2229,5.337,5.4467,5.5288,5.5403,5.5403,5.5403,5.5403,5.5403,5.5403,5.5403,5.5403,5.5403,5.5403,5.5403,5.5403,5.5403,5.5403,5.5403,5.5403,5.5403,5.5403,5.6205,5.6625,5.674,5.8345,5.9128,5.9205,6.0007,6.0389,6.0389,6.0389,6.0389,6.0389,6.0389,6.0389,6.0389,6.0389,6.0389,6.0389,6.0389,6.0389,6.0389,6.0389,6.0389,6.0389,6.0389,6.0389,6.0389,6.0389,6.0389,6.0389,6.0389,6.0389,6.0389,6.0389,6.0389,6.0389,6.0389,6.0981,6.1784,6.2643,6.3522,6.4382,6.5242,6.5394,6.5252,6.4863,6.4407,6.3952,6.358,6.311,6.2984,6.3418,6.349,6.349,6.3445,6.349,6.3326,6.2855,6.2805,6.2805,6.2805,6.2805,6.2805,6.2805,6.2805,6.2805,6.2805,6.2805,6.2805,6.2805,6.2805,6.2805,6.2805,6.2805,6.2805,0.0,0.0,0.0,0.0,0.0,0.0,0.0,0.0,0.0,0.0,0.0,0.0,0.0,0.0,5.1269,5.177,5.266,5.3569,5.4448,5.4581,5.4772,5.5326,5.5403,5.5403,5.5403,5.5403,5.5403,5.5403,5.5403,5.5403,5.5403,5.5403,5.5403,5.5403,5.5403,5.5403,5.5403,5.5689,5.6091,5.6606,5.7199,5.8058,5.9109,5.9415,5.9873,6.0389,6.0389,6.0389,6.0389,6.0389,6.0389,6.0389,6.0389,6.0389,6.0389,6.0389,6.0389,6.0389,6.0389,6.0389,6.0389,6.0389,6.0389,6.0389,6.0389,6.0389,6.0389,6.0389,6.0389,6.0389,6.0389,6.0389,6.0523,6.1039,6.1822,6.2682,6.3541,6.4382,6.505,6.5337,6.5394,6.5364,6.5201,6.4845,6.4407,6.3952,6.3517,6.3326,6.349,6.3718,6.3888,6.3888,6.4174,6.4053,6.3326,6.3233,6.311,6.2805,6.2805,6.2805,6.2805,6.2805,6.2805,6.2805,6.2805,6.2805,6.2805,6.2805,6.2805,6.2805,6.2805,6.2805,0.0,0.0,0.0,0.0,0.0,0.0,0.0,0.0,0.0,0.0,0.0,0.0,0.0,0.0,5.1002,5.152,5.2059,5.269,5.3531,5.3913,5.4314,5.4887,5.5231,5.5403,5.5403,5.5403,5.5403,5.5403,5.5403,0.0,5.5403,5.5403,5.5403,5.5403,5.5403,5.5403,5.5403,5.5403,5.567,5.6205,5.6473,5.7179,5.8288,5.8842,5.9415,5.9969,6.0255,6.0389,6.0389,6.0389,6.0389,6.0389,6.0389,6.0389,6.0389,6.0389,6.0389,6.0389,6.0389,6.0389,6.0389,6.0389,6.0389,6.0389,6.0389,6.0389,6.0389,6.0389,6.0389,6.0389,6.0389,6.0599,6.1,6.1841,6.2701,6.356,6.442,6.5012,6.5394,6.5394,6.5394,6.5394,6.5394,6.5052,6.4649,6.4195,6.3869,6.3674,6.3674,6.4075,6.4312,6.4312,6.4612,6.4502,6.3761,6.358,6.3372,6.3062,6.2904,6.2805,6.2805,6.2805,6.2805,6.2805,6.2805,6.2805,6.2805,6.2805,6.2805,6.2805,6.2805,6.2805,0.0,0.0,0.0,0.0,0.0,0.0,0.0,0.0,0.0,0.0,0.0,0.0,0.0,5.0302,5.0588,5.1429,5.1563,5.1849,5.2652,5.3492,5.4046,5.4065,5.4811,5.5326,5.5365,5.5365,5.5365,5.5403,5.5403,5.5403,5.5403,5.5403,5.5403,5.5403,5.5403,5.5403,5.5403,5.5403,5.5403,5.5422,5.6186,5.6568,5.6645,5.8288,5.9052,5.9166,5.9988,6.037,6.0389,6.0389,6.0389,6.0389,6.0389,6.0389,6.0389,6.0389,6.0389,6.0389,6.0389,6.0389,6.0389,6.0389,6.0389,6.0389,6.0389,6.0389,6.0389,6.0389,6.0389,6.0389,6.0389,6.1,6.1822,6.2701,6.356,6.442,6.5222,6.5394,6.5394,6.5394,6.5394,6.5394,6.5394,6.5085,6.4649,6.4195,6.4096,6.4096,6.4096,6.4539,6.481,6.4829,6.4829,6.4612,6.4155,6.3761,6.3535,6.349,6.3062,6.2805,6.2805,6.2805,6.2805,6.2805,6.2805,6.2805,6.2805,6.2805,6.2805,6.2805,6.2805,6.2805,4.8306,0.0,0.0,0.0,0.0,0.0,0.0,0.0,0.0,0.0,0.0,0.0,5.0236,5.0302,5.0378,5.0627,5.0665,5.0971,5.1811,5.2136,5.2518,5.3091,5.3359,5.376,5.4409,5.4467,5.4715,0.0,5.5403,5.5403,5.5403,5.5403,5.5403,5.5403,5.5403,5.5403,5.5403,5.5403,5.5403,5.5403,5.5632,5.6033,5.6606,5.7084,5.7944,5.9109,5.9357,5.9816,6.0389,6.0389,6.0389,6.0389,6.0389,6.0389,6.0389,6.0389,6.0389,6.0389,6.0389,6.0389,6.0389,6.0389,6.0389,6.0389,6.0389,6.0389,6.0389,6.0389,6.0389,6.0389,6.0389,6.1,6.1822,6.2701,6.356,6.442,6.5222,6.5394,6.5394,6.5394,6.5394,6.5394,6.5394,6.5314,6.5085,6.4649,6.4612,6.4612,6.4612,6.4739,6.4898,6.5201,6.5232,6.5052,6.4649,6.4502,6.4174,6.3535,6.3372,6.3158,6.2805,6.2805,6.2805,6.2805,6.2805,6.2805,6.2805,6.2805,6.2805,6.2805,6.2805,6.2805,0.0,0.0,0.0,0.0,0.0,0.0,4.89,4.9015,0.0,0.0,0.0,5.0076,5.0259,5.0302,5.0302,5.0302,5.0302,5.0474,5.099,5.1372,5.1773,5.2251,5.2594,5.2996,5.3511,5.355,5.3913,5.4791,5.4868,5.5021,5.5384,5.5403,5.5403,5.5403,5.5403,5.5403,5.5403,5.5403,5.5403,5.5403,5.5403,5.5651,5.611,5.6454,5.7332,5.8631,5.8956,5.9587,6.0389,6.0389,6.0389,6.0389,6.0389,6.0389,6.0389,6.0389,6.0389,6.0389,6.0389,6.0389,6.0389,6.0389,6.0389,6.0389,6.0389,6.0389,6.0389,6.0389,6.0389,6.0389,6.0389,6.1268,6.228,6.2777,6.3828,6.4821,6.5299,6.5394,6.5394,6.5394,6.5394,6.5394,6.5394,6.5394,6.5252,6.4863,6.4932,6.4985,6.4829,6.4951,6.5136,6.5364,6.5394,6.5333,6.5052,6.4898,6.4576,6.4053,6.3693,6.3372,6.311,6.2886,6.2805,6.2805,6.2805,6.2805,6.2805,6.2805,6.2805,6.2805,6.2805,6.2805,0.0,0.0,0.0,0.0,0.0,0.0,4.9048,4.9209,4.9363,0.0,0.0,5.0144,5.0169,5.0188,5.0212,5.0236,5.0236,5.0259,5.0302,5.0971,5.1467,5.1467,5.2098,5.2556,5.2652,5.2671,5.3034,5.3894,5.4046,5.4486,5.5345,5.5403,5.5403,5.5403,5.5403,5.5403,5.5403,5.5403,5.5403,5.5403,5.5403,5.5403,5.5422,5.6129,5.6988,5.7944,5.867,5.951,6.0389,6.0389,6.0389,6.0389,6.0389,6.0389,6.0389,6.0389,6.0389,6.0389,6.0389,6.0389,6.0389,6.0389,6.0389,6.0389,6.0389,6.0389,6.0389,6.0389,6.0389,6.0389,6.0389,6.1631,6.2911,6.2911,6.4191,6.5394,6.5394,6.5394,6.5394,6.5394,6.5394,6.5394,6.5394,6.5394,6.5283,6.4932,6.5169,6.5283,6.4898,6.5169,6.5394,6.5394,6.5394,6.5394,6.5394,6.5052,6.4863,6.4794,6.4053,6.3605,6.349,6.311,6.2855,6.2805,6.2805,6.2805,6.2805,6.2805,6.2805,6.2805,6.2805,6.2805,0.0,0.0,0.0,0.0,0.0,0.0,4.8458,4.8495,4.8623,0.0,4.908,4.9177,4.9453,4.9483,4.957,4.9857,4.9903,4.9981,5.0259,5.0455,5.055,5.055,5.0684,5.1066,5.1773,5.183,5.2174,5.2996,5.3702,5.4486,5.5345,5.5403,5.5403,5.5403,5.5403,5.5403,5.5403,5.5403,5.5403,5.5403,5.5403,5.5403,5.5422,5.5556,5.6454,5.7905,5.8077,5.8994,6.0389,6.0389,6.0389,6.0389,6.0389,6.0389,6.0389,6.0389,6.0389,6.0389,6.0389,6.0389,6.0389,6.0389,6.0389,6.0389,6.0389,6.0389,6.0389,6.0389,6.0389,6.0389,6.0389,6.1631,6.2911,6.2911,6.4191,6.5394,6.5394,6.5394,6.5394,6.5394,6.5394,6.5394,6.5394,6.5394,6.5364,6.5283,6.5364,6.5364,6.5283,6.5364,6.5394,6.5394,6.5394,6.5394,6.5394,6.5333,6.5136,6.4829,6.4631,6.4214,6.3535,6.34,6.3205,6.2823,6.2805,6.2805,6.2805,6.2805,6.2805,6.2805,6.2805,6.2805,0.0,0.0,0.0,4.8306,0.0,0.0,0.0,4.8569,4.864,4.8982,4.9048,4.9113,4.9252,0.0,4.9363,4.9512,4.9702,4.9857,5.0025,5.0193,5.0302,5.0302,5.0302,5.0474,5.0913,5.0951,5.1295,5.2136,5.3378,5.4295,5.4734,5.5174,5.5403,5.5403,5.5403,5.5403,5.5403,5.5403,5.5403,5.5403,5.5403,5.5403,5.5403,5.5403,5.632,5.7905,5.7905,5.8842,6.0389,6.0389,6.0389,6.0389,6.0389,6.0389,6.0389,6.0389,6.0389,6.0389,6.0389,6.0389,6.0389,6.0389,6.0389,6.0389,6.0389,6.0389,6.0389,6.0389,6.0389,6.0389,6.0389,6.1325,6.2357,6.2815,6.3866,6.4898,6.5318,6.5394,6.5394,6.5394,6.5394,6.5394,6.5394,6.5394,6.5394,6.5394,6.5394,6.5394,6.5394,6.5394,6.5394,6.5394,6.5394,6.5394,6.5394,6.5394,6.5314,6.5085,6.4685,6.4234,6.3803,6.34,6.3014,6.2805,6.2805,6.2805,6.2805,6.2805,6.2805,6.2805,6.2805,6.2805,0.0,0.0,0.0,0.0,0.0,4.8364,0.0,0.0,0.0,4.9048,4.9113,0.0,0.0,0.0,0.0,0.0,0.0,0.0,0.0,5.0024,0.0,5.0278,5.0302,5.0302,5.0302,5.0302,5.0665,5.1544,5.2862,5.376,5.4085,5.4772,5.5231,5.5403,5.5403,5.5403,5.5403,5.5384,5.5409,5.5409,5.5409,5.5409,5.5409,5.5403,5.6224,5.7657,5.7829,5.8765,6.016,6.0332,6.0389,6.0389,6.0389,6.0389,6.0389,6.0389,6.0389,6.0389,6.0389,6.0389,6.0389,6.0389,6.0389,6.0389,6.0389,6.0389,6.0389,6.0389,6.0389,6.0389,6.0389,6.1,6.1822,6.2701,6.356,6.442,6.5222,6.5394,6.5394,6.5394,6.5394,6.5394,6.5394,6.5394,6.5394,6.5394,6.5394,6.5394,6.5394,6.5394,6.5394,6.5394,6.5394,6.5394,6.5394,6.5394,6.5394,6.5394,6.4756,6.4273,6.4115,6.3262,6.2805,6.2805,6.2805,6.2805,6.2805,6.2805,6.2805,6.2805,6.2805,6.2805,0.0,0.0,0.0,0.0,4.8306,0.0,0.0,0.0,4.8364,4.8402,0.0,0.0,0.0,0.0,0.0,0.0,0.0,0.0,5.0297,4.9845,4.9627,5.0236,5.0302,5.0302,5.0302,5.0302,5.0665,5.1544,5.1792,5.2537,5.4027,5.4199,5.46,5.5384,5.5403,5.5403,5.5403,5.5396,5.5383,5.5383,5.5383,5.5383,5.5402,5.5409,5.5899,5.6778,5.7562,5.8402,5.9319,6.0083,6.0389,6.0389,6.0389,6.0389,6.0389,6.0389,6.0389,6.0389,6.0389,6.0389,6.0389,6.0389,6.0389,6.0389,6.0389,6.0389,6.0389,6.0389,6.0389,6.0389,6.0389,6.1,6.1822,6.2701,6.356,6.442,6.5222,6.5394,6.5394,6.5394,6.5394,6.5394,6.5394,6.5394,6.5394,6.5394,6.5394,6.5394,6.5394,6.5394,6.5394,6.5394,6.5394,6.5394,6.5394,6.5394,6.5394,6.5394,6.5314,6.4913,6.4136,6.3262,6.2805,6.2805,6.2805,6.2805,6.2805,6.2805,6.2805,6.2805,6.2805,6.2805,0.0,0.0,0.0,0.0,0.0,0.0,4.8326,0.0,4.8306,0.0,0.0,0.0,0.0,0.0,0.0,0.0,4.8898,0.0,0.0,0.0,4.9405,0.0,0.0,0.0,5.0278,5.012,5.0228,5.0794,5.1129,5.191,5.3282,5.3836,5.4505,5.5365,5.5403,5.5409,5.5396,5.5402,5.5432,5.5456,5.5456,5.5456,5.5456,5.5421,5.5855,5.6722,5.7576,5.8372,5.9166,6.0081,6.0444,6.0389,6.0444,6.0444,6.0389,6.0444,6.0444,6.0389,6.0389,6.0389,6.0389,6.0389,6.0389,6.0389,6.0389,6.0389,6.0389,6.0389,6.0389,6.0389,6.0389,6.0637,6.123,6.2586,6.3178,6.3809,6.5127,6.5394,6.5394,6.5394,6.5394,6.5394,6.5394,6.5394,6.5394,6.5394,6.5394,6.5394,6.5394,6.5394,6.5394,6.5394,6.5394,6.5394,6.5394,6.5394,6.5394,6.5394,6.5169,6.4649,6.3803,6.34,6.3062,6.2823,6.2805,6.2805,6.2805,6.2805,6.2805,6.2805,6.2805,6.2805,4.8676,0.0,0.0,0.0,0.0,0.0,0.0,0.0,0.0,0.0,0.0,0.0,0.0,0.0,0.0,0.0,0.0,4.8732,0.0,0.0,0.0,0.0,0.0,0.0,0.0,4.983,4.9849,5.0169,5.0589,5.1319,5.2451,5.3312,5.4192,5.5046,5.5295,5.5396,5.5408,5.5432,5.5456,5.5527,5.5527,5.5527,5.5527,5.5456,5.5777,5.6428,5.7538,5.8336,5.8915,6.0059,6.0499,6.0472,6.0525,6.0525,6.0472,6.0499,6.0499,6.0444,6.0444,6.0444,6.0417,6.0417,6.0389,6.0389,6.0389,6.0389,6.0389,6.0389,6.0389,6.0389,6.0389,6.0389,6.0809,6.251,6.2911,6.3369,6.505,6.5394,6.5394,6.5394,6.5394,6.5394,6.5394,6.5394,6.5394,6.5394,6.5394,6.5394,6.5394,6.5394,6.5394,6.5394,6.5394,6.5394,6.5394,6.5394,6.5394,6.5394,6.5019,6.4464,6.3693,6.358,6.328,6.2805,6.2805,6.2805,6.2805,6.2805,6.2805,6.2805,6.2805,6.2805,0.0,0.0,0.0,4.8781,0.0,0.0,0.0,0.0,4.8306,0.0,0.0,0.0,0.0,0.0,0.0,4.9407,0.0,0.0,0.0,0.0,0.0,0.0,0.0,0.0,0.0,4.9431,4.9627,4.9884,5.0038,5.0588,5.1686,5.2571,5.3388,5.4197,5.5006,5.5408,5.5408,5.5456,5.5527,5.5596,5.5596,5.5596,5.5596,5.5527,5.5523,5.5638,5.7345,5.8111,5.8265,5.9933,6.0604,6.0604,6.068,6.0635,6.0604,6.0604,6.0604,6.0604,6.0604,6.0552,6.0499,6.0417,6.0389,6.0389,6.0389,6.0389,6.0389,6.0389,6.0389,6.0389,6.0389,6.0389,6.0809,6.251,6.2911,6.3369,6.505,6.5394,6.5394,6.5394,6.5394,6.5394,6.5394,6.5394,6.5394,6.5394,6.5394,6.5394,6.5394,6.5394,6.5394,6.5394,6.5394,6.5394,6.5394,6.5394,6.5394,6.5394,6.5019,6.4576,6.4096,6.3718,6.328,6.2805,6.2805,6.2805,6.2805,6.2805,6.2805,6.2805,6.2805,6.2805,0.0,0.0,4.9522,4.9252,0.0,0.0,0.0,0.0,0.0,0.0,0.0,0.0,0.0,0.0,4.8456,4.8975,4.8623,0.0,0.0,0.0,0.0,0.0,0.0,0.0,0.0,0.0,4.9589,5.0019,5.0025,5.0517,5.1647,5.2532,5.3372,5.423,5.5035,5.548,5.5527,5.5551,5.5596,5.5682,5.5682,5.5682,5.5662,5.5596,5.5573,5.5669,5.7416,5.8141,5.8226,5.9964,6.0655,6.0604,6.066,6.0704,6.068,6.068,6.0655,6.0604,6.0604,6.0552,6.0499,6.0472,6.0444,6.0389,6.0389,6.0389,6.0389,6.0389,6.0389,6.0389,6.0389,6.0389,6.0676,6.1784,6.249,6.3216,6.4363,6.5012,6.5394,6.5394,6.5394,6.5394,6.5394,6.5394,6.5394,6.5394,6.5394,6.5394,6.5394,6.5394,6.5394,6.5394,6.5394,6.5394,6.5394,6.5394,6.5394,6.5394,6.5283,6.4879,6.4155,6.3952,6.3543,6.2805,6.2805,6.2805,6.2805,6.2805,6.2805,6.2805,6.2805,6.2805,4.9811,4.9891,0.0,4.9664,4.9504,0.0,4.908,0.0,0.0,0.0,0.0,0.0,0.0,0.0,0.0,4.8781,4.8623,4.8439,0.0,4.8306,0.0,0.0,0.0,0.0,0.0,0.0,4.9541,5.0051,5.0062,5.0455,5.1291,5.2156,5.2998,5.384,5.4683,5.5263,5.5596,5.5596,5.5618,5.5703,5.5703,5.5703,5.5703,5.566,5.566,5.5737,5.7463,5.8208,5.8299,6.0037,6.0729,6.068,6.0729,6.0753,6.0753,6.0753,6.0704,6.068,6.0655,6.0604,6.0578,6.0552,6.0499,6.0444,6.0444,6.0417,6.0504,6.1115,6.0848,6.0523,6.1134,6.0848,6.0599,6.1402,6.228,6.314,6.4,6.4821,6.5394,6.5394,6.5394,6.5394,6.5394,6.5394,6.5394,6.5394,6.5394,6.5394,6.5394,6.5394,6.5394,6.5394,6.5394,6.5394,6.5394,6.5394,6.5394,6.5394,6.5394,6.5085,6.4369,6.4195,6.3873,6.3486,6.3051,6.297,6.3264,6.297,6.2805,6.2805,6.2805,6.2805]},{"header":{"parameterUnit":"m.s-1","parameterCategory":1,"la1":30.6,"la2":29.2853,"lo1":-89.7004,"lo2":-87.6739,"dy":0.0162,"dx":0.0183,"nx":112,"ny":82,"refTime":"2023-04-26T18:00:00:Z","depth":0,"parameterNumber":3,"parameterNumberName":"V-component_of_WINDS"},"data":[0.0,0.0,0.0,0.0,0.0,0.0,0.0,0.0,0.0,0.0,0.0,0.0,0.0,0.0,0.0,0.0,0.0,0.0,0.0,0.0,0.0,0.0,0.0,0.0,0.0,0.0,0.0,0.0,0.0,0.0,0.0,0.0,0.0,0.0,0.0,0.0,0.0,0.0,0.0,0.0,0.0,0.0,0.0,0.0,0.0,0.0,0.0,0.0,0.0,0.0,0.0,0.0,0.0,0.0,0.0,0.0,0.0,0.0,0.0,0.0,0.0,0.0,0.0,0.0,0.0,0.0,0.0,0.0,0.0,0.0,0.0,0.0,0.0,0.0,0.0,0.0,0.0,0.0,0.0,0.0,0.0,0.0,0.0,0.0,0.0,0.0,0.0,0.0,0.0,0.0,-2.345,-2.3298,-2.2694,-2.2403,-2.2641,-2.2641,-2.3043,-2.3977,0.0,0.0,0.0,0.0,0.0,0.0,0.0,0.0,0.0,0.0,0.0,0.0,0.0,0.0,0.0,0.0,0.0,0.0,0.0,0.0,0.0,0.0,0.0,0.0,0.0,0.0,0.0,0.0,0.0,0.0,0.0,0.0,0.0,0.0,0.0,0.0,0.0,0.0,0.0,0.0,0.0,0.0,0.0,0.0,0.0,0.0,0.0,0.0,0.0,0.0,0.0,0.0,0.0,0.0,0.0,0.0,0.0,0.0,0.0,0.0,0.0,0.0,0.0,0.0,0.0,0.0,0.0,0.0,0.0,0.0,0.0,0.0,0.0,0.0,0.0,0.0,0.0,0.0,0.0,0.0,0.0,0.0,0.0,0.0,0.0,0.0,0.0,0.0,0.0,0.0,0.0,0.0,0.0,0.0,0.0,0.0,0.0,0.0,0.0,0.0,0.0,0.0,0.0,0.0,-2.4165,-2.3275,-2.3026,-2.3036,-2.3305,-2.3391,-2.3564,-2.4152,0.0,0.0,0.0,0.0,0.0,0.0,0.0,0.0,0.0,0.0,0.0,0.0,0.0,0.0,0.0,0.0,0.0,0.0,0.0,0.0,0.0,0.0,0.0,0.0,0.0,0.0,0.0,0.0,0.0,0.0,0.0,0.0,0.0,0.0,0.0,0.0,0.0,0.0,0.0,0.0,0.0,0.0,0.0,0.0,0.0,0.0,0.0,0.0,0.0,0.0,0.0,0.0,0.0,0.0,0.0,0.0,0.0,0.0,0.0,0.0,0.0,0.0,0.0,0.0,0.0,0.0,0.0,0.0,0.0,0.0,0.0,0.0,0.0,0.0,0.0,0.0,0.0,0.0,0.0,0.0,0.0,0.0,0.0,0.0,0.0,0.0,0.0,0.0,0.0,0.0,0.0,0.0,0.0,0.0,0.0,0.0,0.0,0.0,0.0,0.0,0.0,0.0,0.0,-2.4002,-2.3714,-2.3135,-2.3135,-2.3144,-2.3232,-2.3416,-2.3677,-2.3937,-2.4041,0.0,0.0,0.0,0.0,0.0,0.0,0.0,0.0,0.0,0.0,0.0,0.0,0.0,0.0,0.0,0.0,0.0,0.0,0.0,0.0,0.0,0.0,0.0,0.0,0.0,0.0,0.0,0.0,0.0,0.0,0.0,0.0,0.0,0.0,0.0,0.0,0.0,0.0,0.0,0.0,0.0,0.0,0.0,0.0,0.0,0.0,0.0,0.0,0.0,0.0,0.0,0.0,0.0,0.0,0.0,0.0,0.0,0.0,0.0,0.0,0.0,0.0,0.0,0.0,0.0,0.0,0.0,0.0,0.0,0.0,0.0,0.0,0.0,0.0,0.0,0.0,0.0,0.0,0.0,0.0,0.0,0.0,0.0,0.0,0.0,0.0,0.0,0.0,0.0,0.0,0.0,0.0,0.0,0.0,0.0,0.0,0.0,0.0,0.0,0.0,0.0,0.0,-2.3135,-2.3135,-2.3135,-2.3135,-2.3135,-2.3135,-2.3319,-2.3503,-2.3754,-2.4024,0.0,0.0,0.0,0.0,0.0,0.0,0.0,0.0,0.0,0.0,0.0,0.0,0.0,0.0,0.0,0.0,0.0,0.0,0.0,0.0,0.0,0.0,0.0,0.0,0.0,0.0,0.0,0.0,0.0,0.0,0.0,0.0,0.0,0.0,0.0,0.0,0.0,0.0,0.0,0.0,0.0,0.0,0.0,0.0,0.0,0.0,0.0,0.0,0.0,0.0,0.0,0.0,0.0,0.0,0.0,0.0,0.0,0.0,0.0,0.0,0.0,0.0,0.0,0.0,0.0,0.0,0.0,0.0,0.0,0.0,0.0,0.0,0.0,0.0,0.0,0.0,0.0,0.0,0.0,0.0,0.0,0.0,0.0,0.0,0.0,0.0,0.0,0.0,0.0,0.0,0.0,0.0,0.0,0.0,0.0,0.0,0.0,0.0,0.0,0.0,0.0,0.0,-2.3135,-2.3135,-2.3135,-2.3135,-2.3135,-2.3135,-2.3135,-2.3319,-2.3754,-2.3841,0.0,0.0,0.0,0.0,0.0,0.0,0.0,0.0,0.0,0.0,0.0,0.0,0.0,0.0,0.0,0.0,0.0,0.0,0.0,0.0,0.0,0.0,0.0,0.0,0.0,0.0,0.0,0.0,0.0,0.0,0.0,0.0,0.0,0.0,0.0,0.0,0.0,0.0,0.0,0.0,0.0,0.0,0.0,0.0,0.0,0.0,0.0,0.0,0.0,0.0,0.0,0.0,0.0,0.0,0.0,0.0,0.0,0.0,0.0,0.0,0.0,0.0,0.0,0.0,0.0,0.0,0.0,0.0,0.0,0.0,0.0,0.0,0.0,0.0,0.0,0.0,0.0,0.0,0.0,0.0,0.0,0.0,0.0,0.0,0.0,0.0,0.0,0.0,0.0,0.0,0.0,0.0,0.0,0.0,0.0,0.0,0.0,0.0,0.0,0.0,0.0,0.0,-2.3379,-2.3545,0.0,-2.3779,-2.3935,-2.3935,-2.4036,-2.4187,-2.4185,0.0,0.0,0.0,0.0,0.0,0.0,0.0,0.0,0.0,0.0,0.0,0.0,0.0,0.0,0.0,0.0,0.0,0.0,0.0,0.0,0.0,0.0,0.0,0.0,0.0,0.0,0.0,0.0,0.0,0.0,0.0,0.0,0.0,0.0,0.0,0.0,0.0,0.0,0.0,0.0,0.0,0.0,0.0,0.0,0.0,0.0,0.0,0.0,0.0,0.0,0.0,0.0,0.0,0.0,0.0,0.0,0.0,0.0,0.0,0.0,0.0,0.0,0.0,0.0,0.0,0.0,0.0,0.0,0.0,0.0,0.0,0.0,0.0,0.0,0.0,0.0,0.0,0.0,0.0,0.0,0.0,0.0,0.0,0.0,0.0,0.0,0.0,0.0,0.0,0.0,0.0,0.0,0.0,0.0,0.0,0.0,0.0,0.0,0.0,0.0,0.0,0.0,-2.3525,-2.3809,-2.3984,0.0,-2.4248,-2.4414,-2.4414,-2.4608,-2.4673,-2.4746,0.0,0.0,0.0,0.0,0.0,0.0,0.0,0.0,0.0,0.0,0.0,0.0,0.0,0.0,0.0,0.0,0.0,0.0,0.0,0.0,0.0,0.0,0.0,0.0,0.0,0.0,0.0,0.0,0.0,0.0,0.0,0.0,0.0,0.0,0.0,0.0,0.0,0.0,0.0,0.0,0.0,0.0,0.0,0.0,0.0,0.0,0.0,0.0,0.0,0.0,0.0,0.0,0.0,0.0,0.0,0.0,0.0,0.0,0.0,0.0,0.0,0.0,0.0,0.0,0.0,0.0,0.0,0.0,0.0,0.0,0.0,0.0,0.0,0.0,0.0,0.0,0.0,0.0,0.0,0.0,0.0,0.0,0.0,0.0,0.0,0.0,0.0,0.0,0.0,0.0,0.0,0.0,0.0,0.0,0.0,0.0,0.0,0.0,0.0,0.0,0.0,0.0,-2.4365,-2.4424,-2.4424,-2.4424,-2.4424,-2.4434,-2.4434,-2.4434,-2.4618,0.0,0.0,0.0,0.0,0.0,0.0,0.0,0.0,0.0,0.0,0.0,0.0,0.0,0.0,0.0,0.0,0.0,0.0,0.0,0.0,0.0,0.0,0.0,0.0,0.0,0.0,0.0,0.0,0.0,0.0,0.0,0.0,0.0,0.0,0.0,0.0,0.0,0.0,0.0,0.0,0.0,0.0,0.0,0.0,0.0,0.0,0.0,0.0,0.0,0.0,0.0,0.0,0.0,0.0,0.0,0.0,0.0,0.0,0.0,0.0,0.0,0.0,0.0,0.0,0.0,0.0,0.0,0.0,0.0,0.0,0.0,0.0,0.0,0.0,0.0,0.0,0.0,0.0,0.0,0.0,0.0,0.0,0.0,0.0,0.0,0.0,0.0,0.0,0.0,0.0,0.0,0.0,0.0,0.0,0.0,0.0,0.0,0.0,0.0,0.0,0.0,0.0,0.0,-2.4394,-2.4687,-2.4873,-2.4873,-2.5156,-2.5352,-2.5352,-2.5352,-2.531,-2.5361,0.0,0.0,0.0,0.0,0.0,0.0,0.0,0.0,0.0,0.0,0.0,0.0,0.0,0.0,0.0,0.0,0.0,0.0,0.0,0.0,0.0,0.0,0.0,0.0,0.0,0.0,0.0,0.0,0.0,0.0,0.0,0.0,0.0,0.0,0.0,0.0,0.0,0.0,0.0,0.0,0.0,0.0,0.0,0.0,0.0,0.0,0.0,0.0,0.0,0.0,0.0,0.0,0.0,0.0,0.0,0.0,0.0,0.0,0.0,0.0,0.0,0.0,0.0,0.0,0.0,0.0,0.0,0.0,0.0,0.0,0.0,0.0,0.0,0.0,0.0,0.0,0.0,0.0,0.0,0.0,0.0,0.0,0.0,0.0,0.0,0.0,0.0,0.0,0.0,0.0,0.0,0.0,0.0,0.0,0.0,0.0,0.0,0.0,0.0,0.0,0.0,0.0,-2.4922,-2.5166,-2.5332,-2.5332,-2.5576,-2.5742,-2.5742,-2.5742,-2.5712,-2.5714,0.0,0.0,0.0,0.0,0.0,0.0,0.0,0.0,0.0,0.0,0.0,0.0,0.0,0.0,0.0,0.0,0.0,0.0,0.0,0.0,0.0,0.0,0.0,0.0,0.0,0.0,0.0,0.0,0.0,0.0,0.0,0.0,0.0,0.0,0.0,0.0,0.0,0.0,0.0,0.0,0.0,0.0,0.0,0.0,0.0,0.0,0.0,0.0,0.0,0.0,0.0,0.0,0.0,0.0,0.0,0.0,0.0,0.0,0.0,0.0,0.0,0.0,0.0,0.0,0.0,0.0,0.0,0.0,0.0,0.0,0.0,0.0,0.0,0.0,0.0,0.0,0.0,0.0,0.0,0.0,0.0,0.0,0.0,0.0,0.0,0.0,0.0,0.0,0.0,0.0,0.0,0.0,0.0,0.0,0.0,0.0,0.0,0.0,0.0,0.0,0.0,0.0,-2.5684,-2.5742,-2.5742,-2.5742,-2.5742,-2.5742,-2.5742,-2.5742,-2.583,-2.6004,0.0,0.0,0.0,0.0,0.0,0.0,0.0,0.0,0.0,0.0,0.0,0.0,0.0,0.0,0.0,0.0,0.0,0.0,0.0,0.0,0.0,0.0,0.0,0.0,0.0,0.0,0.0,0.0,0.0,0.0,0.0,0.0,0.0,0.0,0.0,0.0,0.0,0.0,0.0,0.0,0.0,0.0,0.0,0.0,0.0,0.0,0.0,0.0,0.0,0.0,0.0,0.0,0.0,0.0,0.0,0.0,0.0,0.0,0.0,0.0,-1.9393,0.0,0.0,0.0,0.0,0.0,0.0,0.0,0.0,0.0,0.0,0.0,0.0,0.0,0.0,0.0,0.0,0.0,0.0,0.0,0.0,0.0,0.0,0.0,0.0,0.0,0.0,0.0,0.0,0.0,0.0,0.0,0.0,0.0,0.0,0.0,0.0,0.0,0.0,0.0,0.0,0.0,-2.5723,-2.5742,-2.5742,-2.5742,-2.5742,-2.5742,-2.5742,-2.5742,-2.5732,-2.5732,-2.6014,0.0,0.0,0.0,0.0,0.0,0.0,0.0,0.0,0.0,0.0,0.0,0.0,0.0,0.0,0.0,0.0,0.0,0.0,0.0,0.0,0.0,0.0,0.0,0.0,0.0,0.0,0.0,0.0,0.0,0.0,0.0,0.0,0.0,0.0,0.0,0.0,0.0,0.0,0.0,0.0,0.0,0.0,0.0,0.0,0.0,0.0,0.0,0.0,0.0,0.0,0.0,0.0,0.0,0.0,0.0,0.0,0.0,0.0,0.0,0.0,-1.9573,0.0,0.0,0.0,0.0,0.0,0.0,0.0,0.0,0.0,0.0,0.0,0.0,0.0,0.0,0.0,0.0,0.0,0.0,0.0,0.0,0.0,0.0,0.0,0.0,0.0,0.0,0.0,0.0,0.0,0.0,0.0,0.0,0.0,0.0,0.0,0.0,0.0,0.0,0.0,0.0,-2.5742,-2.5742,-2.5742,-2.5742,-2.5742,-2.5742,-2.5742,-2.5742,-2.5742,-2.5742,-2.5917,0.0,0.0,0.0,0.0,0.0,0.0,0.0,0.0,0.0,0.0,0.0,0.0,0.0,0.0,0.0,0.0,0.0,0.0,0.0,0.0,0.0,0.0,0.0,0.0,0.0,0.0,0.0,0.0,0.0,0.0,0.0,0.0,0.0,0.0,0.0,0.0,0.0,0.0,0.0,0.0,0.0,0.0,0.0,0.0,0.0,0.0,0.0,0.0,0.0,0.0,0.0,0.0,0.0,-1.8779,-1.8875,-1.9165,-1.9165,-1.9003,-1.8666,-1.8718,-1.8684,-1.853,-2.0052,0.0,0.0,0.0,0.0,0.0,0.0,0.0,0.0,0.0,0.0,0.0,0.0,0.0,0.0,0.0,0.0,0.0,0.0,0.0,0.0,0.0,0.0,0.0,0.0,-2.4648,-2.4648,-2.4648,0.0,0.0,0.0,0.0,0.0,0.0,0.0,0.0,0.0,0.0,0.0,-2.5742,-2.5742,-2.5742,-2.5742,-2.5742,-2.5742,-2.5742,-2.5742,-2.5742,-2.5742,-2.5917,-2.6004,0.0,0.0,0.0,0.0,0.0,0.0,0.0,0.0,0.0,0.0,0.0,0.0,0.0,0.0,0.0,0.0,0.0,0.0,0.0,0.0,0.0,0.0,0.0,0.0,0.0,0.0,0.0,0.0,0.0,0.0,0.0,0.0,-1.9219,-1.9277,0.0,0.0,0.0,0.0,0.0,0.0,0.0,0.0,0.0,0.0,0.0,0.0,0.0,-1.9934,-1.905,-1.8498,-1.8297,-1.8305,-1.7789,-1.7587,-1.7632,-1.7632,-1.7717,-1.7934,-1.794,0.0,-1.8716,-1.8991,0.0,0.0,0.0,0.0,0.0,0.0,0.0,0.0,0.0,0.0,0.0,0.0,0.0,0.0,0.0,0.0,0.0,0.0,0.0,0.0,0.0,0.0,-2.5566,-2.5566,-2.5566,-2.5566,0.0,-2.5254,-2.5117,-2.5566,-2.5644,0.0,0.0,0.0,0.0,0.0,0.0,0.0,-2.5742,-2.5742,-2.5742,-2.5742,-2.5742,-2.5742,-2.5742,-2.5742,-2.5742,-2.5742,-2.5732,-2.582,-2.61,-2.6091,0.0,0.0,0.0,0.0,0.0,0.0,0.0,0.0,0.0,0.0,0.0,0.0,0.0,0.0,0.0,0.0,0.0,0.0,0.0,0.0,0.0,0.0,0.0,0.0,0.0,0.0,0.0,0.0,0.0,-1.9521,-1.9727,-1.998,-2.0166,-2.0381,0.0,0.0,0.0,0.0,0.0,0.0,0.0,0.0,0.0,-1.9955,-1.9964,-1.9363,-1.8065,-1.7964,-1.7946,-1.7953,-1.7912,-1.7874,-1.7874,-1.7874,-1.7955,-1.8086,-1.8086,-1.8297,-1.8533,-1.9106,-1.9947,-2.0933,0.0,0.0,0.0,0.0,-2.1942,-2.1873,-2.161,-2.2268,-2.3272,-2.3492,0.0,0.0,0.0,0.0,0.0,0.0,0.0,0.0,0.0,0.0,-2.5742,-2.5742,-2.5742,-2.5742,-2.5742,-2.5586,-2.5508,0.0,-2.5742,-2.5742,-2.5742,0.0,0.0,0.0,0.0,-2.5742,-2.5742,-2.5742,-2.5742,-2.5742,-2.5742,-2.5742,-2.5742,-2.5742,-2.5742,-2.5742,-2.5742,-2.5732,-2.5917,-2.6004,-2.6197,0.0,0.0,0.0,0.0,0.0,0.0,0.0,0.0,0.0,0.0,0.0,0.0,0.0,0.0,0.0,0.0,0.0,0.0,0.0,0.0,0.0,0.0,0.0,0.0,0.0,0.0,0.0,0.0,-2.0176,-2.0371,-2.0693,-2.083,-2.1035,0.0,0.0,0.0,0.0,0.0,0.0,-2.2041,-2.1184,-2.0461,-1.9869,-1.9608,-1.8883,-1.7574,-1.7816,-1.794,-1.794,-1.8182,-1.8299,-1.8299,-1.8299,-1.835,-1.843,-1.843,-1.8474,-1.864,-1.9147,-1.9607,-1.9979,-2.0743,-2.1189,-2.1459,-2.1176,-2.1078,-2.112,-2.1197,-2.1982,-2.2912,-2.3196,-2.4205,-2.5323,-2.5635,0.0,0.0,0.0,0.0,-2.5742,-2.5742,-2.5742,-2.5742,-2.5742,-2.5742,-2.5742,-2.5742,-2.5742,-2.5742,0.0,-2.5742,-2.5742,-2.5742,0.0,0.0,0.0,0.0,-2.5742,-2.5742,-2.5742,-2.5742,-2.5742,-2.5742,-2.5742,-2.5742,-2.5742,-2.5742,-2.5742,-2.5742,-2.5742,-2.5742,-2.5917,-2.6091,-2.6197,0.0,0.0,0.0,0.0,0.0,0.0,0.0,0.0,0.0,0.0,0.0,0.0,0.0,0.0,0.0,0.0,0.0,0.0,0.0,0.0,0.0,0.0,0.0,0.0,0.0,0.0,0.0,0.0,0.0,-2.1201,-2.1562,0.0,0.0,0.0,0.0,-2.1885,-2.2172,-2.2395,-2.248,-2.1964,-2.1365,-2.0644,-1.9821,-1.8962,-1.8255,-1.8269,-1.8277,-1.8277,-1.8291,-1.8299,-1.8299,-1.8299,-1.8474,-1.8767,-1.8767,-1.8942,-1.9177,-1.8655,-1.9155,-2.0329,-2.0428,-2.1229,-2.2332,-2.133,-2.0931,-2.0735,-1.9746,-2.0158,-2.1065,-2.1081,-2.2484,-2.4393,-2.543,-2.5742,0.0,0.0,-2.5742,-2.5742,-2.5742,-2.5742,-2.5742,-2.5742,-2.5742,-2.5742,-2.5742,-2.5742,-2.5742,0.0,-2.5742,-2.5742,-2.5742,0.0,-2.5742,-2.5742,-2.5742,-2.5742,-2.5742,-2.5742,-2.5742,-2.5742,-2.5742,-2.5742,-2.5742,-2.5742,-2.5742,-2.5742,-2.5742,-2.5742,-2.5742,-2.5917,-2.6197,-2.6496,-2.6699,0.0,0.0,0.0,0.0,0.0,0.0,0.0,0.0,0.0,0.0,0.0,0.0,0.0,0.0,0.0,0.0,0.0,0.0,0.0,0.0,0.0,0.0,0.0,0.0,0.0,0.0,0.0,0.0,-2.165,-2.1787,0.0,-2.2266,-2.2295,-2.2402,-2.2676,-2.2454,-2.2682,-2.333,-2.2163,-2.1404,-2.1165,-2.0134,-1.9241,-1.8299,-1.8511,-1.8613,-1.8621,-1.8833,-1.8928,-1.8928,-1.8928,-1.8994,-1.9103,-1.9103,-1.9169,-1.9257,-1.9023,-1.9191,-1.9706,-1.9706,-1.9979,-2.038,-1.9975,-1.9879,-1.9776,-1.948,-1.9838,-2.0644,-2.1337,-2.2287,-2.3294,-2.4304,-2.4707,-2.4815,-2.5528,-2.5742,-2.5742,-2.5742,-2.5742,-2.5742,-2.5742,-2.5742,-2.5742,-2.5742,-2.5742,-2.5742,-2.5742,-2.5742,-2.5742,-2.5742,-2.5742,-2.5742,-2.5742,-2.5742,-2.5742,-2.5742,-2.5742,-2.5742,-2.5742,-2.5742,-2.5742,-2.5742,-2.5742,-2.5742,-2.5742,-2.5742,-2.543,-2.4707,-2.4796,-2.4894,-2.5197,-2.5294,-2.5887,0.0,0.0,0.0,0.0,0.0,0.0,0.0,0.0,0.0,0.0,0.0,0.0,0.0,0.0,0.0,0.0,0.0,0.0,0.0,0.0,0.0,0.0,0.0,0.0,0.0,0.0,-2.21,-2.21,-2.2217,-2.2471,-2.29,-2.2939,-2.3115,-2.3545,-2.3176,-2.3145,-2.3438,-2.2187,-2.1239,-2.0978,-2.0019,-1.9201,-1.8628,-1.8847,-1.895,-1.8957,-1.9177,-1.9279,-1.9279,-1.9279,-1.9279,-1.9279,-1.9279,-1.9279,-1.9279,-1.9279,-1.9279,-1.9279,-1.9279,-1.9279,-1.9264,-1.9155,-1.9184,-1.9279,-1.9279,-1.9633,-2.0241,-2.1321,-2.1979,-2.2584,-2.3384,-2.3791,-2.4187,-2.451,-2.4922,-2.5156,-2.5309,-2.5653,-2.5986,-2.6133,-2.6172,-2.6172,-2.6172,-2.6172,-2.6172,-2.6172,-2.5937,-2.5742,-2.5742,-2.5859,-2.5957,-2.6045,-2.6074,-2.6162,-2.6261,-2.6162,-2.6172,-2.6172,-2.6172,-2.6172,-2.6172,-2.6172,-2.6172,-2.6172,-2.6172,-2.5855,-2.512,-2.5211,-2.541,-2.5618,-2.5662,-2.5928,-2.6496,0.0,0.0,0.0,0.0,0.0,0.0,0.0,0.0,0.0,0.0,0.0,0.0,0.0,0.0,0.0,0.0,0.0,0.0,0.0,0.0,0.0,0.0,0.0,-2.1963,-2.2266,-2.2539,-2.2549,-2.291,-2.333,-2.3769,-2.3809,-2.3984,-2.4293,-2.4331,-2.3961,-2.2914,-2.1873,-2.1084,-2.0269,-1.9295,-1.8957,-1.9272,-1.9279,-1.9279,-1.9279,-1.9279,-1.9279,-1.9279,-1.9279,-1.9279,-1.9279,-1.9279,-1.9279,-1.9294,-1.9294,-1.9294,-1.9301,-1.9294,-1.9294,-1.9257,-1.895,-1.9038,-1.9301,-1.9294,-1.9294,-1.9509,-2.0506,-2.1615,-2.2417,-2.2417,-2.322,-2.3827,-2.282,-2.3329,-2.4225,-2.4647,-2.5484,-2.6404,-2.6812,-2.691,-2.691,-2.7012,-2.7012,-2.7012,-2.7012,-2.6348,-2.5781,-2.5781,-2.6133,-2.6506,-2.6784,-2.695,0.0,-2.7389,-2.7206,-2.7012,-2.7012,-2.7012,-2.7012,-2.7012,-2.7012,-2.7012,-2.7012,-2.691,-2.691,-2.691,-2.7409,-2.7713,-2.7713,-2.7778,-2.7134,-2.5635,0.0,0.0,0.0,0.0,0.0,0.0,0.0,0.0,0.0,0.0,0.0,0.0,0.0,0.0,0.0,0.0,0.0,0.0,0.0,0.0,0.0,0.0,-2.2822,-2.2402,-2.2705,-2.3086,-2.3398,-2.3535,-2.3779,-2.4199,-2.4248,-2.4002,-2.3271,-2.355,-2.3623,-2.3336,-2.1833,-2.1336,-2.1829,-2.0146,-1.9184,-1.9279,-1.9279,-1.9279,-1.9279,-1.9279,-1.9279,-1.9279,-1.9279,-1.9279,-1.9279,-1.9279,-1.9411,-1.963,-1.963,-1.9762,-1.9945,-1.9718,-1.963,-1.9645,-1.9791,-1.9894,-1.9938,-1.9711,-1.9777,-1.993,-2.0121,-2.0408,-2.1017,-2.1746,-2.216,-2.2573,-2.3105,-2.3418,-2.3644,-2.387,-2.4105,-2.4548,-2.5487,-2.5722,-2.5928,-2.6798,-2.7012,-2.7012,-2.7012,-2.6826,-2.667,-2.667,-2.6758,-2.6846,-2.6937,-2.6934,0.0,-2.7104,-2.7012,-2.7012,-2.7012,-2.7012,-2.7012,-2.7012,-2.7012,-2.7012,-2.7012,-2.6153,-2.5731,-2.5853,-2.509,-2.4977,-2.5411,-2.6521,-2.6517,0.0,0.0,0.0,0.0,0.0,0.0,0.0,0.0,0.0,0.0,0.0,0.0,0.0,0.0,0.0,0.0,0.0,0.0,0.0,0.0,0.0,0.0,-2.3252,-2.3389,-2.332,-2.3369,-2.3574,-2.4004,-2.4053,-2.4219,-2.4648,-2.4304,-2.3796,-2.3382,-2.3223,-2.2858,-2.2464,-2.1476,-2.0987,-2.1183,-1.9983,-1.9279,-1.9279,-1.9279,-1.9279,-1.9279,-1.9279,-1.9279,-1.9279,-1.9418,-1.9477,-1.9484,-1.9623,-1.9784,-1.9959,-1.9959,-2.0069,0.0,0.0,0.0,0.0,0.0,-2.015,-2.0033,-1.9981,-2.0084,-2.0201,-2.0018,-2.0401,-2.0869,-2.1078,-2.1395,-2.1818,-2.2033,-2.2461,-2.2815,-2.3071,-2.3426,-2.411,-2.5448,-2.5697,-2.5918,-2.6683,-2.6798,-2.6798,-2.6798,-2.6798,0.0,-2.7445,-2.7402,-2.7285,-2.7481,-2.7535,-2.7549,-2.7663,-2.7653,-2.7549,-2.7549,-2.7549,-2.7331,-2.6798,-2.6798,0.0,0.0,0.0,-2.5812,-2.6023,-2.4943,0.0,0.0,0.0,-2.5663,-2.4473,0.0,0.0,0.0,-2.7239,-2.7249,0.0,0.0,0.0,0.0,0.0,0.0,0.0,0.0,0.0,0.0,0.0,0.0,0.0,0.0,0.0,0.0,-2.3857,-2.4004,-2.4434,-2.417,-2.4072,-2.4443,-2.4492,-2.4668,-2.5098,-2.4162,-2.3712,-2.3863,-2.2894,-2.1887,-2.0987,0.0,0.0,0.0,0.0,-1.9279,-1.9279,-1.9316,-1.933,-1.933,-1.9367,-1.9381,-1.9389,-1.9681,-1.982,-1.9835,-2.0113,-2.0259,-2.0296,-2.0296,-2.0311,-2.034,-2.0303,-2.0311,-2.0347,-2.0347,-2.0164,-1.9967,-2.0245,0.0,0.0,-2.0347,-2.0982,-2.1511,-2.0559,-2.0982,-2.1511,-2.0559,-2.0982,-2.1791,-2.2214,-2.3047,-2.4216,-2.5773,-2.6082,-2.6191,-2.63,-2.63,-2.63,-2.63,-2.6409,-2.6744,-2.7736,-2.7863,-2.7839,-2.8133,-2.8259,-2.8408,-2.8621,-2.8408,-2.8291,-2.8291,0.0,0.0,-2.6636,-2.6527,-2.6418,-2.63,-2.63,-2.64,-2.649,-2.5617,-2.481,-2.3829,-2.4779,-2.472,-2.3776,-2.5748,-2.6782,-2.6875,-2.6992,-2.7055,0.0,0.0,0.0,0.0,0.0,0.0,0.0,0.0,0.0,0.0,0.0,0.0,0.0,0.0,0.0,-2.4228,-2.4297,-2.4443,-2.4883,-2.4873,-2.4853,-2.4932,-2.4941,-2.5117,-2.5566,-2.4585,-2.361,-2.2885,-2.1785,-2.1081,-2.0885,-2.0078,-1.9879,-2.0585,-1.9776,-1.9279,-1.9279,-1.9535,-1.9667,-1.9674,0.0,0.0,-2.0055,-2.0113,-2.0142,-2.015,-2.0208,-2.0384,-2.0625,-2.0625,-2.0786,-2.0998,-2.0728,-2.0786,-2.102,-2.102,-2.0984,-2.094,-2.0998,-2.102,-2.102,-2.102,-2.1134,-2.124,-2.102,-2.1126,0.0,-2.102,-2.1126,-2.1368,-2.1427,-2.1556,-2.2122,-2.3407,-2.364,-2.3975,-2.4846,-2.5067,-2.5067,-2.5067,-2.5854,-2.63,-2.5507,-2.6995,-2.8164,-2.827,-2.8232,-2.8291,-2.8398,-2.8291,-2.8291,-2.8291,-2.8291,-2.7843,-2.6636,-2.6527,-2.6073,-2.5067,-2.5067,-2.4625,-2.3743,-2.4744,-2.4829,-2.3883,-2.4318,-2.4505,-2.4556,-2.4994,-2.563,-2.6556,-2.7687,-2.8297,0.0,0.0,0.0,0.0,0.0,0.0,0.0,0.0,0.0,0.0,0.0,-2.4057,0.0,0.0,-2.4431,-2.4678,-2.4746,-2.4893,-2.5342,-2.54,-2.54,-2.54,-2.54,-2.5286,-2.4894,-2.3899,-2.2885,-2.1785,-2.0688,-2.0078,-2.0078,-1.9576,-1.9658,-2.033,-1.9829,-1.9594,-1.9755,-1.9916,-1.9996,-2.0003,-2.0164,-2.0237,-2.0237,-2.0406,-2.0479,-2.0486,-2.0655,-2.0815,-2.0969,-2.0969,-2.1064,-2.1196,-2.1035,-2.1064,-2.1211,-2.1211,-2.1211,-2.1211,-2.1211,-2.1211,-2.1211,-2.1211,-2.1211,-2.1211,-2.1211,-2.1211,-2.1211,-2.1211,-2.1211,-2.1211,-2.1211,-2.1211,-2.1546,-2.2757,-2.2974,-2.3199,-2.3743,-2.3855,-2.3904,-2.4086,-2.4578,-2.5095,-2.5153,-2.6202,-2.6929,-2.6728,-2.6865,-2.7002,-2.7002,-2.7576,-2.7918,-2.7918,-2.8588,-2.8478,-2.7234,-2.6556,-2.5648,-2.4391,-2.4277,-2.4057,-2.3499,-2.3721,-2.3852,-2.353,-2.3576,-2.3829,-2.4177,-2.4538,-2.5423,-2.658,-2.7793,-2.8438,0.0,0.0,0.0,0.0,0.0,0.0,0.0,0.0,-2.4155,-2.4242,-2.451,-2.4745,-2.4656,-2.4784,-2.4977,-2.5222,-2.5195,-2.5322,-2.5684,-2.5742,-2.5742,-2.5742,-2.5528,-2.502,-2.4187,-2.2985,-2.1785,-2.0987,-1.994,-1.9367,-1.9367,-1.9425,-1.9579,-1.9842,-1.9857,-1.9974,-2.023,-2.0303,-2.0333,-2.0333,-2.0391,-2.0428,-2.0435,-2.0698,-2.0815,-2.083,-2.1094,-2.1211,-2.1211,-2.1211,-2.1211,-2.1211,-2.1211,-2.1211,-2.1211,-2.1211,-2.1211,-2.1211,-2.1211,-2.1211,-2.1211,-2.1211,-2.1211,-2.1211,-2.1211,-2.1211,-2.1211,-2.1211,-2.1211,-2.1211,-2.1211,-2.1211,-2.1447,-2.2511,-2.2753,-2.2769,-2.2839,-2.2847,-2.2933,-2.3215,-2.3378,-2.3921,-2.4895,-2.5227,-2.5385,-2.5341,-2.5545,-2.5741,-2.5741,-2.6566,-2.7254,-2.7254,-2.8182,-2.8295,-2.714,-2.5866,-2.4711,-2.3677,-2.3559,-2.3559,-2.3559,-2.2982,-2.2759,-2.3012,-2.3091,-2.3293,-2.3865,-2.4582,-2.5532,-2.6719,-2.7602,-2.8281,-2.2959,-2.3434,0.0,-2.3222,-2.3144,-2.3232,0.0,0.0,-2.3989,-2.4345,-2.4415,-2.4647,-2.5218,-2.5149,-2.5241,-2.5586,-2.5664,-2.5684,-2.5732,-2.5742,-2.5742,-2.5742,-2.4815,-2.4196,-2.4088,-2.2291,-2.0987,-2.0885,-2.0159,-1.9711,-1.9711,-1.9974,-2.0142,-2.0179,-2.0186,-2.0201,-2.0237,-2.0523,-2.0669,-2.0669,-2.0962,-2.1101,-2.1101,-2.1137,-2.1159,-2.1159,-2.1196,-2.1211,-2.1211,-2.1211,-2.1211,-2.1211,-2.1211,-2.1211,-2.1211,-2.1211,-2.1211,-2.1211,-2.1211,-2.1211,-2.1211,-2.1211,-2.1211,-2.1211,-2.1211,-2.1211,-2.1211,-2.1211,-2.1211,-2.1211,-2.1211,-2.1211,-2.1284,-2.1686,-2.1868,-2.195,-2.2246,-2.2305,-2.232,-2.2356,-2.3158,-2.363,-2.2751,-2.3704,-2.4833,-2.5509,-2.5716,-2.5741,-2.5741,-2.5857,-2.5866,-2.5866,-2.6088,-2.5634,-2.4485,-2.3338,-2.2528,-2.2416,-2.2416,-2.2416,-2.2416,-2.2296,-2.2416,-2.2647,-2.2951,-2.3732,-2.5111,-2.5541,-2.632,-2.7337,-2.7563,-2.8406,-2.2911,0.0,0.0,0.0,-2.3604,-2.3752,-2.4008,-2.4295,-2.4615,-2.4615,-2.4861,-2.5031,-2.5303,-2.5464,-2.5518,0.0,-2.5742,-2.5742,-2.5742,-2.5742,-2.5742,-2.5742,-2.4205,-2.3384,-2.4088,-2.2892,-2.1903,-2.1187,-2.0476,-2.004,-2.004,-2.0164,-2.0318,-2.0508,-2.0523,-2.0611,-2.0801,-2.094,-2.1006,-2.1006,-2.1145,-2.1211,-2.1211,-2.1211,-2.1211,-2.1211,-2.1211,-2.1211,-2.1211,-2.1211,-2.1211,-2.1211,-2.1211,-2.1211,-2.1211,-2.1211,-2.1211,-2.1211,-2.1211,-2.1211,-2.1211,-2.1211,-2.1211,-2.1247,-2.1437,-2.1496,-2.1533,-2.1723,-2.1774,-2.1774,-2.1774,-2.1774,-2.1811,-2.195,-2.1979,-2.2015,-2.2154,-2.2184,-2.2235,-2.2403,-2.2788,-2.3082,-2.2804,-2.3189,-2.3825,-2.4159,-2.4135,-2.4135,-2.4135,-2.486,-2.558,-2.6415,-2.6415,-2.5938,-2.4747,-2.4159,-2.3566,-2.2725,-2.2725,-2.2725,-2.2725,-2.2963,-2.3093,-2.3208,-2.3369,-2.3743,-2.4563,-2.4496,-2.5202,-2.6558,-2.6558,-2.7291,-2.296,0.0,0.0,-2.3711,-2.3967,-2.4215,-2.4438,-2.4789,-2.5063,-2.497,-2.5224,-2.5435,-2.5435,-2.5614,-2.5742,-2.5742,-2.5742,-2.5635,-2.5323,-2.5226,-2.5128,-2.4824,-2.35,-2.295,-2.3754,-2.2792,-2.186,-2.1137,-2.0614,-2.0369,-2.0369,-2.0457,-2.0611,-2.0852,-2.0859,-2.0969,-2.1203,-2.1211,-2.1211,-2.1211,-2.1211,-2.1211,-2.1211,-2.1211,-2.1211,-2.1211,-2.1211,-2.1211,-2.1211,-2.1211,-2.1211,-2.1218,-2.1306,-2.1342,-2.1357,-2.1445,-2.1364,-2.1218,-2.1313,-2.1342,-2.1357,-2.1452,-2.1481,-2.1525,-2.1759,-2.1832,-2.1876,-2.2118,-2.2184,-2.2184,-2.2184,-2.2184,-2.2206,-2.2286,-2.2301,-2.233,-2.2418,-2.244,-2.2498,-2.2718,-2.2754,-2.2835,-2.3069,-2.3106,-2.3106,-2.3106,-2.3106,-2.3106,-2.3106,-2.3969,-2.4949,-2.5798,-2.592,-2.5554,-2.4579,-2.4579,-2.4085,-2.3106,-2.3106,-2.3106,-2.3106,-2.3362,-2.3487,-2.3487,-2.3495,-2.3741,-2.3985,-2.3875,-2.446,-2.5494,-2.5612,-2.6082,0.0,0.0,-2.3769,-2.3789,-2.4092,-2.4496,-2.47,-2.4933,-2.5143,-2.5322,-2.5592,-2.5713,-2.5713,-2.5732,-2.5742,-2.5742,-2.5742,-2.5323,-2.4295,-2.4187,-2.3791,-2.2685,-2.2818,-2.304,0.0,-2.1094,-1.9994,-2.0194,-2.0523,-2.0706,-2.0706,-2.1006,-2.1181,-2.1196,-2.1196,-2.1203,-2.1211,-2.1211,-2.1211,-2.1211,-2.1211,-2.1211,-2.1211,-2.1211,-2.1211,-2.1211,-2.1211,-2.1211,-2.1211,-2.1211,-2.1211,-2.124,-2.1562,-2.1679,-2.1723,-2.2037,-2.1752,-2.1254,-2.1569,-2.1679,-2.173,-2.2052,-2.2154,-2.2154,-2.2169,-2.2169,-2.2169,-2.2184,-2.2184,-2.2184,-2.2184,-2.2184,-2.2257,-2.2542,-2.2608,-2.2696,-2.301,-2.3084,-2.3084,-2.3091,-2.3091,-2.3098,-2.3106,-2.3106,-2.3106,-2.3106,-2.3106,-2.3106,-2.3106,-2.3106,-2.3238,-2.323,-2.323,-2.323,-2.3106,-2.3106,-2.3106,-2.3106,-2.3106,-2.3106,-2.3106,-2.3113,-2.3106,-2.3106,-2.3472,-2.3596,-2.3596,-2.4209,-2.4579,-2.4695,-2.4949,-2.5194,-2.274,0.0,-2.4084,-2.3702,-2.4258,-2.4724,-2.4411,-2.49,-2.5305,-2.4685,-2.512,-2.5742,-2.5742,-2.5742,-2.5742,-2.5742,-2.5118,-2.4501,-2.4187,-2.3493,-2.299,-2.2835,-2.2258,0.0,0.0,0.0,0.0,-2.1626,-2.1182,-2.105,-2.105,-2.1152,-2.1211,-2.1211,-2.1211,-2.1211,-2.1211,-2.1211,-2.1211,-2.1211,-2.1211,-2.1211,-2.1211,-2.1211,-2.1211,-2.1211,-2.1211,-2.1211,-2.1225,-2.1445,-2.1533,-2.1569,-2.1891,-2.2023,-2.2037,-2.214,-2.2045,-2.1869,-2.1979,-2.2023,-2.2037,-2.2147,-2.2184,-2.222,-2.2418,-2.2476,-2.252,-2.274,-2.2798,-2.2798,-2.2798,-2.2798,-2.282,-2.2923,-2.2945,-2.2974,-2.3084,-2.3106,-2.3106,-2.3106,-2.3106,-2.3106,-2.3106,-2.3106,-2.3106,-2.3106,-2.3106,-2.3106,-2.3106,-2.3106,-2.3106,-2.3106,-2.3106,-2.3106,-2.3106,-2.3106,-2.3106,-2.3106,-2.3106,-2.3106,-2.3106,-2.3106,-2.3106,-2.3106,-2.3238,-2.3362,-2.3611,-2.386,-2.4108,-2.4232,-2.461,-2.4734,-2.2104,-2.2617,-2.3361,-2.3042,-2.3505,-2.4078,-2.3628,-2.4402,-2.4913,-2.4196,-2.4913,-2.5742,-2.5742,-2.5742,-2.5528,-2.5216,-2.4501,-2.3791,-2.3085,-2.2391,-2.1926,-2.1884,-2.1309,-2.1187,0.0,0.0,0.0,-2.1877,-2.142,-2.1211,-2.1211,-2.1211,-2.1211,-2.1211,-2.1211,-2.1211,-2.1211,-2.1211,-2.1211,-2.1211,-2.1211,-2.1211,-2.1211,-2.1211,-2.1211,-2.1218,-2.1335,-2.1386,-2.1408,-2.1737,-2.1869,-2.1906,-2.222,-2.2337,-2.2352,-2.2476,-2.2513,-2.2498,-2.2381,-2.2337,-2.2359,-2.2476,-2.2513,-2.255,-2.274,-2.2798,-2.2842,-2.3047,-2.3106,-2.3106,-2.3106,-2.3106,-2.3106,-2.3106,-2.3106,-2.3106,-2.3106,-2.3106,-2.3106,-2.3106,-2.3106,-2.3106,-2.3106,-2.3106,-2.3106,-2.3106,-2.3106,-2.3106,-2.3106,-2.3106,-2.3106,-2.3106,-2.3106,-2.3106,-2.3106,-2.3106,-2.3106,-2.3106,-2.3106,-2.3106,-2.3106,-2.3106,-2.3106,-2.3106,-2.3106,-2.3238,-2.3355,-2.3479,-2.3736,-2.3984,-2.4232,-2.4355,-2.1293,-2.1485,-2.197,-2.1872,-2.2227,-2.2492,-2.2383,-2.3294,-2.3989,-2.3989,-2.4815,-2.5635,0.0,0.0,-2.5323,-2.4295,-2.3989,-2.3194,-2.1183,-2.0885,-2.0615,0.0,0.0,0.0,0.0,0.0,0.0,-2.1211,0.0,-2.1211,-2.1211,-2.1211,-2.1211,-2.1211,-2.1211,-2.1211,-2.1211,-2.1211,-2.1211,-2.1211,-2.1211,-2.1218,-2.1233,-2.1233,-2.124,-2.1276,-2.1591,-2.1723,-2.1745,-2.2074,-2.2206,-2.2235,-2.2528,-2.2645,-2.2681,-2.2996,-2.3106,-2.3062,-2.2754,-2.2645,-2.2696,-2.301,-2.3106,-2.3106,-2.3106,-2.3106,-2.3106,-2.3106,-2.3106,-2.3106,-2.3106,-2.3106,-2.3106,-2.3106,-2.3106,-2.3106,-2.3106,-2.3106,-2.3106,-2.3106,-2.3106,-2.3106,-2.3106,-2.3106,-2.3106,-2.3106,-2.3106,-2.3106,-2.3106,-2.3106,-2.3106,-2.3106,-2.3106,-2.3106,-2.3106,-2.3106,-2.3106,-2.3106,-2.3106,-2.3106,-2.3106,-2.3106,-2.3106,-2.3106,-2.3106,-2.3106,-2.3106,-2.3355,-2.3611,-2.3611,-2.386,-2.4108,-2.0614,-2.1371,-2.2155,-2.135,-2.182,-2.2282,-2.1481,-2.219,-2.2685,-2.1887,-2.3194,-2.4501,0.0,0.0,0.0,-2.4187,-2.2785,0.0,-2.0987,-2.0181,0.0,-2.0047,0.0,-2.0457,-2.1035,-2.1159,0.0,0.0,-2.1211,-2.1211,-2.1211,-2.1211,-2.1211,-2.1211,-2.1211,-2.1211,-2.1211,-2.1211,-2.1211,-2.1211,-2.1211,-2.1335,-2.1569,-2.1569,-2.1708,-2.1942,-2.2023,-2.2059,-2.2081,-2.2389,-2.2513,-2.2542,-2.2864,-2.2981,-2.2996,-2.3076,-2.3106,-2.3098,-2.3018,-2.2981,-2.3003,-2.3084,-2.3106,-2.3106,-2.3106,-2.3106,-2.3106,-2.3106,-2.3106,-2.3106,-2.3106,-2.3106,-2.3106,-2.3106,-2.3106,-2.3106,-2.3106,-2.3106,-2.3106,-2.3106,-2.3106,-2.3106,-2.3106,-2.3106,-2.3106,-2.3106,-2.3106,-2.3106,-2.3106,-2.3106,-2.3106,-2.3106,-2.3106,-2.3106,-2.3106,-2.3106,-2.3106,-2.3106,-2.3106,-2.3106,-2.3106,-2.3106,-2.3106,-2.3106,-2.3106,-2.3106,-2.3106,-2.3238,-2.3238,-2.3238,-2.3611,-2.3736,-2.0,-2.0437,-2.0987,-2.0388,-2.068,-2.0987,-2.0388,-2.0987,-2.1785,-2.1591,-2.2885,0.0,0.0,0.0,0.0,0.0,0.0,0.0,-2.0285,-1.968,-1.9513,0.0,-2.0237,0.0,-2.1145,-2.1211,-2.1211,0.0,-2.1211,-2.1211,-2.1211,-2.1211,-2.1211,-2.1211,-2.1211,-2.1211,-2.1211,-2.1211,-2.1284,-2.1423,-2.1423,-2.1598,-2.1913,-2.1913,-2.2008,-2.2191,0.0,-2.2374,-2.2396,-2.271,-2.2835,-2.2857,-2.304,-2.3106,-2.3106,-2.3106,-2.3106,-2.3106,-2.3106,-2.3106,-2.3106,-2.3106,-2.3106,-2.3106,-2.3106,-2.3106,-2.3106,-2.3106,-2.3106,-2.3106,-2.3106,-2.3106,-2.3106,-2.3106,-2.3106,-2.3106,-2.3106,-2.3106,-2.3106,-2.3106,-2.3106,-2.3106,-2.3106,-2.3106,-2.3106,-2.3106,-2.3106,-2.3106,-2.3106,-2.3106,-2.3106,-2.3106,-2.3106,-2.3106,-2.3106,-2.3106,-2.3106,-2.3106,-2.3106,-2.3106,-2.3106,-2.3106,-2.3106,-2.3106,-2.3106,-2.3106,-2.3106,-2.3106,-2.3106,-2.3106,-2.323,-2.3362,-1.9384,-1.9279,-1.9279,-1.9279,-1.9279,-1.9279,-1.9279,-1.9983,-2.0979,-2.2089,0.0,-2.389,-2.389,-2.389,-2.3185,-2.1183,0.0,-2.038,-1.948,-1.9279,-1.9513,-2.0157,-2.0237,-2.0494,-2.1145,-2.1211,-2.1211,-2.1211,-2.1211,-2.1211,-2.1211,-2.1211,-2.1211,-2.1211,-2.1211,-2.1211,-2.1211,-2.1254,-2.1415,-2.1693,-2.1745,-2.1935,-2.2242,-2.2242,-2.2264,-2.2323,-2.2579,-2.2689,-2.271,-2.2988,-2.3106,-2.3106,-2.3106,-2.3106,-2.3106,-2.3106,-2.3106,-2.3106,-2.3106,-2.3106,-2.3106,-2.3106,-2.3106,-2.3106,-2.3106,-2.3106,-2.3106,-2.3106,-2.3106,-2.3106,-2.3106,-2.3106,-2.3106,-2.3106,-2.3106,-2.3106,-2.3106,-2.3106,-2.3106,-2.3106,-2.3106,-2.3106,-2.3106,-2.3106,-2.3106,-2.3106,-2.3106,-2.3106,-2.3106,-2.3106,-2.3106,-2.3106,-2.3106,-2.3106,-2.3106,-2.3106,-2.3128,-2.3171,-2.3171,-2.3193,-2.3237,-2.3237,-2.3237,-2.3237,-2.3237,-2.3237,-2.3237,-2.3237,-2.3237,-2.3237,-2.3237,-2.3237,-1.9287,-1.9279,-1.9279,-1.9279,-1.9279,-1.9279,-1.9279,-1.948,0.0,0.0,0.0,-2.2785,-2.2785,-2.2785,0.0,-2.1081,0.0,0.0,0.0,0.0,-1.9513,0.0,0.0,0.0,0.0,0.0,0.0,0.0,0.0,-2.1211,-2.1211,-2.1211,-2.1211,-2.1211,-2.1211,-2.1211,-2.1211,-2.1474,-2.1642,-2.1701,-2.1972,-2.2257,-2.255,-2.255,-2.2689,-2.2952,-2.3003,0.0,-2.3025,-2.3084,-2.3106,-2.3106,-2.3106,-2.3106,-2.3106,-2.3106,-2.3106,-2.3106,-2.3106,-2.3106,-2.3106,-2.3106,-2.3106,-2.3106,-2.3106,-2.3106,-2.3106,-2.3106,-2.3106,-2.3106,-2.3106,-2.3106,-2.3106,-2.3106,-2.3106,-2.3106,-2.3106,-2.3106,-2.3106,-2.3106,-2.3106,-2.3106,-2.3106,-2.3106,-2.3106,-2.3106,-2.3106,-2.3106,-2.3106,-2.3106,-2.3106,-2.3106,-2.3106,-2.3106,-2.3106,-2.3106,-2.3223,-2.3493,-2.3508,-2.3632,-2.3903,-2.391,-2.391,-2.391,-2.391,-2.391,-2.391,-2.391,-2.391,-2.391,-2.391,-2.391,-1.9235,-1.9279,-1.9279,-1.9279,-1.9279,-1.9279,-1.9279,0.0,0.0,0.0,0.0,-2.1887,-2.2391,0.0,0.0,0.0,0.0,0.0,0.0,0.0,0.0,0.0,0.0,0.0,0.0,0.0,0.0,0.0,0.0,-2.1211,-2.1211,-2.1211,-2.1211,-2.1211,-2.1379,-2.1459,-2.1459,-2.1789,-2.203,-2.2176,-2.2337,-2.2579,-2.2871,-2.2871,-2.2959,-2.3106,-2.3106,-2.3106,-2.3106,-2.3106,-2.3106,-2.3106,-2.3106,-2.3106,-2.3106,-2.3106,-2.3106,-2.3106,-2.3106,-2.3106,-2.3106,-2.3106,-2.3106,-2.3106,-2.3106,-2.3106,-2.3106,-2.3106,-2.3106,-2.3106,-2.3106,-2.3106,-2.3106,-2.3106,-2.3106,-2.3106,-2.3106,-2.3106,-2.3106,-2.3106,-2.3106,-2.3106,-2.3106,-2.3106,-2.3106,-2.3106,-2.3106,-2.3106,-2.3106,-2.3106,-2.3106,-2.3106,-2.3106,-2.3179,-2.3347,-2.3362,-2.3501,-2.383,-2.3845,-2.3918,-2.4071,-2.4086,-2.4086,-2.4086,-2.4086,-2.4086,-2.4086,-2.4086,-2.4086,-2.4086,-2.4086,-2.4086,-1.9257,-1.9279,-1.9279,-1.9279,-1.9279,-1.9279,-1.9279,-1.9279,0.0,0.0,0.0,-2.1183,-2.1988,0.0,0.0,0.0,0.0,0.0,0.0,0.0,0.0,0.0,0.0,0.0,0.0,0.0,0.0,0.0,0.0,-2.1211,-2.1211,-2.1211,-2.124,-2.1313,-2.1562,-2.173,-2.1803,-2.2118,-2.2396,-2.2623,-2.2689,-2.2864,-2.3106,-2.3106,-2.3106,-2.3106,-2.3106,-2.3106,-2.3106,-2.3106,-2.3106,-2.3106,-2.3106,-2.3106,-2.3106,-2.3106,-2.3106,-2.3106,-2.3106,-2.3106,-2.3106,-2.3106,-2.3106,-2.3106,-2.3106,-2.3106,-2.3106,-2.3106,-2.3106,-2.3106,-2.3106,-2.3106,-2.3106,-2.3106,-2.3106,-2.3106,-2.3106,-2.3106,-2.3106,-2.3106,-2.3106,-2.3106,-2.3106,-2.3106,-2.3106,-2.3106,-2.3106,-2.3106,-2.3106,-2.3171,-2.3215,-2.3215,-2.3215,-2.3347,-2.3676,-2.3698,-2.3837,-2.4166,-2.4188,-2.4218,-2.4291,-2.4291,-2.4291,-2.4291,-2.4291,-2.4291,-2.4291,-2.4291,-2.4291,-2.4291,-2.4291,-2.4291,-1.9199,-1.9279,-1.9279,-1.9279,-1.9279,-1.9279,-1.9279,0.0,0.0,0.0,-2.0987,-2.0885,-2.0987,0.0,0.0,0.0,0.0,-1.9279,0.0,0.0,0.0,0.0,0.0,0.0,0.0,0.0,0.0,0.0,0.0,-2.1211,-2.1211,-2.1211,-2.1342,-2.1642,-2.1679,-2.184,-2.2132,-2.2432,-2.2593,-2.2623,-2.2923,-2.3084,-2.3106,-2.3106,-2.3106,-2.3106,-2.3106,-2.3106,0.0,-2.3106,-2.3106,-2.3106,-2.3106,-2.3106,-2.3106,-2.3106,-2.3106,-2.3106,-2.3106,-2.3106,-2.3106,-2.3106,-2.3106,-2.3106,-2.3106,-2.3106,-2.3106,-2.3106,-2.3106,-2.3106,-2.3106,-2.3106,-2.3106,-2.3106,-2.3106,-2.3106,-2.3106,-2.3106,-2.3106,-2.3106,-2.3106,-2.3106,-2.3106,-2.3106,-2.3106,-2.3106,-2.3106,-2.3106,-2.3106,-2.3369,-2.3552,-2.3552,-2.3552,-2.3684,-2.4013,-2.4035,-2.4174,-2.4503,-2.4525,-2.4657,-2.4957,-2.4964,-2.4964,-2.4964,-2.4964,-2.4964,-2.4964,-2.4964,-2.4964,-2.4964,-2.4964,-2.4964,-1.9242,-1.9279,-1.9279,-1.9279,-1.9279,-1.9279,-1.9279,0.0,0.0,-2.0688,-2.0388,-2.0078,-2.0783,-2.038,0.0,0.0,0.0,0.0,0.0,0.0,0.0,0.0,0.0,0.0,0.0,0.0,0.0,0.0,0.0,-2.1211,-2.1211,-2.1211,-2.1357,-2.1686,-2.1891,-2.214,-2.244,-2.2754,-2.2915,-2.2915,-2.3047,-2.3106,-2.3106,-2.3106,-2.3106,-2.3106,-2.3106,-2.3106,0.0,-2.3106,-2.3106,-2.3106,-2.3106,-2.3106,-2.3106,-2.3106,-2.3106,-2.3106,-2.3106,-2.3106,-2.3106,-2.3106,-2.3106,-2.3106,-2.3106,-2.3106,-2.3106,-2.3106,-2.3106,-2.3106,-2.3106,-2.3106,-2.3106,-2.3106,-2.3106,-2.3106,-2.3106,-2.3106,-2.3106,-2.3106,-2.3106,-2.3106,-2.3106,-2.3106,-2.3106,-2.3106,-2.3106,-2.3179,-2.3376,-2.3515,-2.3742,-2.4137,-2.4005,-2.402,-2.4349,-2.4371,-2.4518,-2.484,-2.4862,-2.492,-2.5052,-2.5059,-2.5059,-2.5059,-2.5059,-2.5059,-2.5059,-2.5059,-2.5059,-2.5059,-2.5059,-2.5059,-1.9354,-1.9279,-1.9279,-1.9279,-1.9279,-1.9279,0.0,0.0,-1.9472,-2.0285,-1.9783,-1.9576,-2.0285,-1.9783,-1.9279,-1.9279,-1.9279,-1.9279,-1.9279,0.0,0.0,0.0,0.0,0.0,0.0,0.0,0.0,0.0,0.0,-2.1211,-2.1211,-2.1306,-2.1503,-2.1832,-2.2147,-2.2462,-2.2762,-2.2996,-2.3106,-2.3106,-2.3106,-2.3106,-2.3106,-2.3106,-2.3106,-2.3106,-2.3106,-2.3106,0.0,-2.3106,-2.3106,-2.3106,-2.3106,-2.3106,-2.3106,-2.3106,-2.3106,-2.3106,-2.3106,-2.3106,-2.3106,-2.3106,-2.3106,-2.3106,-2.3106,-2.3106,-2.3106,-2.3106,-2.3106,-2.3106,-2.3106,-2.3106,-2.3106,-2.3106,-2.3106,-2.3106,-2.3106,-2.3106,-2.3106,-2.3106,-2.3106,-2.3106,-2.3106,-2.3106,-2.3106,-2.3106,-2.3106,-2.323,-2.3552,-2.3684,-2.3954,-2.451,-2.4452,-2.4466,-2.4693,-2.4715,-2.481,-2.5044,-2.5059,-2.5059,-2.5059,-2.5059,-2.5059,-2.5059,-2.5059,-2.5059,-2.5059,-2.5059,-2.5059,-2.5059,-2.5059,-2.5059,-1.9487,-1.9279,-1.9279,-1.9279,-1.9279,-1.9279,0.0,0.0,-1.9279,-1.9272,-1.9279,-1.9279,-1.9272,-1.9279,-1.9279,-1.9279,-1.9279,-1.9279,-1.9279,0.0,0.0,0.0,0.0,0.0,0.0,0.0,0.0,0.0,0.0,0.0,-2.1211,-2.1511,-2.184,-2.2169,-2.2462,-2.2776,-2.3098,-2.3106,-2.3106,-2.3106,-2.3106,-2.3106,-2.3106,-2.3106,-2.3106,-2.3106,-2.3106,-2.3106,0.0,-2.3106,-2.3106,-2.3106,-2.3106,-2.3106,-2.3106,-2.3106,-2.3106,-2.3106,-2.3106,-2.3106,-2.3106,-2.3106,-2.3106,-2.3106,-2.3106,-2.3106,-2.3106,-2.3106,-2.3106,-2.3106,-2.3106,-2.3106,-2.3106,-2.3106,-2.3106,-2.3106,-2.3106,-2.3106,-2.3106,-2.3106,-2.3106,-2.3106,-2.3106,-2.3106,-2.3106,-2.3106,-2.3106,-2.323,-2.3552,-2.3881,-2.4203,-2.4532,-2.4854,-2.5052,-2.5052,-2.5052,-2.5052,-2.5059,-2.5059,-2.5059,-2.5059,-2.5059,-2.5059,-2.5059,-2.5059,-2.5059,-2.5059,-2.5059,-2.5059,-2.5059,-2.5059,-2.5059,-1.9346,-1.9279,-1.9279,-1.9279,-1.9279,-1.9279,-1.9279,0.0,-1.9279,-1.9279,-1.9279,-1.9279,-1.9279,-1.9279,-1.9279,-1.9279,-1.9279,-1.9279,-1.9279,0.0,0.0,0.0,0.0,0.0,0.0,0.0,0.0,0.0,-2.1211,-2.1211,-2.1211,-2.173,-2.2081,-2.2184,-2.2469,-2.2776,-2.3106,-2.3106,-2.3106,-2.3106,-2.3106,-2.3106,-2.3106,-2.3106,-2.3106,-2.3106,-2.3106,-2.3106,-2.3106,-2.3106,-2.3106,-2.3106,-2.3106,-2.3106,-2.3106,-2.3106,-2.3106,-2.3106,-2.3106,-2.3106,-2.3106,-2.3106,-2.3106,-2.3106,-2.3106,-2.3106,-2.3106,-2.3106,-2.3106,-2.3106,-2.3106,-2.3106,-2.3106,-2.3106,-2.3106,-2.3106,-2.3106,-2.3106,-2.3106,-2.3106,-2.3106,-2.3106,-2.3106,-2.3106,-2.3106,-2.3106,-2.3106,-2.331,-2.3859,-2.402,-2.4291,-2.4847,-2.4993,-2.5059,-2.5059,-2.5059,-2.5059,-2.5059,-2.5059,-2.5059,-2.5059,-2.5059,-2.5059,-2.5059,-2.5059,-2.5059,-2.5059,-2.5059,-2.5059,-2.5059,-2.5059,-2.5059,0.0,-1.9279,-1.9279,-1.9279,-1.9279,0.0,0.0,0.0,-1.9279,-1.9279,-1.9279,-1.9279,-1.9279,-1.9279,-1.9279,-1.9279,-1.9279,-1.9279,-1.9279,0.0,0.0,0.0,0.0,0.0,0.0,0.0,0.0,0.0,-2.1211,-2.1211,-2.1211,-2.1832,-2.2184,-2.2184,-2.2586,-2.2901,-2.3106,-2.3106,-2.3106,-2.3106,-2.3106,-2.3106,-2.3106,-2.3106,-2.3106,-2.3106,-2.3106,-2.3106,0.0,-2.3106,-2.3106,-2.3106,-2.3106,-2.3106,-2.3106,-2.3106,-2.3106,-2.3106,-2.3106,-2.3106,-2.3106,-2.3106,-2.3106,-2.3106,-2.3106,-2.3106,-2.3106,-2.3106,-2.3106,-2.3106,-2.3106,-2.3106,-2.3106,-2.3106,-2.3106,-2.3106,-2.3106,-2.3106,-2.3106,-2.3106,-2.3106,-2.3106,-2.3106,-2.3106,-2.3106,-2.3106,-2.3215,-2.3486,-2.4013,-2.4188,-2.4466,-2.5001,-2.5059,-2.5059,-2.5059,-2.5059,-2.5059,-2.5059,-2.5059,-2.5059,-2.5059,-2.5059,-2.5059,-2.5059,-2.5059,-2.5059,-2.5059,-2.5059,-2.5059,-2.5059,-2.5059,-2.5059,0.0,0.0,0.0,0.0,0.0,0.0,0.0,0.0,0.0,0.0,-1.9279,-1.9279,-1.9279,-1.9279,-1.9279,-1.9279,-1.9279,-1.9279,-1.9279,-1.9835,0.0,0.0,0.0,0.0,0.0,0.0,0.0,-2.1211,-2.1211,-2.1211,-2.1211,-2.1803,-2.2162,-2.2184,-2.2762,-2.3084,-2.3106,-2.3106,-2.3106,-2.3106,-2.3106,-2.3106,-2.3106,-2.3106,-2.3106,0.0,-2.3106,-2.3106,-2.3106,-2.3106,-2.3106,-2.3106,-2.3106,-2.3106,-2.3106,-2.3106,-2.3106,-2.3106,-2.3106,-2.3106,-2.3106,-2.3106,-2.3106,-2.3106,-2.3106,-2.3106,-2.3106,-2.3106,-2.3106,-2.3106,-2.3106,-2.3106,-2.3106,-2.3106,-2.3106,-2.3106,-2.3106,-2.3106,-2.3106,-2.3106,-2.3106,-2.3106,-2.3106,-2.3106,-2.3106,-2.3106,-2.3384,-2.3713,-2.4042,-2.4364,-2.4693,-2.5022,-2.5059,-2.5059,-2.5059,-2.5059,-2.5059,-2.5059,-2.5059,-2.5059,-2.5059,-2.5059,-2.5059,-2.5059,-2.5059,-2.5059,-2.5059,-2.5059,-2.5059,-2.5059,-2.5059,-2.5059,-2.0086,0.0,-1.9279,-1.9279,-1.9279,0.0,0.0,0.0,0.0,0.0,0.0,-1.9279,-1.9279,-1.9279,-1.9279,-1.9279,-1.9279,-1.9279,-1.9279,0.0,0.0,0.0,0.0,0.0,0.0,0.0,0.0,-2.1211,-2.1211,-2.1211,-2.1211,-2.1591,-2.1928,-2.2176,-2.2542,-2.2857,-2.3106,-2.3106,-2.3106,-2.3106,-2.3106,-2.3106,-2.3106,-2.3106,-2.3106,-2.3106,-2.3106,-2.3106,-2.3106,-2.3106,-2.3106,-2.3106,-2.3106,-2.3106,-2.3106,-2.3106,-2.3106,-2.3106,-2.3106,-2.3106,-2.3106,-2.3106,-2.3106,-2.3106,-2.3106,-2.3106,-2.3106,-2.3106,-2.3106,-2.3106,-2.3106,-2.3106,-2.3106,-2.3106,-2.3106,-2.3106,-2.3106,-2.3106,-2.3106,-2.3106,-2.3106,-2.3106,-2.3106,-2.3106,-2.3106,-2.3106,-2.3384,-2.3713,-2.4042,-2.4364,-2.4693,-2.5022,-2.5059,-2.5059,-2.5059,-2.5059,-2.5059,-2.5059,-2.5059,-2.5059,-2.5059,-2.5059,-2.5059,-2.5059,-2.5059,-2.5059,-2.5059,-2.5059,-2.5059,-2.5059,-2.5059,-2.5059,-2.1285,-2.0388,-1.9879,-1.9376,-1.9279,-1.9279,0.0,0.0,0.0,0.0,0.0,0.0,-1.9279,0.0,0.0,-1.9279,-1.9279,-1.9381,0.0,0.0,0.0,0.0,0.0,0.0,0.0,0.0,-2.1089,-2.0967,-2.0967,-2.0967,-2.0737,-2.1271,-2.1589,-2.1915,-2.234,-2.2776,-2.3106,-2.3106,-2.2981,-2.2856,-2.2856,-2.2731,-2.2606,-2.2606,-2.2738,-2.2856,-2.2856,-2.2988,-2.3106,-2.3106,-2.3106,-2.3106,-2.3106,-2.3106,-2.3106,-2.3106,-2.2981,-2.2856,-2.3106,-2.3106,-2.3106,-2.3106,-2.3106,-2.3106,-2.3106,-2.3106,-2.3106,-2.3106,-2.3106,-2.3106,-2.3106,-2.3106,-2.3106,-2.3106,-2.3106,-2.3106,-2.3106,-2.3106,-2.3106,-2.3106,-2.3106,-2.3106,-2.3106,-2.3106,-2.3106,-2.3106,-2.3515,-2.3881,-2.4057,-2.4496,-2.4862,-2.5037,-2.5059,-2.5059,-2.5059,-2.5059,-2.5059,-2.5059,-2.5059,-2.5059,-2.5059,-2.5059,-2.5059,-2.5059,-2.5059,-2.5059,-2.5059,-2.5059,-2.5059,-2.5059,-2.5059,-2.5059,-2.2391,-2.1582,-2.0688,-1.9583,-1.9279,-1.9279,0.0,0.0,0.0,0.0,0.0,0.0,0.0,0.0,0.0,0.0,0.0,0.0,0.0,0.0,0.0,0.0,0.0,0.0,0.0,-2.0852,-2.0967,-2.0608,-2.0601,-2.0493,-2.027,-2.0748,-2.1289,-2.1661,-2.2168,-2.2732,-2.3106,-2.3106,-2.2863,-2.2606,-2.2606,-2.2355,-2.2111,-2.2111,-2.2237,-2.2487,0.0,0.0,-2.2981,-2.2981,-2.2981,-2.2981,-2.2981,-2.2981,-2.2988,-2.3113,-2.2856,-2.2613,-2.2856,-2.2988,-2.2981,-2.2981,-2.3113,-2.3106,-2.3106,-2.3106,-2.3106,-2.3106,-2.3106,-2.3106,-2.3106,-2.3106,-2.3106,-2.3106,-2.3106,-2.3106,-2.3106,-2.3106,-2.3106,-2.3106,-2.3106,-2.3106,-2.3106,-2.3106,-2.3128,-2.3171,-2.3698,-2.4101,-2.4152,-2.4686,-2.5059,-2.5059,-2.5059,-2.5059,-2.5059,-2.5059,-2.5059,-2.5059,-2.5059,-2.5059,-2.5059,-2.5059,-2.5059,-2.5059,-2.5059,-2.5059,-2.5059,-2.5059,-2.5059,-2.5059,-2.5059,-2.5059,-2.1684,-2.0987,-2.0688,-1.9583,-1.9279,-1.9279,0.0,0.0,0.0,0.0,0.0,0.0,0.0,0.0,0.0,0.0,0.0,0.0,0.0,0.0,0.0,0.0,0.0,0.0,-2.0385,-2.0385,-2.0392,-2.0385,-2.0385,-2.0385,-2.027,-2.0435,-2.0833,-2.1654,-2.1838,-2.2262,-2.3106,-2.2856,-2.2606,-2.2606,-2.2362,-2.2111,-2.2111,-2.2111,-2.2111,-2.223,0.0,-2.248,-2.2237,-2.2613,-2.2487,-2.2237,-2.2606,-2.2738,-2.2738,-2.2981,-2.2856,-2.2606,-2.2362,-2.248,-2.2738,-2.2738,-2.2856,-2.3106,-2.3106,-2.3106,-2.3106,-2.3106,-2.3106,-2.3106,-2.3106,-2.3106,-2.3106,-2.3106,-2.3106,-2.3106,-2.3106,-2.3106,-2.3106,-2.3106,-2.3106,-2.3106,-2.3106,-2.3106,-2.3201,-2.3479,-2.3845,-2.4181,-2.4459,-2.4825,-2.5059,-2.5059,-2.5059,-2.5059,-2.5059,-2.5059,-2.5059,-2.5059,-2.5059,-2.5059,-2.5059,-2.5059,-2.5059,-2.5059,-2.5059,-2.5059,-2.5059,-2.5059,-2.5059,-2.5059,-2.5059,-2.5059,-2.1988,-2.1387,-2.0688,-1.9583,-1.9279,0.0,0.0,0.0,0.0,0.0,0.0,0.0,0.0,0.0,0.0,0.0,0.0,0.0,0.0,0.0,0.0,0.0,0.0,0.0,-2.004,-2.0155,-2.027,-2.004,-2.0046,-1.9931,-1.9822,-1.9931,-2.0323,-2.1173,-2.1314,-2.1847,-2.2606,-2.2237,-2.2111,-2.2362,-2.2111,-2.1859,-2.1607,-2.1607,-2.1607,-2.1859,0.0,-2.2111,-2.2111,-2.2237,-2.223,-2.2111,-2.2237,-2.2362,-2.2362,-2.2362,-2.2362,-2.2237,-2.1985,-2.2111,-2.2362,-2.2362,-2.2613,-2.2863,-2.2863,-2.2988,-2.3106,-2.3106,-2.3106,-2.3106,-2.3106,-2.3106,-2.3106,-2.3106,-2.3106,-2.3106,-2.3106,-2.3106,-2.3106,-2.3106,-2.3106,-2.3106,-2.3106,-2.3106,-2.3215,-2.3545,-2.3874,-2.4203,-2.4532,-2.4854,-2.5059,-2.5059,-2.5059,-2.5059,-2.5059,-2.5059,-2.5059,-2.5059,-2.5059,-2.5059,-2.5059,-2.5059,-2.5059,-2.5059,-2.5059,-2.5059,-2.5059,-2.5059,-2.5059,-2.5059,-2.5059,-2.5059,-2.2458,-2.1481,-2.0285,0.0,0.0,0.0,0.0,0.0,0.0,0.0,0.0,0.0,0.0,0.0,0.0,0.0,0.0,0.0,0.0,0.0,0.0,0.0,0.0,-2.0046,-1.97,-1.9931,-1.9931,-1.97,-1.9461,-1.9229,-1.9004,-1.9113,-1.9606,-2.0194,-2.0825,-2.1366,-2.2104,-2.1859,-2.1859,-2.1985,-2.1859,-2.1607,-2.1109,-2.1109,-2.1235,-2.1488,-2.1607,-2.1734,-2.1859,-2.1985,-2.1727,-2.1468,-2.1853,-2.1853,-2.1594,-2.1215,-2.1215,-2.1468,-2.1089,-2.1475,-2.1985,-2.1985,-2.2237,-2.2487,-2.2487,-2.2731,-2.2988,-2.2988,-2.2981,-2.3106,-2.3106,-2.3106,-2.3106,-2.3106,-2.3106,-2.3106,-2.3106,-2.3106,-2.3106,-2.3106,-2.3106,-2.3106,-2.3106,-2.3106,-2.3245,-2.3647,-2.3925,-2.4232,-2.4627,-2.4905,-2.5059,-2.5059,-2.5059,-2.5059,-2.5059,-2.5059,-2.5059,-2.5059,-2.5059,-2.5059,-2.5059,-2.5059,-2.5059,-2.5059,-2.5059,-2.5059,-2.5059,-2.5059,-2.5059,-2.5059,-2.5059,-2.5059,-2.2389,-2.0979,-1.9376,-1.9272,0.0,0.0,0.0,0.0,0.0,0.0,0.0,0.0,0.0,0.0,0.0,0.0,0.0,0.0,0.0,0.0,0.0,0.0,0.0,-1.9482,-1.9482,-1.9482,-1.9482,-1.9482,-1.8286,-1.7689,-1.7689,-1.7689,-1.8046,-1.8947,-2.0086,-2.1121,-2.2104,-2.2111,-2.1859,-2.1607,-2.1362,-2.1109,-2.1109,-2.1109,-2.1109,-2.1109,-2.1481,-2.1488,-2.1235,-2.1488,-2.0709,-1.9419,-2.0963,-2.1082,-2.0163,-1.9789,-1.9668,-1.9668,-1.9291,-2.0322,-2.1607,-2.1607,-2.1859,-2.2111,-2.2111,-2.2355,-2.2613,-2.2613,-2.2863,-2.3106,-2.3106,-2.3106,-2.3106,-2.3106,-2.3106,-2.3106,-2.3106,-2.3106,-2.3106,-2.3106,-2.3106,-2.3106,-2.3106,-2.3106,-2.3325,-2.3954,-2.4064,-2.4313,-2.4942,-2.5044,-2.5059,-2.5059,-2.5059,-2.5059,-2.5059,-2.5059,-2.5059,-2.5059,-2.5059,-2.5059,-2.5059,-2.5059,-2.5059,-2.5059,-2.5059,-2.5059,-2.5059,-2.5059,-2.5059,-2.5059,-2.5059,-2.5059,-2.2189,-2.0688,-1.8966,0.0,0.0,0.0,0.0,0.0,0.0,0.0,0.0,0.0,0.0,0.0,0.0,0.0,0.0,0.0,0.0,0.0,0.0,0.0,-1.9482,-1.9366,-1.9366,-1.9366,-1.9127,-1.8292,-1.7812,-1.7103,-1.6397,-1.6279,-1.6976,-1.8459,-1.8972,-1.9996,-2.1481,-2.1488,-2.1355,-2.1229,-2.1355,-2.1362,-2.1109,-2.1109,-2.1109,-2.1109,-2.1235,-2.1235,-2.0982,-2.0329,-1.9553,-1.9036,-1.878,-1.8512,-1.8127,-1.7999,-1.8005,-1.7871,-1.7748,-1.878,-1.9807,-1.9036,-2.0062,-2.1601,-2.0696,-2.1335,-2.2104,-2.1468,-2.1468,-2.1587,-2.1573,-2.2215,-2.2473,-2.1441,-2.1957,-2.2731,-2.2731,-2.2981,-2.3106,-2.3106,-2.3106,-2.3106,-2.3106,-2.3106,-2.3332,-2.3984,-2.4086,-2.432,-2.4971,-2.5059,-2.5059,-2.5059,-2.5059,-2.5059,-2.5059,-2.5059,-2.5059,-2.5059,-2.5059,-2.5059,-2.5059,-2.5059,-2.5059,-2.5059,-2.5059,-2.5059,-2.5059,-2.5059,-2.5059,-2.5059,-2.5059,-2.5059,-2.156,-2.0174,-1.8646,0.0,0.0,0.0,0.0,0.0,0.0,0.0,0.0,0.0,0.0,0.0,0.0,0.0,0.0,0.0,0.0,0.0,0.0,-1.9366,-1.9366,-1.9366,-1.9366,-1.9366,-1.8887,-1.7572,-1.7103,-1.6397,-1.5095,-1.5332,-1.6025,-1.6988,-1.8239,-1.9379,-2.0456,-2.0849,-2.1109,-2.1109,-2.1362,-2.1362,-2.1109,-2.1109,-2.1109,-2.1109,-2.1109,-2.0849,-2.0329,-1.9425,-1.878,-1.8262,-1.6845,-1.6333,-1.6333,-1.6333,-1.6333,-1.6333,-1.6333,-1.7232,-1.8262,-1.7361,-1.8396,-2.0062,-1.954,-1.9922,-2.0563,-2.0316,-2.0055,-1.9661,-1.9133,-2.0163,-2.1069,-2.043,-2.1069,-2.1971,-2.2355,-2.2606,-2.2856,-2.2856,-2.2981,-2.2988,-2.3113,-2.3193,-2.3449,-2.4005,-2.4174,-2.4437,-2.4986,-2.5059,-2.5059,-2.5059,-2.5059,-2.5059,-2.5059,-2.5059,-2.5059,-2.5059,-2.5059,-2.5059,-2.5059,-2.5059,-2.5059,-2.5059,-2.5059,-2.5059,-2.5059,-2.5059,-2.5059,-2.5059,-2.5059,-2.5059,-2.0601,-1.945,0.0,0.0,0.0,0.0,0.0,0.0,0.0,0.0,0.0,0.0,0.0,0.0,0.0,0.0,0.0,0.0,0.0,0.0,-1.9366,-1.9366,-1.9366,-1.9366,-1.9366,-1.9366,-1.8887,-1.7572,-1.6279,-1.5095,-1.3784,-1.4857,-1.5188,-1.4399,-1.8129,-1.9756,-1.9024,-2.0329,-2.1109,-2.1109,-2.1109,-2.1109,-2.1109,-2.1109,-2.1109,-2.1109,-2.1109,-2.0329,-1.9036,-1.8908,-1.8133,-1.6845,-1.5424,-1.4912,-1.4912,-1.4912,-1.4912,-1.4912,-1.4912,-1.5814,-1.698,-1.6974,-1.698,-1.7238,-1.8524,-1.8256,-1.7736,-1.9152,-1.8756,-1.7597,-1.5799,-1.6958,-1.8768,-2.0189,-2.0309,-2.043,-2.1846,-2.2111,-2.2237,-2.2487,-2.2606,-2.2738,-2.2988,-2.3384,-2.3706,-2.4035,-2.4364,-2.4686,-2.5015,-2.5052,-2.5052,-2.5052,-2.5052,-2.5059,-2.5059,-2.5059,-2.5059,-2.5059,-2.5059,-2.5059,-2.5059,-2.5059,-2.5059,-2.5059,-2.5059,-2.5059,-2.5059,-2.5059,-2.5059,-2.5059,-2.5059,-2.5059,-2.013,-1.9131,0.0,0.0,0.0,0.0,0.0,0.0,0.0,0.0,0.0,0.0,0.0,0.0,0.0,0.0,0.0,0.0,0.0,-1.9366,-1.9366,-1.9366,-1.9366,-1.9366,-1.9366,-1.9366,-1.8532,-1.6279,-1.5806,-1.4624,-1.2487,-1.2728,-1.3318,-1.418,-1.5443,-1.6539,-1.7351,-1.7919,-1.8652,-1.968,-1.968,-2.0202,-2.1109,-2.1109,-2.1109,-2.0982,-2.0075,-1.9425,-1.8908,-1.6974,-1.5294,-1.4006,-1.3617,-1.3486,-1.3486,-1.3486,-1.3486,-1.3486,-1.3486,-1.4394,-1.5298,-1.439,-1.5429,-1.6845,-1.6328,-1.6586,-1.7103,-1.6721,-1.6462,-1.5944,-1.4646,-1.4656,-1.5173,-1.6328,-1.8127,-1.9795,-2.0182,-2.1209,-2.2111,-2.2237,-2.248,-2.2684,-2.3033,-2.3403,-2.3786,-2.4342,-2.451,-2.4686,-2.4738,-2.4638,-2.4638,-2.4638,-2.4638,-2.4774,-2.5059,-2.5059,-2.5059,-2.5059,-2.5059,-2.5059,-2.5059,-2.5059,-2.5059,-2.5059,-2.5059,-2.5059,-2.5059,-2.5059,-2.5059,-2.5059,-2.5059,-2.5059,-1.9243,0.0,0.0,0.0,0.0,0.0,0.0,0.0,0.0,0.0,0.0,0.0,0.0,0.0,0.0,0.0,0.0,0.0,0.0,-1.7941,-1.8058,-1.8648,-1.8648,-1.8887,-1.9366,-1.9366,-1.8298,-1.5806,-1.5575,-1.4505,-1.1897,-1.2251,-1.2807,-1.3237,-1.4547,-1.5383,-1.5849,-1.6594,-1.7367,-1.8267,-1.8267,-1.8908,-2.0329,-2.0849,-2.1109,-2.0982,-1.9036,-1.7876,-1.7232,-1.5038,-1.3617,-1.2836,-1.2836,-1.2836,-1.2836,-1.2836,-1.2836,-1.2836,-1.2836,-1.3354,-1.3875,-1.3095,-1.4002,-1.5298,-1.5038,-1.5038,-1.5298,-1.5173,-1.4786,-1.4268,-1.3617,-1.3363,-1.3494,-1.4782,-1.6457,-1.7865,-1.8384,-1.9801,-2.0956,-2.1082,-2.1816,-2.2483,-2.2801,-2.3293,-2.3717,-2.4238,-2.4405,-2.4557,-2.4338,-2.4367,-2.4367,-2.4367,-2.4367,-2.4638,-2.4781,-2.5052,-2.5059,-2.5059,-2.5059,-2.5059,-2.5059,-2.5059,-2.5059,-2.5059,-2.5059,-2.5059,-2.5059,-2.5059,-2.5059,-2.5059,-2.5059,-2.5059,0.0,0.0,0.0,0.0,0.0,0.0,0.0,0.0,0.0,0.0,0.0,0.0,0.0,0.0,0.0,0.0,0.0,0.0,0.0,-1.5575,-1.6042,-1.722,-1.7337,-1.7812,-1.8894,-1.901,-1.8058,-1.5569,-1.5456,-1.4386,-1.1897,-1.296,-1.3036,-1.2,-1.4513,-1.5472,-1.443,-1.5797,-1.6695,-1.6845,-1.6845,-1.749,-1.8908,-2.0329,-2.0849,-2.0589,-1.8139,-1.6073,-1.4651,-1.3354,-1.2836,-1.2836,-1.2836,-1.2836,-1.2836,-1.2836,-1.2836,-1.2836,-1.2836,-1.2836,-1.2836,-1.2836,-1.2836,-1.3095,-1.4263,-1.3875,-1.3095,-1.4394,-1.3744,-1.2836,-1.2836,-1.2836,-1.3227,-1.4786,-1.5043,-1.5298,-1.6586,-1.8005,-1.9042,-1.9444,-2.0952,-2.2208,-2.2521,-2.3126,-2.3637,-2.3925,-2.4316,-2.4367,-2.3959,-2.3959,-2.3959,-2.3959,-2.4231,-2.4367,-2.4503,-2.4781,-2.5059,-2.5059,-2.5059,-2.5059,-2.5059,-2.5052,-2.5059,-2.5059,-2.5059,-2.5059,-2.5059,-2.5059,-2.5059,-2.5059,-2.5059,-2.5059,0.0,0.0,0.0,0.0,0.0,0.0,0.0,0.0,0.0,0.0,0.0,0.0,0.0,0.0,0.0,0.0,0.0,0.0,0.0,-1.5575,-1.5693,-1.5924,-1.6042,-1.6161,-1.6402,-1.6402,-1.5806,-1.4262,-1.4143,-1.3435,-1.1893,-1.2014,-1.2151,-1.1829,-1.2602,-1.291,-1.286,-1.3298,-1.4105,-1.5298,-1.5298,-1.6073,-1.7496,-1.878,-1.8908,-1.7882,-1.7232,-1.5554,-1.3227,-1.2964,-1.2836,-1.2836,-1.2836,-1.2836,-1.2836,-1.2836,-1.2836,-1.2836,-1.2836,-1.2836,-1.2836,-1.2836,-1.2836,-1.2836,-1.3095,-1.3095,-1.2836,-1.3227,-1.2964,-1.2836,-1.2836,-1.2836,-1.2836,-1.3227,-1.4132,-1.5038,-1.5298,-1.7232,-1.9096,-1.9437,-2.0967,-2.2216,-2.2821,-2.3273,-2.3574,-2.3954,-2.4053,-2.3959,-2.3543,-2.3543,-2.3543,-2.3543,-2.3543,-2.3816,-2.4095,-2.4231,-2.4231,-2.4231,-2.4231,-2.4231,-2.4231,-2.4503,-2.4638,-2.4638,-2.4367,-2.4231,-2.4231,-2.4231,-2.4231,-2.4231,-2.4231,-2.4231,0.0,0.0,0.0,0.0,0.0,0.0,0.0,0.0,0.0,0.0,0.0,0.0,0.0,0.0,0.0,0.0,0.0,0.0,-1.3913,-1.3799,-1.4033,-1.4619,-1.4738,-1.4976,-1.5575,-1.5575,-1.5095,-1.3784,-1.3665,-1.3195,-1.1897,-1.1776,-1.1776,-1.1776,-1.1943,-1.2077,-1.2174,-1.2434,-1.2992,-1.3864,-1.3827,-1.4651,-1.6073,-1.7361,-1.7232,-1.5944,-1.5944,-1.4777,-1.2836,-1.2836,-1.2836,-1.2836,-1.2836,-1.2836,-1.2836,-1.2836,-1.2836,-1.2836,-1.2836,-1.2836,-1.2836,-1.2836,-1.2836,-1.2836,-1.2836,-1.2836,-1.2836,-1.2836,-1.2836,-1.2836,-1.2836,-1.2836,-1.2836,-1.2836,-1.3354,-1.3875,-1.3875,-1.5633,-1.7173,-1.7429,-1.8835,-2.0433,-2.1546,-2.2667,-2.3492,-2.3522,-2.355,-2.3543,-2.327,-2.3133,-2.3133,-2.3133,-2.327,-2.3543,-2.3679,-2.3823,-2.3959,-2.3959,-2.3959,-2.3959,-2.3959,-2.3952,-2.4088,-2.4231,-2.4095,-2.3959,-2.3959,-2.3959,-2.3959,-2.3959,-2.3959,-2.3959,0.0,0.0,0.0,0.0,0.0,0.0,0.0,0.0,0.0,0.0,0.0,0.0,0.0,0.0,0.0,0.0,0.0,-1.296,-1.1893,-1.1776,-1.213,-1.3195,-1.331,-1.3789,-1.4862,-1.4981,-1.4505,-1.343,-1.331,-1.296,-1.1897,-1.1776,-1.1776,-1.1776,-1.1914,-1.2,-1.2028,-1.2324,-1.2503,-1.2564,-1.2747,-1.3354,-1.452,-1.5684,-1.5814,-1.4907,-1.4907,-1.4132,-1.2836,-1.2836,-1.2836,-1.2836,-1.2836,-1.2836,-1.2836,-1.2836,-1.2836,-1.2836,-1.2836,-1.2836,-1.2836,-1.2836,-1.2836,-1.2836,-1.2836,-1.2836,-1.2836,-1.2836,-1.2836,-1.2836,-1.2836,-1.2836,-1.2836,-1.2836,-1.2836,-1.2836,-1.2836,-1.402,-1.5219,-1.5257,-1.6682,-1.8501,-2.003,-2.1725,-2.2853,-2.2859,-2.3133,-2.327,-2.3003,-2.2859,-2.2859,-2.2859,-2.3133,-2.327,-2.327,-2.3679,-2.3823,-2.3823,-2.3823,-2.3823,-2.3823,-2.3543,-2.3406,-2.3823,-2.3823,-2.3823,-2.3823,-2.3823,-2.3823,-2.3823,-2.3823,-2.3823,0.0,0.0,0.0,0.0,0.0,0.0,0.0,0.0,0.0,0.0,0.0,0.0,0.0,0.0,0.0,0.0,-1.3442,-1.2014,-1.1776,-1.1776,-1.1897,-1.2014,-1.2014,-1.2134,-1.2251,-1.2251,-1.2251,-1.2014,-1.2014,-1.2014,-1.1776,-1.1776,-1.1776,-1.1776,-1.1797,-1.1878,-1.2028,-1.2077,-1.2255,-1.2564,-1.2747,-1.2836,-1.3095,-1.3223,-1.3875,-1.4907,-1.4907,-1.4132,-1.2836,-1.2836,-1.2836,-1.2836,-1.2836,-1.2836,-1.2836,-1.2836,-1.2836,-1.2836,-1.2836,-1.2836,-1.2836,-1.2836,-1.2836,-1.2836,-1.2836,-1.2836,-1.2836,-1.2836,-1.2836,-1.2836,-1.2836,-1.2836,-1.2836,-1.2836,-1.2836,-1.2836,-1.2836,-1.402,-1.5262,-1.5456,-1.7057,-1.8754,-2.0298,-2.0743,-2.1465,-2.2722,-2.2996,-2.2996,-2.2866,-2.2859,-2.2859,-2.2859,-2.2996,-2.2996,-2.2996,-2.3003,-2.3003,-2.3003,-2.3003,-2.3003,-2.3003,-2.2996,-2.2996,-2.3003,-2.3003,-2.3003,-2.3003,-2.3003,-2.3003,-2.3003,-2.3003,-2.3003,0.0,0.0,0.0,0.0,0.0,0.0,0.0,0.0,0.0,0.0,0.0,0.0,0.0,0.0,0.0,0.0,-1.283,-1.1776,-1.1776,-1.1776,-1.1776,-1.1776,-1.1776,-1.1776,-1.1776,-1.1776,-1.1776,-1.1776,-1.1776,-1.1776,-1.1776,-1.1776,-1.1776,-1.1776,-1.1776,-1.1813,-1.1886,-1.1979,-1.2211,-1.2564,-1.2645,-1.2739,-1.2836,-1.2836,-1.3095,-1.3744,-1.3744,-1.3354,-1.2836,-1.2836,-1.2836,-1.2836,-1.2836,-1.2836,-1.2836,-1.2836,-1.2836,-1.2836,-1.2836,-1.2836,-1.2836,-1.2836,-1.2836,-1.2836,-1.2836,-1.2836,-1.2836,-1.2836,-1.2836,-1.2836,-1.2836,-1.2836,-1.2836,-1.2836,-1.2836,-1.286,-1.2962,-1.3654,-1.4275,-1.4579,-1.6023,-1.7268,-1.797,-1.9507,-2.0768,-2.1465,-2.2304,-2.2859,-2.2859,-2.2166,-2.1885,-2.2859,-2.2166,-2.2022,-2.2859,-2.2859,-2.2859,-2.2859,-2.2859,-2.2859,-2.2859,-2.2859,-2.2859,-2.2859,-2.2859,-2.2859,-2.2859,-2.2859,-2.2859,-2.2859,-2.2859,-2.2859,0.0,0.0,0.0,0.0,0.0,0.0,0.0,0.0,0.0,0.0,0.0,0.0,0.0,0.0,0.0,-1.3346,-1.2399,-1.1723,-1.1768,-1.1776,-1.1776,-1.1776,-1.1776,-1.1776,-1.1776,-1.1776,-1.1776,-1.1776,-1.1776,-1.1776,-1.1776,-1.1776,-1.1776,-1.1776,-1.1776,-1.1776,-1.1776,-1.1947,-1.2162,-1.243,-1.2519,-1.2633,-1.2771,-1.2816,-1.2836,-1.2836,-1.2836,-1.2836,-1.2836,-1.2836,-1.2836,-1.2836,-1.2836,-1.2836,-1.2836,-1.2836,-1.2836,-1.2836,-1.2836,-1.2836,-1.2836,-1.2836,-1.2836,-1.2836,-1.2836,-1.2836,-1.2836,-1.2836,-1.2836,-1.2836,-1.2836,-1.2836,-1.2836,-1.2836,-1.2873,-1.295,-1.3124,-1.3311,-1.353,-1.3843,-1.4746,-1.5589,-1.6013,-1.825,-2.0207,-2.0491,-2.1885,-2.2722,-2.2304,-2.1327,-2.1051,-2.2166,-2.1327,-2.1189,-2.2722,-2.2859,-2.2859,-2.2859,-2.2859,-2.2859,-2.2859,-2.2859,-2.2859,-2.2859,-2.2859,-2.2859,-2.2859,-2.2859,-2.2859,-2.2859,-2.2859,-2.2859,0.0,0.0,0.0,0.0,0.0,0.0,0.0,0.0,0.0,0.0,0.0,0.0,0.0,0.0,0.0,-1.3022,-1.2199,-1.1577,-1.1752,-1.1776,-1.1776,-1.1776,-1.1776,-1.1776,-1.1776,-1.1776,-1.1776,-1.1776,-1.1776,-1.1776,-1.1776,-1.1776,-1.1776,-1.1776,-1.1776,-1.1776,-1.1776,-1.1947,-1.2036,-1.206,-1.2402,-1.2568,-1.2584,-1.2755,-1.2836,-1.2836,-1.2836,-1.2836,-1.2836,-1.2836,-1.2836,-1.2836,-1.2836,-1.2836,-1.2836,-1.2836,-1.2836,-1.2836,-1.2836,-1.2836,-1.2836,-1.2836,-1.2836,-1.2836,-1.2836,-1.2836,-1.2836,-1.2836,-1.2836,-1.2836,-1.2836,-1.2836,-1.2836,-1.2836,-1.2962,-1.3133,-1.3315,-1.3502,-1.3685,-1.3868,-1.39,-1.4466,-1.5872,-1.7409,-1.8944,-2.0352,-2.1885,-2.2304,-2.0912,-2.0629,-2.0629,-2.0768,-2.0629,-2.1189,-2.2722,-2.2859,-2.2859,-2.2859,-2.2859,-2.2859,-2.2859,-2.2859,-2.2859,-2.2859,-2.2859,-2.2859,-2.2859,-2.2859,-2.2859,-2.2859,-2.2859,-2.2859,0.0,0.0,0.0,0.0,0.0,0.0,0.0,0.0,0.0,0.0,0.0,0.0,0.0,0.0,-1.2427,-1.1833,-1.1434,-1.1386,-1.1573,-1.1602,-1.1642,-1.176,-1.1776,-1.1776,-1.1776,-1.1776,-1.1776,-1.1776,-1.1776,-1.1776,-1.1776,-1.1776,-1.1776,-1.1776,-1.1776,-1.1776,-1.1776,-1.1837,-1.1922,-1.2032,-1.2158,-1.2341,-1.2564,-1.2629,-1.2726,-1.2836,-1.2836,-1.2836,-1.2836,-1.2836,-1.2836,-1.2836,-1.2836,-1.2836,-1.2836,-1.2836,-1.2836,-1.2836,-1.2836,-1.2836,-1.2836,-1.2836,-1.2836,-1.2836,-1.2836,-1.2836,-1.2836,-1.2836,-1.2836,-1.2836,-1.2836,-1.2836,-1.2865,-1.2974,-1.3141,-1.3323,-1.3506,-1.3685,-1.3827,-1.3888,-1.39,-1.4043,-1.4604,-1.5867,-1.7409,-1.8944,-2.0485,-2.1189,-2.0629,-1.9785,-1.9228,-1.9228,-1.825,-1.867,-2.1189,-2.1465,-2.1885,-2.2859,-2.2859,-2.2859,-2.2859,-2.2859,-2.2859,-2.2859,-2.2859,-2.2859,-2.2859,-2.2859,-2.2859,-2.2859,-2.2859,-2.2859,0.0,0.0,0.0,0.0,0.0,0.0,0.0,0.0,0.0,0.0,0.0,0.0,0.0,0.0,-1.1775,-1.1068,-1.1066,-1.12,-1.1378,-1.1459,-1.1545,-1.1667,-1.174,-1.1776,-1.1776,-1.1776,-1.1776,-1.1776,-1.1776,0.0,-1.1776,-1.1776,-1.1776,-1.1776,-1.1776,-1.1776,-1.1776,-1.1776,-1.1833,-1.1947,-1.2004,-1.2154,-1.2389,-1.2507,-1.2629,-1.2747,-1.2808,-1.2836,-1.2836,-1.2836,-1.2836,-1.2836,-1.2836,-1.2836,-1.2836,-1.2836,-1.2836,-1.2836,-1.2836,-1.2836,-1.2836,-1.2836,-1.2836,-1.2836,-1.2836,-1.2836,-1.2836,-1.2836,-1.2836,-1.2836,-1.2836,-1.2881,-1.2966,-1.3145,-1.3327,-1.351,-1.3693,-1.3819,-1.39,-1.39,-1.39,-1.39,-1.39,-1.5168,-1.6569,-1.8105,-1.9222,-1.9924,-1.9924,-1.8525,-1.7684,-1.7684,-1.671,-1.7132,-1.9646,-2.0352,-2.1051,-2.2022,-2.2585,-2.2859,-2.2859,-2.2859,-2.2859,-2.2859,-2.2859,-2.2859,-2.2859,-2.2859,-2.2859,-2.2859,-2.2859,-2.2859,0.0,0.0,0.0,0.0,0.0,0.0,0.0,0.0,0.0,0.0,0.0,0.0,0.0,-1.0692,-1.0753,-1.0932,-1.096,-1.1021,-1.1191,-1.137,-1.1488,-1.1492,-1.165,-1.176,-1.1768,-1.1768,-1.1768,-1.1776,-1.1776,-1.1776,-1.1776,-1.1776,-1.1776,-1.1776,-1.1776,-1.1776,-1.1776,-1.1776,-1.1776,-1.178,-1.1943,-1.2024,-1.204,-1.2389,-1.2552,-1.2576,-1.2751,-1.2832,-1.2836,-1.2836,-1.2836,-1.2836,-1.2836,-1.2836,-1.2836,-1.2836,-1.2836,-1.2836,-1.2836,-1.2836,-1.2836,-1.2836,-1.2836,-1.2836,-1.2836,-1.2836,-1.2836,-1.2836,-1.2836,-1.2836,-1.2836,-1.2966,-1.3141,-1.3327,-1.351,-1.3693,-1.3863,-1.39,-1.39,-1.39,-1.39,-1.39,-1.39,-1.5026,-1.6569,-1.8105,-1.8379,-1.8379,-1.8379,-1.6992,-1.6009,-1.6013,-1.6013,-1.671,-1.8245,-1.9646,-2.0491,-2.0629,-2.2022,-2.2859,-2.2859,-2.2859,-2.2859,-2.2859,-2.2859,-2.2859,-2.2859,-2.2859,-2.2859,-2.2859,-2.2859,-2.2859,-1.7582,0.0,0.0,0.0,0.0,0.0,0.0,0.0,0.0,0.0,0.0,0.0,-1.0907,-1.0692,-1.0708,-1.0761,-1.0769,-1.0834,-1.1013,-1.1082,-1.1163,-1.1285,-1.1342,-1.1427,-1.1565,-1.1577,-1.163,0.0,-1.1776,-1.1776,-1.1776,-1.1776,-1.1776,-1.1776,-1.1776,-1.1776,-1.1776,-1.1776,-1.1776,-1.1776,-1.1825,-1.191,-1.2032,-1.2134,-1.2316,-1.2564,-1.2617,-1.2714,-1.2836,-1.2836,-1.2836,-1.2836,-1.2836,-1.2836,-1.2836,-1.2836,-1.2836,-1.2836,-1.2836,-1.2836,-1.2836,-1.2836,-1.2836,-1.2836,-1.2836,-1.2836,-1.2836,-1.2836,-1.2836,-1.2836,-1.2836,-1.2966,-1.3141,-1.3327,-1.351,-1.3693,-1.3863,-1.39,-1.39,-1.39,-1.39,-1.39,-1.39,-1.4181,-1.5026,-1.6569,-1.671,-1.671,-1.671,-1.6291,-1.573,-1.4604,-1.4462,-1.5168,-1.6569,-1.7132,-1.825,-2.0491,-2.1051,-2.1747,-2.2859,-2.2859,-2.2859,-2.2859,-2.2859,-2.2859,-2.2859,-2.2859,-2.2859,-2.2859,-2.2859,-2.2859,0.0,0.0,0.0,0.0,0.0,0.0,-1.5535,-1.5102,0.0,0.0,0.0,-1.1446,-1.0798,-1.0692,-1.0692,-1.0692,-1.0692,-1.0729,-1.0838,-1.0919,-1.1005,-1.1106,-1.1179,-1.1265,-1.1374,-1.1382,-1.1459,-1.1646,-1.1663,-1.1695,-1.1772,-1.1776,-1.1776,-1.1776,-1.1776,-1.1776,-1.1776,-1.1776,-1.1776,-1.1776,-1.1776,-1.1829,-1.1926,-1.2,-1.2186,-1.2462,-1.2532,-1.2666,-1.2836,-1.2836,-1.2836,-1.2836,-1.2836,-1.2836,-1.2836,-1.2836,-1.2836,-1.2836,-1.2836,-1.2836,-1.2836,-1.2836,-1.2836,-1.2836,-1.2836,-1.2836,-1.2836,-1.2836,-1.2836,-1.2836,-1.2836,-1.3023,-1.3238,-1.3344,-1.3567,-1.3778,-1.388,-1.39,-1.39,-1.39,-1.39,-1.39,-1.39,-1.39,-1.4466,-1.5872,-1.5589,-1.5452,-1.6013,-1.5593,-1.4888,-1.4043,-1.39,-1.4185,-1.5168,-1.573,-1.6851,-1.867,-1.993,-2.1051,-2.1885,-2.2578,-2.2859,-2.2859,-2.2859,-2.2859,-2.2859,-2.2859,-2.2859,-2.2859,-2.2859,-2.2859,0.0,0.0,0.0,0.0,0.0,0.0,-1.4995,-1.446,-1.3922,0.0,0.0,-1.1232,-1.1122,-1.1126,-1.1017,-1.0907,-1.0907,-1.0798,-1.0692,-1.0834,-1.094,-1.094,-1.1074,-1.1171,-1.1191,-1.1196,-1.1273,-1.1455,-1.1488,-1.1581,-1.1764,-1.1776,-1.1776,-1.1776,-1.1776,-1.1776,-1.1776,-1.1776,-1.1776,-1.1776,-1.1776,-1.1776,-1.178,-1.1931,-1.2113,-1.2316,-1.2471,-1.2649,-1.2836,-1.2836,-1.2836,-1.2836,-1.2836,-1.2836,-1.2836,-1.2836,-1.2836,-1.2836,-1.2836,-1.2836,-1.2836,-1.2836,-1.2836,-1.2836,-1.2836,-1.2836,-1.2836,-1.2836,-1.2836,-1.2836,-1.2836,-1.31,-1.3372,-1.3372,-1.3644,-1.39,-1.39,-1.39,-1.39,-1.39,-1.39,-1.39,-1.39,-1.39,-1.4324,-1.5589,-1.4746,-1.4324,-1.573,-1.4746,-1.39,-1.39,-1.39,-1.39,-1.39,-1.5168,-1.5872,-1.6155,-1.867,-2.0207,-2.0629,-2.1885,-2.2722,-2.2859,-2.2859,-2.2859,-2.2859,-2.2859,-2.2859,-2.2859,-2.2859,-2.2859,0.0,0.0,0.0,0.0,0.0,0.0,-1.7041,-1.6935,-1.6505,0.0,-1.4888,-1.4567,-1.3599,-1.3491,-1.3166,-1.22,-1.2096,-1.1769,-1.0798,-1.0724,-1.0745,-1.0745,-1.0773,-1.0854,-1.1005,-1.1017,-1.109,-1.1265,-1.1415,-1.1581,-1.1764,-1.1776,-1.1776,-1.1776,-1.1776,-1.1776,-1.1776,-1.1776,-1.1776,-1.1776,-1.1776,-1.1776,-1.178,-1.1809,-1.2,-1.2308,-1.2345,-1.254,-1.2836,-1.2836,-1.2836,-1.2836,-1.2836,-1.2836,-1.2836,-1.2836,-1.2836,-1.2836,-1.2836,-1.2836,-1.2836,-1.2836,-1.2836,-1.2836,-1.2836,-1.2836,-1.2836,-1.2836,-1.2836,-1.2836,-1.2836,-1.31,-1.3372,-1.3372,-1.3644,-1.39,-1.39,-1.39,-1.39,-1.39,-1.39,-1.39,-1.39,-1.39,-1.4043,-1.4324,-1.4043,-1.4043,-1.4324,-1.4043,-1.39,-1.39,-1.39,-1.39,-1.39,-1.4185,-1.4888,-1.6013,-1.6715,-1.811,-2.0491,-2.0906,-2.1609,-2.2866,-2.2859,-2.2859,-2.2859,-2.2859,-2.2859,-2.2859,-2.2859,-2.2859,0.0,0.0,0.0,-1.7582,0.0,0.0,0.0,-1.6723,-1.6393,-1.5209,-1.4995,-1.4781,-1.4239,0.0,-1.3922,-1.3383,-1.2738,-1.22,-1.1664,-1.1013,-1.0692,-1.0692,-1.0692,-1.0729,-1.0822,-1.083,-1.0903,-1.1082,-1.1346,-1.1541,-1.1634,-1.1727,-1.1776,-1.1776,-1.1776,-1.1776,-1.1776,-1.1776,-1.1776,-1.1776,-1.1776,-1.1776,-1.1776,-1.1776,-1.1971,-1.2308,-1.2308,-1.2507,-1.2836,-1.2836,-1.2836,-1.2836,-1.2836,-1.2836,-1.2836,-1.2836,-1.2836,-1.2836,-1.2836,-1.2836,-1.2836,-1.2836,-1.2836,-1.2836,-1.2836,-1.2836,-1.2836,-1.2836,-1.2836,-1.2836,-1.2836,-1.3035,-1.3254,-1.3352,-1.3575,-1.3794,-1.3884,-1.39,-1.39,-1.39,-1.39,-1.39,-1.39,-1.39,-1.39,-1.39,-1.39,-1.39,-1.39,-1.39,-1.39,-1.39,-1.39,-1.39,-1.39,-1.39,-1.4181,-1.5026,-1.6428,-1.7965,-1.9507,-2.0906,-2.216,-2.2859,-2.2859,-2.2859,-2.2859,-2.2859,-2.2859,-2.2859,-2.2859,-2.2859,0.0,0.0,0.0,0.0,0.0,-1.7364,0.0,0.0,0.0,-1.4995,-1.4781,0.0,0.0,0.0,0.0,0.0,0.0,0.0,0.0,-1.201,0.0,-1.0802,-1.0692,-1.0692,-1.0692,-1.0692,-1.0769,-1.0956,-1.1236,-1.1427,-1.1496,-1.1642,-1.174,-1.1776,-1.1776,-1.1776,-1.1776,-1.1772,-1.1651,-1.1651,-1.1651,-1.1651,-1.1651,-1.1776,-1.1951,-1.2255,-1.2292,-1.2491,-1.2787,-1.2824,-1.2836,-1.2836,-1.2836,-1.2836,-1.2836,-1.2836,-1.2836,-1.2836,-1.2836,-1.2836,-1.2836,-1.2836,-1.2836,-1.2836,-1.2836,-1.2836,-1.2836,-1.2836,-1.2836,-1.2836,-1.2836,-1.2966,-1.3141,-1.3327,-1.351,-1.3693,-1.3863,-1.39,-1.39,-1.39,-1.39,-1.39,-1.39,-1.39,-1.39,-1.39,-1.39,-1.39,-1.39,-1.39,-1.39,-1.39,-1.39,-1.39,-1.39,-1.39,-1.39,-1.39,-1.6145,-1.7825,-1.8385,-2.1321,-2.2859,-2.2859,-2.2859,-2.2859,-2.2859,-2.2859,-2.2859,-2.2859,-2.2859,-2.2859,0.0,0.0,0.0,0.0,-1.7582,0.0,0.0,0.0,-1.7364,-1.7259,0.0,0.0,0.0,0.0,0.0,0.0,0.0,0.0,-1.4422,-1.394,-1.295,-1.0907,-1.0692,-1.0692,-1.0692,-1.0692,-1.0769,-1.0956,-1.1009,-1.1167,-1.1484,-1.152,-1.1606,-1.1772,-1.1776,-1.1776,-1.1776,-1.1522,-1.1394,-1.1394,-1.1394,-1.1394,-1.1398,-1.1651,-1.1882,-1.2069,-1.2235,-1.2414,-1.2609,-1.2771,-1.2836,-1.2836,-1.2836,-1.2836,-1.2836,-1.2836,-1.2836,-1.2836,-1.2836,-1.2836,-1.2836,-1.2836,-1.2836,-1.2836,-1.2836,-1.2836,-1.2836,-1.2836,-1.2836,-1.2836,-1.2836,-1.2966,-1.3141,-1.3327,-1.351,-1.3693,-1.3863,-1.39,-1.39,-1.39,-1.39,-1.39,-1.39,-1.39,-1.39,-1.39,-1.39,-1.39,-1.39,-1.39,-1.39,-1.39,-1.39,-1.39,-1.39,-1.39,-1.39,-1.39,-1.4181,-1.5584,-1.8239,-2.1321,-2.2859,-2.2859,-2.2859,-2.2859,-2.2859,-2.2859,-2.2859,-2.2859,-2.2859,-2.2859,0.0,0.0,0.0,0.0,0.0,0.0,-1.747,0.0,-1.7582,0.0,0.0,0.0,0.0,0.0,0.0,0.0,-1.6361,0.0,0.0,0.0,-1.3701,0.0,0.0,0.0,-1.0802,-1.1341,-1.1481,-1.0912,-1.1569,-1.1746,-1.1325,-1.1443,-1.1585,-1.1768,-1.1776,-1.1651,-1.1522,-1.1398,-1.1152,-1.1031,-1.1031,-1.1031,-1.1031,-1.1402,-1.1618,-1.1669,-1.1976,-1.2274,-1.2576,-1.2497,-1.2572,-1.2836,-1.2572,-1.2572,-1.2836,-1.2572,-1.2572,-1.2836,-1.2836,-1.2836,-1.2836,-1.2836,-1.2836,-1.2836,-1.2836,-1.2836,-1.2836,-1.2836,-1.2836,-1.2836,-1.2836,-1.2889,-1.3015,-1.3303,-1.3429,-1.3563,-1.3843,-1.39,-1.39,-1.39,-1.39,-1.39,-1.39,-1.39,-1.39,-1.39,-1.39,-1.39,-1.39,-1.39,-1.39,-1.39,-1.39,-1.39,-1.39,-1.39,-1.39,-1.39,-1.4746,-1.6569,-1.9507,-2.0906,-2.2022,-2.2866,-2.2859,-2.2859,-2.2859,-2.2859,-2.2859,-2.2859,-2.2859,-2.2859,-1.6287,0.0,0.0,0.0,0.0,0.0,0.0,0.0,0.0,0.0,0.0,0.0,0.0,0.0,0.0,0.0,0.0,-1.6424,0.0,0.0,0.0,0.0,0.0,0.0,0.0,-1.2309,-1.2313,-1.1122,-1.1912,-1.1966,-1.091,-1.1089,-1.1272,-1.1575,-1.1627,-1.1522,-1.1273,-1.1152,-1.1031,-1.0668,-1.0668,-1.0668,-1.0668,-1.1031,-1.1221,-1.1352,-1.1576,-1.1869,-1.2254,-1.2219,-1.2309,-1.2441,-1.2177,-1.2177,-1.2441,-1.2309,-1.2309,-1.2572,-1.2572,-1.2572,-1.2704,-1.2704,-1.2836,-1.2836,-1.2836,-1.2836,-1.2836,-1.2836,-1.2836,-1.2836,-1.2836,-1.2836,-1.2925,-1.3287,-1.3372,-1.347,-1.3827,-1.39,-1.39,-1.39,-1.39,-1.39,-1.39,-1.39,-1.39,-1.39,-1.39,-1.39,-1.39,-1.39,-1.39,-1.39,-1.39,-1.39,-1.39,-1.39,-1.39,-1.39,-1.531,-1.7273,-1.993,-2.0352,-2.1327,-2.2859,-2.2859,-2.2859,-2.2859,-2.2859,-2.2859,-2.2859,-2.2859,-2.2859,0.0,0.0,0.0,-1.5968,0.0,0.0,0.0,0.0,-1.7582,0.0,0.0,0.0,0.0,0.0,0.0,-1.7983,0.0,0.0,0.0,0.0,0.0,0.0,0.0,0.0,0.0,-1.3825,-1.3181,-1.2091,-1.1782,-1.1215,-1.0164,-1.0219,-1.0619,-1.115,-1.1191,-1.1273,-1.1273,-1.1031,-1.0668,-1.0304,-1.0304,-1.0304,-1.0304,-1.0668,-1.0793,-1.0815,-1.1147,-1.1296,-1.1326,-1.165,-1.178,-1.178,-1.1383,-1.1512,-1.178,-1.178,-1.178,-1.178,-1.178,-1.2045,-1.2309,-1.2704,-1.2836,-1.2836,-1.2836,-1.2836,-1.2836,-1.2836,-1.2836,-1.2836,-1.2836,-1.2836,-1.2925,-1.3287,-1.3372,-1.347,-1.3827,-1.39,-1.39,-1.39,-1.39,-1.39,-1.39,-1.39,-1.39,-1.39,-1.39,-1.39,-1.39,-1.39,-1.39,-1.39,-1.39,-1.39,-1.39,-1.39,-1.39,-1.39,-1.531,-1.6851,-1.8379,-1.9785,-2.1327,-2.2859,-2.2859,-2.2859,-2.2859,-2.2859,-2.2859,-2.2859,-2.2859,-2.2859,0.0,0.0,-1.327,-1.4239,0.0,0.0,0.0,0.0,0.0,0.0,0.0,0.0,0.0,0.0,-1.7397,-1.6744,-1.7218,0.0,0.0,0.0,0.0,0.0,0.0,0.0,0.0,0.0,-1.3171,-1.1778,-1.1664,-1.1084,-1.0156,-1.0211,-1.0495,-1.0787,-1.0947,-1.091,-1.0668,-1.0547,-1.0304,-0.9943,-0.9943,-0.9943,-0.994,-1.0304,-1.0425,-1.0443,-1.0771,-1.1038,-1.1318,-1.1384,-1.1516,-1.178,-1.138,-1.1251,-1.1383,-1.1383,-1.1516,-1.178,-1.178,-1.2045,-1.2309,-1.2441,-1.2572,-1.2836,-1.2836,-1.2836,-1.2836,-1.2836,-1.2836,-1.2836,-1.2836,-1.2836,-1.2897,-1.3133,-1.3283,-1.3437,-1.3681,-1.3819,-1.39,-1.39,-1.39,-1.39,-1.39,-1.39,-1.39,-1.39,-1.39,-1.39,-1.39,-1.39,-1.39,-1.39,-1.39,-1.39,-1.39,-1.39,-1.39,-1.39,-1.4324,-1.5726,-1.8245,-1.8944,-2.034,-2.2859,-2.2859,-2.2859,-2.2859,-2.2859,-2.2859,-2.2859,-2.2859,-2.2859,-1.2304,-1.1978,0.0,-1.2729,-1.3264,0.0,-1.4888,0.0,0.0,0.0,0.0,0.0,0.0,0.0,0.0,-1.5968,-1.6505,-1.7153,0.0,-1.7582,0.0,0.0,0.0,0.0,0.0,0.0,-1.3275,-1.1555,-1.1328,-1.0724,-0.9738,-0.9784,-1.0062,-1.0343,-1.0506,-1.0492,-1.0304,-1.0304,-1.0183,-0.9822,-0.9822,-0.9822,-0.9822,-1.0065,-1.0065,-1.0079,-1.052,-1.0788,-1.0937,-1.0992,-1.1118,-1.1383,-1.1118,-1.0986,-1.0986,-1.0986,-1.1251,-1.1383,-1.1516,-1.178,-1.1912,-1.2045,-1.2309,-1.2572,-1.2572,-1.2704,-1.286,-1.299,-1.2934,-1.2865,-1.2994,-1.2934,-1.2881,-1.3051,-1.3238,-1.3421,-1.3604,-1.3778,-1.39,-1.39,-1.39,-1.39,-1.39,-1.39,-1.39,-1.39,-1.39,-1.39,-1.39,-1.39,-1.39,-1.39,-1.39,-1.39,-1.39,-1.39,-1.39,-1.39,-1.39,-1.5026,-1.7549,-1.8105,-1.968,-2.217,-2.2638,-2.2919,-2.3026,-2.2919,-2.2859,-2.2859,-2.2859,-2.2859]}]]